[[{"header":{"parameterUnit":"m.s-1","parameterCategory":1,"la1":31.0,"la2":29.5877,"lo1":-88.7671,"lo2":-86.6584,"dy":0.0162,"dx":0.0185,"nx":115,"ny":88,"refTime":"2025-08-07T12:00:00:Z","depth":0,"parameterNumber":2,"parameterNumberName":"U-component_of_WINDS"},"data":[0.0,0.0,0.0,0.0,0.0,0.0,0.0,0.0,0.0,0.0,0.0,0.0,0.0,0.0,0.0,0.0,0.0,0.0,0.0,0.0,0.0,0.0,0.0,0.0,0.0,0.0,0.0,0.0,0.0,0.0,0.0,0.0,0.0,0.0,0.0,0.0,0.0,0.0,0.0,0.0,0.0,0.0,0.0,0.0,0.0,0.0,0.0,0.0,0.0,0.0,0.0,0.0,0.0,0.0,0.0,0.0,0.0,0.0,0.0,0.0,0.0,0.0,0.0,0.0,0.0,0.0,0.0,0.0,0.0,0.0,0.0,0.0,0.0,0.0,0.0,0.0,0.0,0.0,0.0,0.0,0.0,0.0,0.0,0.0,0.0,0.0,0.0,0.0,0.0,0.0,0.0,0.0,0.0,0.0,0.0,0.0,0.0,0.0,0.0,0.0,0.0,0.0,0.0,0.0,0.0,0.0,0.0,0.0,0.0,0.0,0.0,0.0,0.0,0.0,0.0,0.0,0.0,0.0,0.0,0.0,0.0,0.0,0.0,0.0,0.0,0.0,0.0,0.0,0.0,0.0,0.0,0.0,0.0,0.0,0.0,0.0,0.0,0.0,0.0,0.0,0.0,0.0,0.0,0.0,0.0,0.0,0.0,0.0,0.0,0.0,0.0,0.0,0.0,0.0,0.0,0.0,0.0,0.0,0.0,0.0,0.0,0.0,0.0,0.0,0.0,0.0,0.0,0.0,0.0,0.0,0.0,0.0,0.0,0.0,0.0,0.0,0.0,0.0,0.0,0.0,0.0,0.0,0.0,0.0,0.0,0.0,0.0,0.0,0.0,0.0,0.0,0.0,0.0,0.0,0.0,0.0,0.0,0.0,0.0,0.0,0.0,0.0,0.0,0.0,0.0,0.0,0.0,0.0,0.0,0.0,0.0,0.0,0.0,0.0,0.0,0.0,0.0,0.0,0.0,0.0,0.0,0.0,0.0,0.0,0.0,0.0,0.0,0.0,0.0,0.0,0.0,0.0,0.0,0.0,0.0,0.0,0.0,0.0,0.0,0.0,0.0,0.0,0.0,0.0,0.0,0.0,0.0,0.0,0.0,0.0,0.0,0.0,0.0,0.0,0.0,0.0,0.0,0.0,0.0,0.0,0.0,0.0,0.0,0.0,0.0,0.0,0.0,0.0,0.0,0.0,0.0,0.0,0.0,0.0,0.0,0.0,0.0,0.0,0.0,0.0,0.0,0.0,0.0,0.0,0.0,0.0,0.0,0.0,0.0,0.0,0.0,0.0,0.0,0.0,0.0,0.0,0.0,0.0,0.0,0.0,0.0,0.0,0.0,0.0,0.0,0.0,0.0,0.0,0.0,0.0,0.0,0.0,0.0,0.0,0.0,0.0,0.0,0.0,0.0,0.0,0.0,0.0,0.0,0.0,0.0,0.0,0.0,0.0,0.0,0.0,0.0,0.0,0.0,0.0,0.0,0.0,0.0,0.0,0.0,0.0,0.0,0.0,0.0,0.0,0.0,0.0,0.0,0.0,0.0,0.0,0.0,0.0,0.0,0.0,0.0,0.0,0.0,0.0,0.0,0.0,0.0,0.0,0.0,0.0,0.0,0.0,0.0,0.0,0.0,0.0,0.0,0.0,0.0,0.0,0.0,0.0,0.0,0.0,0.0,0.0,0.0,0.0,0.0,0.0,0.0,0.0,0.0,0.0,0.0,0.0,0.0,0.0,0.0,0.0,0.0,0.0,0.0,0.0,0.0,0.0,0.0,0.0,0.0,0.0,0.0,0.0,0.0,0.0,0.0,0.0,0.0,0.0,0.0,0.0,0.0,0.0,0.0,0.0,0.0,0.0,0.0,0.0,0.0,0.0,0.0,0.0,0.0,0.0,0.0,0.0,0.0,0.0,0.0,0.0,0.0,0.0,0.0,0.0,0.0,0.0,0.0,0.0,0.0,0.0,0.0,0.0,0.0,0.0,0.0,0.0,0.0,0.0,0.0,0.0,0.0,0.0,0.0,0.0,0.0,0.0,0.0,0.0,0.0,0.0,0.0,0.0,0.0,0.0,0.0,0.0,0.0,0.0,0.0,0.0,0.0,0.0,0.0,0.0,0.0,0.0,0.0,0.0,0.0,0.0,0.0,0.0,0.0,0.0,0.0,0.0,0.0,0.0,0.0,0.0,0.0,0.0,0.0,0.0,0.0,0.0,0.0,0.0,0.0,0.0,0.0,0.0,0.0,0.0,0.0,0.0,0.0,0.0,0.0,0.0,0.0,0.0,0.0,0.0,0.0,0.0,0.0,0.0,0.0,0.0,0.0,0.0,0.0,0.0,0.0,0.0,0.0,0.0,0.0,0.0,0.0,0.0,0.0,0.0,0.0,0.0,0.0,0.0,0.0,0.0,0.0,0.0,0.0,0.0,0.0,0.0,0.0,0.0,0.0,0.0,0.0,0.0,0.0,0.0,0.0,0.0,0.0,0.0,0.0,0.0,0.0,0.0,0.0,0.0,0.0,0.0,0.0,0.0,0.0,0.0,0.0,0.0,0.0,0.0,0.0,0.0,0.0,0.0,0.0,0.0,0.0,0.0,0.0,0.0,0.0,0.0,0.0,0.0,0.0,0.0,0.0,0.0,0.0,0.0,0.0,0.0,0.0,0.0,0.0,0.0,0.0,0.0,0.0,0.0,0.0,0.0,0.0,0.0,0.0,0.0,0.0,0.0,0.0,0.0,0.0,0.0,0.0,0.0,0.0,0.0,0.0,0.0,0.0,0.0,0.0,0.0,0.0,0.0,0.0,0.0,0.0,0.0,0.0,0.0,0.0,0.0,0.0,0.0,0.0,0.0,0.0,0.0,0.0,0.0,0.0,0.0,0.0,0.0,0.0,0.0,0.0,0.0,0.0,0.0,0.0,0.0,0.0,0.0,0.0,0.0,0.0,0.0,0.0,0.0,0.0,0.0,0.0,0.0,0.0,0.0,0.0,0.0,0.0,0.0,0.0,0.0,0.0,0.0,0.0,0.0,0.0,0.0,0.0,0.0,0.0,0.0,0.0,0.0,0.0,0.0,0.0,0.0,0.0,0.0,0.0,0.0,0.0,0.0,0.0,0.0,0.0,0.0,0.0,0.0,0.0,0.0,0.0,0.0,0.0,0.0,0.0,0.0,0.0,0.0,0.0,0.0,0.0,0.0,0.0,0.0,0.0,0.0,0.0,0.0,0.0,0.0,0.0,0.0,0.0,0.0,0.0,0.0,0.0,0.0,0.0,0.0,0.0,0.0,0.0,0.0,0.0,0.0,0.0,0.0,0.0,0.0,0.0,0.0,0.0,0.0,0.0,0.0,0.0,0.0,0.0,0.0,0.0,0.0,0.0,0.0,0.0,0.0,0.0,0.0,0.0,0.0,0.0,0.0,0.0,0.0,0.0,0.0,0.0,0.0,0.0,0.0,0.0,0.0,0.0,0.0,0.0,0.0,0.0,0.0,0.0,0.0,0.0,0.0,0.0,0.0,0.0,0.0,0.0,0.0,0.0,0.0,0.0,0.0,0.0,0.0,0.0,0.0,0.0,0.0,0.0,0.0,0.0,0.0,0.0,0.0,0.0,0.0,0.0,0.0,0.0,0.0,0.0,0.0,0.0,0.0,0.0,0.0,0.0,0.0,0.0,0.0,0.0,0.0,0.0,0.0,0.0,0.0,0.0,0.0,0.0,0.0,0.0,0.0,0.0,0.0,0.0,0.0,0.0,0.0,0.0,0.0,0.0,0.0,0.0,0.0,0.0,0.0,0.0,0.0,0.0,0.0,0.0,0.0,0.0,0.0,0.0,0.0,0.0,0.0,0.0,0.0,0.0,0.0,0.0,0.0,0.0,0.0,0.0,0.0,0.0,0.0,0.0,0.0,0.0,0.0,0.0,0.0,0.0,0.0,0.0,0.0,0.0,0.0,0.0,0.0,0.0,0.0,0.0,0.0,0.0,0.0,0.0,0.0,0.0,0.0,0.0,0.0,0.0,0.0,0.0,0.0,0.0,0.0,0.0,0.0,0.0,0.0,0.0,0.0,0.0,0.0,0.0,0.0,0.0,0.0,0.0,0.0,0.0,0.0,0.0,0.0,0.0,0.0,0.0,0.0,0.0,0.0,0.0,0.0,0.0,0.0,0.0,0.0,0.0,0.0,0.0,0.0,0.0,0.0,0.0,0.0,0.0,0.0,0.0,0.0,0.0,0.0,0.0,0.0,0.0,0.0,0.0,0.0,0.0,0.0,0.0,0.0,0.7395,0.0,0.0,0.0,0.0,0.0,0.0,0.0,0.0,0.0,0.0,0.0,0.0,0.0,0.0,0.0,0.0,0.0,0.0,0.0,0.0,0.0,0.0,0.0,0.0,0.0,0.0,0.0,0.0,0.0,0.0,0.0,0.0,0.0,0.0,0.0,0.0,0.0,0.0,0.0,0.0,0.0,0.0,0.0,0.0,0.0,0.0,0.0,0.0,0.0,0.0,0.0,0.0,0.0,0.0,0.0,0.0,0.0,0.0,0.0,0.0,0.0,0.0,0.0,0.0,0.0,0.0,0.0,0.0,0.0,0.0,0.0,0.0,0.0,0.0,0.0,0.0,0.0,0.0,0.0,0.0,0.0,0.0,0.0,0.0,0.0,0.0,0.0,0.0,0.0,0.0,0.0,0.0,0.0,0.0,0.0,0.0,0.0,0.0,0.0,0.0,0.0,0.0,0.0,0.0,0.0,0.0,0.0,0.0,0.0,0.0,0.5719,0.6251,0.6474,0.6673,0.6745,0.0,0.0,0.0,0.0,0.0,0.0,0.0,0.0,0.0,0.0,0.0,0.0,0.0,0.0,0.0,0.0,0.0,0.0,0.0,0.0,0.0,0.0,0.0,0.0,0.0,0.0,0.0,0.0,0.0,0.0,0.0,0.0,0.0,0.0,0.0,0.0,0.0,0.0,0.0,0.0,0.0,0.0,0.0,0.0,0.0,0.0,0.0,0.0,0.0,0.0,0.0,0.0,0.0,0.0,0.0,0.0,0.0,0.0,0.0,0.0,0.0,0.0,0.0,0.0,0.0,0.0,0.0,0.0,0.0,0.0,0.0,0.0,0.0,0.0,0.0,0.0,0.0,0.0,0.0,0.0,0.0,0.0,0.0,0.0,0.0,0.0,0.0,0.0,0.0,0.0,0.0,0.0,0.0,0.0,0.0,0.0,0.0,0.0,0.0,0.0,0.0,0.0,0.0,0.0,0.0,0.0,0.0,0.0,0.0,0.0,0.0,0.0,0.5843,0.5999,0.6177,0.0,0.0,0.0,0.0,0.0,0.0,0.0,0.0,0.0,0.0,0.0,0.0,0.0,0.0,0.0,0.0,0.0,0.0,0.0,0.0,0.0,0.0,0.0,0.0,0.0,0.0,0.0,0.0,0.0,0.0,0.0,0.0,0.0,0.0,0.0,0.0,0.0,0.0,0.0,0.0,0.0,0.0,0.0,0.0,0.0,0.0,0.0,0.0,0.0,0.0,0.0,0.0,0.0,0.0,0.0,0.0,0.0,0.0,0.0,0.0,0.0,0.0,0.0,0.0,0.0,0.0,0.0,0.0,0.0,0.0,0.0,0.0,0.0,0.0,0.0,0.0,0.0,0.0,0.0,0.0,0.0,0.0,0.0,0.0,0.0,0.0,0.0,0.0,0.0,0.0,0.0,0.0,0.0,0.0,0.0,0.0,0.0,0.0,0.0,0.0,0.0,0.0,0.0,0.0,0.0,0.0,0.0,0.0,0.0,0.0,0.4248,0.4804,0.5233,0.0,0.58,0.0,0.0,0.0,0.0,0.0,0.0,0.0,0.0,0.0,0.0,0.0,0.0,0.0,0.0,0.0,0.0,0.0,0.0,0.0,0.0,0.0,0.0,0.0,0.0,0.0,0.0,0.0,0.0,0.0,0.0,0.0,0.0,0.0,0.0,0.0,0.0,0.0,0.0,0.0,0.0,0.0,0.0,0.0,0.0,0.0,0.0,0.0,0.0,0.0,0.0,0.0,0.0,0.0,0.0,0.0,0.0,0.0,0.0,0.0,0.0,0.0,0.0,0.0,0.0,0.0,0.0,0.0,0.0,0.0,0.0,0.0,0.0,0.0,0.0,0.0,0.0,0.0,0.0,0.0,0.0,0.0,0.0,0.0,0.0,0.0,0.0,0.0,0.0,0.0,0.0,0.0,0.0,0.0,0.0,0.0,0.0,0.0,0.0,0.0,0.0,0.0,0.0,0.0,0.0,0.0,0.0,0.0,0.0,0.0,0.0,0.3666,0.426,0.498,0.5365,0.0,0.0,0.0,0.0,0.0,0.0,0.0,0.0,0.0,0.0,0.0,0.0,0.0,0.0,0.0,0.0,0.0,0.0,0.0,0.0,0.0,0.0,0.0,0.0,0.0,0.0,0.0,0.0,0.0,0.0,0.0,0.0,0.0,0.0,0.0,0.0,0.0,0.0,0.0,0.0,0.0,0.0,0.0,0.0,0.0,0.0,0.0,0.0,0.0,0.0,0.0,0.0,0.0,0.0,0.0,0.0,0.0,0.0,0.0,0.0,0.0,0.0,0.0,0.0,0.0,0.0,0.0,0.0,0.0,0.0,0.0,0.0,0.0,0.0,0.0,0.0,0.0,0.0,0.0,0.0,0.0,0.0,0.0,0.0,0.0,0.0,0.0,0.0,0.0,0.0,0.0,0.0,0.0,0.0,0.0,0.0,0.0,0.0,0.0,0.0,0.0,0.0,0.0,0.0,0.0,0.0,0.0,0.0,0.0,0.0,0.2785,0.3271,0.4146,0.4888,0.5243,0.5209,0.0,0.0,0.0,0.0,0.0,0.0,0.0,0.0,0.0,0.0,0.0,0.0,0.0,0.0,0.0,0.0,0.0,0.0,0.0,0.0,0.0,0.0,0.0,0.0,0.0,0.0,0.0,0.0,0.0,0.0,0.0,0.0,0.0,0.0,0.0,0.0,0.0,0.0,0.0,0.0,0.0,0.0,0.0,0.0,0.0,0.0,0.0,0.0,0.0,0.0,0.0,0.0,0.0,0.0,0.0,0.0,0.0,0.0,0.0,0.0,0.0,0.0,0.0,0.0,0.0,0.0,0.0,0.0,0.0,0.0,0.0,0.0,0.0,0.0,0.0,0.0,0.0,0.0,0.0,0.0,0.0,0.0,0.0,0.0,0.0,0.0,0.0,0.0,0.0,0.0,0.0,0.0,0.0,0.0,0.0,0.0,0.0,0.0,0.0,0.0,0.0,0.0,0.0,0.0,0.0,0.0,0.0,0.0,0.196,0.2261,0.3161,0.4585,0.5027,0.5287,0.0,0.0,0.0,0.0,0.0,0.0,0.0,0.0,0.0,0.0,0.0,0.0,0.0,0.0,0.0,0.0,0.0,0.0,0.0,0.0,0.0,0.0,0.0,0.0,0.0,0.0,0.0,0.0,0.0,0.0,0.0,0.0,0.0,0.0,0.0,0.0,0.0,0.0,0.0,0.0,0.0,0.0,0.0,0.0,0.0,0.0,0.0,0.0,0.0,0.0,0.0,0.0,0.0,0.0,0.0,0.0,0.0,0.0,0.0,0.0,0.0,0.0,0.0,0.0,0.0,0.0,0.0,0.0,0.0,0.0,0.0,0.0,0.0,0.0,0.0,0.0,0.0,0.0,0.0,0.0,0.0,0.0,0.0,0.0,0.0,0.0,0.0,0.0,0.0,0.0,0.0,0.0,0.0,0.0,0.0,0.0,0.0,0.0,0.0,0.0,0.0,0.0,0.0,0.0,0.0,0.0,0.0,0.0,0.0,0.1649,0.243,0.3284,0.4168,0.4845,0.511,0.0,0.0,0.0,0.0,0.0,0.0,0.0,0.0,0.0,0.0,0.0,0.0,0.0,0.0,0.0,0.0,0.0,0.0,0.0,0.0,0.0,0.0,0.0,0.0,0.0,0.0,0.0,0.0,0.0,0.0,0.0,0.0,0.0,0.0,0.0,0.0,0.0,0.0,0.0,0.0,0.0,0.0,0.0,0.0,0.0,0.0,0.0,0.0,0.0,0.0,0.0,0.0,0.0,0.0,0.0,0.0,0.0,0.0,0.0,0.0,0.0,0.0,0.0,0.0,0.0,0.0,0.0,0.0,0.0,0.0,0.0,0.0,0.0,0.0,0.0,0.0,0.0,0.0,0.0,0.0,0.0,0.0,0.0,0.0,0.0,0.0,0.0,0.0,0.0,0.0,0.0,0.0,0.0,0.0,0.0,0.0,0.0,0.0,0.0,0.0,0.0,0.0,0.0,0.0,0.0,0.0,0.0,0.0,0.0,0.1453,0.0,0.3302,0.3937,0.4656,0.4909,0.0,0.0,0.0,0.0,0.0,0.0,0.0,0.0,0.0,0.0,0.0,0.0,0.0,0.0,0.0,0.0,0.0,0.0,0.0,0.0,0.0,0.0,0.0,0.0,0.0,0.0,0.0,0.0,0.0,0.0,0.0,0.0,0.0,0.0,0.0,0.0,0.0,0.0,0.0,0.0,0.0,0.0,0.0,0.0,0.0,0.0,0.0,0.0,0.0,0.0,0.0,0.0,0.0,0.0,0.0,0.0,0.0,0.0,0.0,0.0,0.0,0.0,0.0,0.0,0.0,0.0,0.0,0.0,0.0,0.0,0.0,0.0,0.0,0.0,0.0,0.0,0.0,0.0,0.0,0.0,0.0,0.0,0.0,0.0,0.0,0.0,0.0,0.0,0.0,0.0,0.0,0.0,0.0,0.0,0.0,0.0,0.0,0.0,0.0,0.0,0.0,0.0,0.0,0.0,0.0,0.0,0.0,0.0,0.1277,0.1491,0.2336,0.3178,0.4064,0.4405,0.4632,0.0,0.0,0.0,0.0,0.0,0.0,0.0,0.0,0.0,0.0,0.0,0.0,0.0,0.0,0.0,0.0,0.0,0.0,0.0,0.0,0.0,0.0,0.0,0.0,0.0,0.0,0.0,0.0,0.0,0.0,0.0,0.0,0.0,0.0,0.0,0.0,0.0,0.0,0.0,0.0,0.0,0.0,0.0,0.0,0.0,0.0,0.0,0.0,0.0,0.0,0.0,0.0,0.0,0.0,0.0,0.0,0.0,0.0,0.0,0.0,0.0,0.0,0.0,0.0,0.0,0.0,0.0,0.0,0.0,0.0,0.0,0.0,0.0,0.0,0.0,0.0,0.0,0.0,0.0,0.0,0.0,0.0,0.0,0.0,0.0,0.0,0.0,0.0,0.0,0.0,0.0,0.0,0.0,0.0,0.0,0.0,0.0,0.0,0.0,0.0,0.0,0.0,0.0,0.0,0.0,0.0,0.0,0.0,0.0,0.1158,0.2002,0.2673,0.3136,0.3722,0.3887,0.0,0.0,0.0,0.0,0.0,0.0,0.0,0.0,0.0,0.0,0.0,0.0,0.0,0.0,0.0,0.0,0.0,0.0,0.0,0.0,0.0,0.0,0.0,0.0,0.0,0.0,0.0,0.0,0.0,0.0,0.0,0.0,0.0,0.0,0.0,0.0,0.0,0.0,0.0,0.0,0.0,0.0,0.0,0.0,0.0,0.0,0.0,0.0,0.0,0.0,0.0,0.0,0.0,0.0,0.0,0.0,0.0,0.0,0.0,0.0,0.0,0.0,0.0,0.0,0.0,0.0,0.0,0.0,0.0,0.0,0.0,0.0,0.0,0.0,0.0,0.0,0.0,0.0,0.0,0.0,0.0,0.0,0.0,0.0,0.0,0.0,0.0,0.0,0.0,0.0,0.0,0.0,0.0,0.0,0.0,0.0,0.0,0.0,0.0,0.0,0.0,0.0,0.0,0.0,0.0,0.0,0.0,0.0,0.0,-0.0426,0.0919,0.1896,0.2345,0.2924,0.3112,0.2825,0.0,0.0,0.0,0.0,0.0,0.0,0.0,0.0,0.0,0.0,0.0,0.0,0.0,0.0,0.0,0.0,0.0,0.0,0.0,0.0,0.0,0.0,0.0,0.0,0.0,0.0,0.0,0.0,0.0,0.0,0.0,0.0,0.0,0.0,0.0,0.0,0.0,0.0,0.0,0.0,0.0,0.0,0.0,0.0,0.0,0.0,0.0,0.0,0.0,0.0,0.0,0.0,0.0,0.0,0.0,0.0,0.0,0.0,0.0,0.0,0.0,0.0,0.0,0.0,0.0,0.0,0.0,0.0,0.0,0.0,0.0,0.0,0.0,0.0,0.0,0.0,0.0,0.0,0.0,0.0,0.0,0.0,0.0,0.0,0.0,0.0,0.0,0.0,0.0,0.0,0.0,0.0,0.0,0.0,0.0,0.0,0.0,0.0,0.0,0.0,0.0,0.0,0.0,0.0,0.0,0.0,0.0,0.0,-0.3115,-0.0935,0.0653,0.159,0.1987,0.227,0.0,0.0,0.0,0.0,0.0,0.0,0.0,0.0,0.0,0.0,0.0,0.0,0.0,0.0,0.0,0.0,0.0,0.0,0.0,0.0,0.0,0.0,0.0,0.0,0.0,0.0,0.0,0.0,0.0,0.0,0.0,0.0,0.0,0.0,0.0,0.0,0.0,0.0,0.0,0.0,0.0,0.0,0.0,0.0,0.0,0.0,0.0,0.0,0.0,0.0,0.0,0.0,0.0,0.0,0.0,0.0,0.0,0.0,0.0,0.0,0.0,0.0,0.0,0.0,0.0,0.0,0.0,0.0,0.0,0.0,0.0,0.0,0.0,0.0,0.0,0.0,0.0,0.0,0.0,0.0,0.0,0.0,0.0,0.0,0.0,0.0,0.0,0.0,0.0,0.0,0.0,0.0,0.0,0.0,0.0,0.0,0.0,0.0,0.0,0.0,0.0,0.0,0.0,0.0,0.0,0.0,0.0,0.0,0.0,-0.6037,-0.4982,-0.3057,-0.0255,0.0449,0.0963,0.0,0.0,0.0,0.0,0.0,0.0,0.0,0.0,0.0,0.0,0.0,0.0,0.0,0.0,0.0,0.0,0.0,0.0,0.0,0.0,0.0,0.0,0.0,0.0,0.0,0.0,0.0,0.0,0.0,0.0,0.0,0.0,0.0,0.0,0.0,0.0,0.0,0.0,0.0,0.0,0.0,0.0,0.0,0.0,0.0,0.0,0.0,0.0,0.0,0.0,0.0,0.0,0.0,0.0,0.0,0.0,0.0,0.0,0.0,0.0,0.0,0.0,0.0,0.0,0.0,0.0,0.0,0.0,0.0,0.0,0.0,0.0,0.0,0.0,0.0,0.0,0.0,0.0,0.0,0.0,0.0,0.0,0.0,0.0,0.0,0.0,0.0,0.0,0.0,0.0,0.0,0.0,0.0,0.0,0.0,0.0,0.0,0.0,0.0,0.0,0.0,0.0,0.0,0.0,0.0,0.0,0.0,0.0,-0.8524,-0.9037,-0.8284,-0.6555,-0.3844,-0.1939,-0.0515,0.0,0.0,0.0,0.0,0.0,0.0,0.0,0.0,0.0,0.0,0.0,0.0,0.0,0.0,0.0,0.0,0.0,0.0,0.0,0.0,0.0,0.0,0.0,0.0,0.0,0.0,0.0,0.0,0.0,0.0,0.0,0.0,0.0,0.0,0.0,0.0,0.0,0.0,0.0,0.0,0.0,0.0,0.0,0.0,0.0,0.0,0.0,0.0,0.0,0.0,0.0,0.0,0.0,0.0,0.0,0.0,0.0,0.0,0.0,0.0,0.0,0.0,0.0,0.0,0.0,0.0,0.0,0.0,0.0,0.0,0.0,0.0,0.0,0.0,0.0,0.0,0.0,0.0,0.0,0.0,0.0,0.0,0.0,0.0,0.0,0.0,0.0,0.0,0.0,0.0,0.0,0.0,0.0,0.0,0.0,0.0,0.0,0.0,0.0,0.0,0.0,0.0,0.0,0.0,0.0,0.0,0.0,0.0,-1.118,-1.1922,-1.0991,-0.9736,-0.8147,-0.4622,-0.1975,0.0,0.0,0.0,0.0,0.0,0.0,0.0,0.0,0.0,0.0,0.0,0.0,0.0,0.0,0.0,0.0,0.0,0.0,0.0,0.0,0.0,0.0,0.0,0.0,0.0,0.0,0.0,0.0,0.0,0.0,0.0,0.0,0.0,0.0,0.0,0.0,0.0,0.0,0.0,0.0,0.0,0.0,0.0,0.0,0.0,0.0,0.0,0.0,0.0,0.0,0.0,0.0,0.0,0.0,0.0,0.0,0.0,0.0,0.0,0.0,0.0,0.0,0.0,0.0,0.0,0.0,0.0,0.0,0.0,0.0,0.0,0.0,0.0,0.0,0.0,0.0,0.0,0.0,0.0,0.0,0.0,0.0,0.0,0.0,0.0,0.0,0.0,0.0,0.0,0.0,0.0,0.0,0.0,0.0,0.0,0.0,0.0,0.0,0.0,0.0,0.0,0.0,0.0,0.0,0.0,0.0,0.0,0.0,-1.3411,-1.422,-1.3003,-1.149,-0.9808,-0.6129,-0.3195,0.0,0.0,0.0,0.0,0.0,0.0,0.0,0.0,0.0,0.0,0.0,0.0,0.0,0.0,0.0,0.0,0.0,0.0,0.0,0.0,0.0,0.0,0.0,0.0,0.0,0.0,0.0,0.0,0.0,0.0,0.0,0.0,0.0,0.0,0.0,0.0,0.0,0.0,0.0,0.0,0.0,0.0,0.0,0.0,0.0,0.0,0.0,0.0,1.0229,0.0,0.0,0.0,0.0,0.0,0.0,0.0,0.0,0.0,0.0,0.0,0.0,0.0,0.0,0.0,0.0,0.0,0.0,0.0,0.0,0.0,0.0,0.0,0.0,0.0,0.0,0.0,0.0,0.0,0.0,0.0,0.0,0.0,0.0,0.0,0.0,0.0,0.0,0.0,0.0,0.0,0.0,0.0,0.0,0.0,0.0,0.0,0.0,0.0,0.0,0.0,0.0,0.0,0.0,0.0,0.0,0.0,0.0,0.0,-1.4927,-1.5674,-1.4345,-1.2835,-1.1146,-0.7729,-0.468,0.0,0.0,0.0,0.0,0.0,0.0,0.0,0.0,0.0,0.0,0.0,0.0,0.0,0.0,0.0,0.0,0.0,0.0,0.0,0.0,0.0,0.0,0.0,0.0,0.0,0.0,0.0,0.0,0.0,0.0,0.0,0.0,0.0,0.0,0.0,0.0,0.0,0.0,0.0,0.0,0.0,0.0,0.0,0.0,0.0,0.0,0.0,0.0,0.0,0.0,0.0,0.0,0.0,0.0,0.0,0.0,0.0,0.0,0.0,0.0,0.0,0.0,0.0,0.0,0.0,0.0,0.0,0.0,0.0,0.0,0.0,0.0,0.0,0.0,0.0,0.0,0.0,0.0,0.0,0.0,0.0,0.0,0.0,0.0,0.0,0.0,0.0,0.0,0.0,0.0,0.0,0.0,0.0,0.0,0.0,0.0,0.0,0.0,0.0,0.0,0.0,0.0,0.0,0.0,0.0,0.0,0.0,-1.5048,-1.5819,-1.6429,-1.5135,-1.3666,-1.2119,-0.9077,-0.6157,-0.3474,0.0,0.0,0.0,0.0,0.0,0.0,0.0,0.0,0.0,0.0,0.0,0.0,0.0,0.0,0.0,0.0,0.0,0.0,0.0,0.0,0.0,0.0,0.0,0.0,0.0,0.0,0.0,0.0,0.0,0.0,0.0,0.0,0.0,0.0,0.0,0.0,0.0,0.0,-0.0625,-0.1535,0.0,0.0,0.0,0.0,0.0,0.0,0.0,0.0,0.4428,0.0,0.0,0.0,0.0,0.0,0.0,0.0,0.0,0.0,0.0,0.0,0.0,0.0,0.0,0.0,0.0,0.0,0.0,0.0,0.0,0.0,0.0,0.0,0.0,0.0,0.0,0.0,0.0,0.0,0.0,0.0,0.0,0.0,0.0,0.0,0.0,0.0,0.0,0.0,0.0,0.0,0.0,0.0,0.0,0.0,0.0,0.0,0.0,0.0,0.0,0.0,0.0,0.0,0.0,0.0,0.0,-1.4795,-1.5247,-1.5658,-1.6142,-1.5027,-1.374,-1.2264,-0.9512,-0.7237,-0.5482,0.0,0.0,0.0,0.0,0.0,0.0,0.0,0.0,0.0,0.0,0.0,0.0,0.0,0.0,0.0,0.0,0.0,0.0,0.0,0.0,0.0,0.0,0.0,0.0,0.0,0.0,0.0,0.0,0.0,0.0,0.0,0.0,0.0,0.0,0.0,0.0,0.0,0.0,0.0,-0.6085,-0.686,0.0,0.0,0.0,0.0,0.0,0.0,0.0,0.0,0.065,0.0,0.0,0.0,0.0,0.0,0.0,0.0,0.0,0.0,0.0,0.0,0.0,0.0,0.0,0.0,0.0,0.0,0.0,0.0,0.0,0.0,0.0,0.0,0.0,0.0,0.0,0.0,0.0,0.0,0.0,0.0,0.0,0.0,0.0,0.0,0.0,0.0,0.0,0.0,0.0,0.0,0.0,0.0,0.0,0.0,0.0,0.0,0.0,0.0,0.0,0.0,0.0,0.0,0.0,0.0,-1.4347,-1.4964,-1.5576,-1.6191,-1.5144,-1.3939,-1.2643,-1.0202,-0.8108,0.0,0.0,0.0,0.0,0.0,0.0,0.0,0.0,0.0,0.0,0.0,0.0,0.0,0.0,0.0,0.0,0.0,0.0,0.0,0.0,0.0,0.0,0.0,0.0,0.0,0.0,0.0,0.0,0.0,0.0,0.0,0.0,0.0,0.0,0.0,0.0,0.0,0.0,0.0,0.0,-1.0147,-1.1465,-1.2315,0.0,0.0,0.0,0.0,0.0,0.0,-0.7606,-0.5644,0.0,0.0,0.0,0.0,0.0,0.0,0.0,0.0,0.0,0.0,0.0,0.0,0.0,0.0,0.0,0.0,0.0,0.0,0.0,0.0,0.0,0.0,0.0,0.0,0.0,0.0,0.0,0.0,0.0,0.0,0.0,0.0,0.0,0.0,0.0,0.0,0.0,0.0,0.0,0.0,0.0,0.0,0.0,0.0,0.0,0.0,0.0,0.0,0.0,0.0,0.0,0.0,0.0,0.0,0.0,-1.3846,-1.4691,-1.5551,-1.6347,-1.5477,-1.4448,-1.3321,-1.1118,-0.9086,0.0,0.0,0.0,0.0,0.0,0.0,0.0,0.0,0.0,0.0,0.0,0.0,0.0,0.0,0.0,0.0,0.0,0.0,0.0,0.0,0.0,0.0,0.0,0.0,0.0,0.0,0.0,0.0,0.0,0.0,0.0,0.0,0.0,0.0,0.0,0.0,0.0,0.0,0.0,0.0,0.0,-1.5956,-1.7505,-1.7375,0.0,0.0,0.0,0.0,-1.5654,-1.391,0.0,0.0,0.0,0.0,0.0,0.0,0.0,0.0,0.0,0.0,0.0,0.0,0.0,0.0,0.0,0.0,0.0,0.0,0.0,0.0,0.0,0.0,0.0,0.0,0.0,0.0,0.0,0.0,0.0,0.0,0.0,0.0,0.0,0.0,0.0,0.0,0.0,0.0,0.0,0.0,0.0,0.0,0.0,0.0,0.0,0.0,0.0,0.0,0.0,0.0,0.0,0.0,0.0,0.0,0.0,0.0,-1.3846,-1.4691,-1.5622,-1.6577,-1.6214,-1.5438,-1.442,-1.2413,-1.0523,0.0,0.0,0.0,0.0,0.0,0.0,0.0,0.0,0.0,0.0,0.0,0.0,0.0,0.0,0.0,0.0,0.0,0.0,0.0,0.0,0.0,0.0,0.0,0.0,0.0,0.0,0.0,0.0,0.0,0.0,0.0,0.0,0.0,0.0,0.0,0.0,0.0,0.0,0.0,0.0,0.0,-2.0396,-2.2097,-2.2564,-2.2737,0.0,0.0,-2.1363,-2.1122,-1.9353,0.0,0.0,0.0,0.0,0.0,0.0,0.0,0.0,0.0,0.0,0.0,0.0,0.0,0.0,0.0,0.0,0.0,0.0,0.0,0.0,0.0,0.0,0.0,0.0,0.0,0.0,0.0,0.0,0.0,0.0,0.0,0.0,0.0,0.0,0.0,0.0,0.0,0.0,0.0,0.0,0.0,0.0,0.0,0.0,0.0,0.0,0.0,0.0,0.0,0.0,0.0,0.0,0.0,0.0,0.0,-1.1815,-1.4091,-1.5347,-1.6586,-1.7874,-1.7649,-1.7045,-1.6081,-1.4349,-1.2342,0.0,0.0,0.0,0.0,0.0,0.0,0.0,0.0,0.0,0.0,0.0,0.0,0.0,0.0,0.0,0.0,0.0,0.0,0.0,0.0,0.0,0.0,0.0,0.0,0.0,0.0,0.0,0.0,0.0,0.0,0.0,0.0,0.0,0.0,0.0,0.0,0.0,0.0,0.0,0.0,0.0,0.0,-2.5003,-2.5755,0.0,0.0,0.0,-2.5859,-2.5943,0.0,0.0,0.0,0.0,0.0,0.0,0.0,0.0,0.0,0.0,0.0,0.0,0.0,0.0,0.0,0.0,0.0,0.0,0.0,0.0,0.0,0.0,0.0,0.0,0.0,0.0,0.0,0.0,0.0,0.0,0.0,0.0,0.0,0.0,0.0,0.0,0.0,0.0,0.0,0.0,0.0,0.0,0.0,0.0,0.0,0.0,0.0,0.0,0.0,0.0,0.0,0.0,0.0,0.0,0.0,0.0,0.0,-1.4848,-1.6353,-1.79,-1.9464,-1.9386,-1.8825,-1.7879,-1.6357,0.0,0.0,0.0,0.0,0.0,0.0,0.0,0.0,0.0,0.0,0.0,0.0,0.0,0.0,0.0,0.0,0.0,0.0,0.0,0.0,0.0,0.0,0.0,0.0,0.0,0.0,0.0,-0.3017,0.0,0.0,0.0,0.0,0.0,0.0,0.0,0.0,0.0,0.0,0.0,0.0,0.0,0.0,-2.4295,-2.6864,-2.7855,-2.8631,0.0,0.0,-2.8976,-2.9272,-2.7484,-2.5141,0.0,0.0,0.0,0.0,0.0,0.0,0.0,0.0,0.0,0.0,0.0,0.0,0.0,0.0,0.0,0.0,0.0,0.0,0.0,0.0,0.0,0.0,0.0,0.0,0.0,0.0,0.0,0.0,0.0,0.0,0.0,0.0,0.0,0.0,0.0,0.0,0.0,0.0,0.0,0.0,0.0,0.0,0.0,0.0,0.0,0.0,0.0,0.0,0.0,0.0,0.0,0.0,0.0,0.0,0.0,-1.6378,-1.7891,-1.9497,-2.1181,-2.1219,-2.0717,-1.9649,-1.8269,-1.6122,0.0,0.0,0.0,0.0,0.0,0.0,0.0,0.0,0.0,0.0,0.0,0.0,0.0,0.0,0.0,0.0,0.0,0.0,0.0,0.0,0.0,0.0,0.0,0.0,0.0,0.0,0.0,0.0,0.0,0.0,0.0,0.0,0.0,0.0,0.0,0.0,0.0,0.0,0.0,0.0,0.0,-2.4929,-2.7494,-2.8732,-2.9628,0.0,0.0,-2.9973,-3.0179,-2.8777,-2.6751,-2.4161,0.0,0.0,0.0,0.0,0.0,0.0,0.0,0.0,0.0,0.0,0.0,0.0,0.0,0.0,0.0,0.0,0.0,0.0,0.0,0.0,0.0,0.0,0.0,0.0,0.0,0.0,0.0,0.0,0.0,0.0,0.0,0.0,0.0,0.0,0.0,0.0,0.0,0.0,0.0,0.0,0.0,0.0,0.0,0.0,0.0,0.0,0.0,0.0,0.0,0.0,0.0,0.0,0.0,-1.4427,-1.7243,-1.9323,-2.1254,-2.2988,-2.3309,-2.3194,-2.2718,-2.1157,-1.9189,0.0,0.0,0.0,0.0,0.0,0.0,0.0,0.0,0.0,0.0,0.0,0.0,0.0,0.0,0.0,0.0,0.0,0.0,0.0,0.0,0.0,0.0,0.0,0.0,0.0,0.0,0.0,0.0,-0.9073,-0.9436,-0.9625,0.0,0.0,0.0,0.0,0.0,0.0,0.0,0.0,0.0,0.0,-2.5208,-2.764,-2.89,0.0,0.0,-3.0595,-3.0513,-3.037,-2.9332,-2.772,-2.5279,-2.2582,0.0,0.0,0.0,0.0,0.0,0.0,0.0,0.0,0.0,0.0,0.0,0.0,0.0,0.0,0.0,0.0,0.0,0.0,0.0,0.0,0.0,0.0,0.0,0.0,0.0,0.0,0.0,0.0,0.0,0.0,0.0,0.0,0.0,0.0,0.0,0.0,0.0,0.0,0.0,0.0,0.0,0.0,0.0,0.0,0.0,0.0,0.0,0.0,0.0,0.0,0.0,0.0,-1.5496,-1.8171,-2.0666,-2.2781,-2.4493,-2.5051,-2.531,-2.514,-2.3709,-2.1894,0.0,0.0,0.0,0.0,0.0,0.0,0.0,0.0,0.0,0.0,0.0,0.0,0.0,0.0,0.0,0.0,0.0,0.0,0.0,0.0,0.0,0.0,0.0,0.0,0.0,0.0,0.0,0.0,-1.0781,-1.0989,-1.0787,0.0,0.0,0.0,0.0,0.0,0.0,0.0,0.0,0.0,0.0,-2.5072,-2.7201,-2.8426,-2.9381,-3.005,-3.0444,-3.0514,-3.009,-2.9349,-2.8064,-2.5924,0.0,0.0,0.0,0.0,0.0,0.0,0.0,0.0,0.0,0.0,0.0,0.0,0.0,0.0,0.0,0.0,0.0,0.0,0.0,0.0,0.0,0.0,0.0,0.0,0.0,0.0,0.0,0.0,0.0,0.0,-1.29,0.0,0.0,0.0,0.0,0.0,0.0,0.0,0.0,0.0,0.0,0.0,0.0,0.0,0.0,0.0,0.0,0.0,0.0,0.0,0.0,0.0,0.0,-1.6549,-1.9334,-2.1828,-2.3904,-2.5415,-2.6377,-2.6773,-2.6627,-2.5544,-2.396,-2.1848,0.0,0.0,0.0,0.0,0.0,0.0,0.0,0.0,0.0,0.0,0.0,0.0,0.0,0.0,0.0,0.0,0.0,0.0,0.0,0.0,0.0,0.0,0.0,0.0,0.0,0.0,-1.1815,-1.2081,-1.2135,0.0,0.0,0.0,0.0,0.0,0.0,0.0,0.0,0.0,0.0,-2.2856,-2.4454,-2.6211,-2.7254,-2.8131,-2.9013,-2.9613,-2.9808,-2.9276,-2.878,-2.7803,0.0,0.0,0.0,0.0,0.0,0.0,0.0,0.0,0.0,0.0,0.0,0.0,0.0,0.0,0.0,0.0,0.0,0.0,0.0,0.0,0.0,0.0,0.0,0.0,0.0,0.0,0.0,-1.6075,-1.5884,0.0,0.0,0.0,0.0,0.0,0.0,0.0,0.0,0.0,0.0,0.0,-1.9999,-1.9613,0.0,0.0,0.0,0.0,0.0,0.0,0.0,0.0,0.0,0.0,0.0,0.0,-1.7206,-1.9597,-2.2251,-2.4349,-2.5859,-2.6934,-2.7703,-2.8056,-2.7247,-2.54,-2.2445,0.0,0.0,0.0,0.0,0.0,0.0,0.0,0.0,0.0,0.0,0.0,0.0,0.0,0.0,0.0,0.0,0.0,0.0,0.0,0.0,0.0,0.0,0.0,0.0,0.0,-1.2786,0.0,0.0,0.0,0.0,0.0,0.0,0.0,0.0,0.0,0.0,0.0,-2.015,-2.177,-2.2798,-2.4001,-2.5587,-2.6333,-2.704,0.0,0.0,0.0,0.0,0.0,0.0,0.0,0.0,0.0,0.0,0.0,0.0,0.0,0.0,-1.895,-1.7949,-1.7952,-1.8186,-1.8399,0.0,0.0,0.0,0.0,0.0,0.0,0.0,0.0,0.0,0.0,0.0,0.0,0.0,0.0,0.0,0.0,-1.8807,0.0,0.0,0.0,0.0,0.0,0.0,0.0,0.0,-2.1509,-2.182,-2.2298,-2.2074,-2.1423,0.0,-1.993,-1.7895,0.0,0.0,0.0,0.0,0.0,0.0,0.0,0.0,-1.7877,-1.9909,-2.2327,-2.4313,-2.5742,-2.6888,-2.7815,-2.8481,-2.7804,-2.6125,-2.3424,-2.1193,-1.8779,0.0,0.0,0.0,0.0,0.0,0.0,0.0,0.0,0.0,0.0,0.0,0.0,0.0,0.0,0.0,0.0,0.0,0.0,0.0,0.0,0.0,0.0,0.0,-1.3227,0.0,0.0,0.0,0.0,0.0,0.0,0.0,0.0,0.0,-1.7661,-1.9224,-2.0725,-2.1942,-2.2732,-2.3702,-2.4872,0.0,0.0,0.0,0.0,0.0,0.0,0.0,-2.7277,-2.6166,-2.6288,-2.6225,-2.5183,-2.3756,-2.2522,-2.1829,0.0,0.0,-2.031,-2.03,-2.0641,-2.0894,-2.1175,-2.1474,-2.1798,-2.1879,-2.1961,0.0,0.0,0.0,0.0,0.0,0.0,0.0,0.0,-2.3203,-2.28,0.0,-2.1503,0.0,0.0,0.0,0.0,0.0,0.0,0.0,0.0,-2.3015,-2.3369,-2.3701,-2.3701,-2.3419,-2.284,-2.2575,-2.1526,-1.9579,-1.6725,0.0,0.0,0.0,0.0,0.0,0.0,-1.8573,-2.0295,-2.2168,-2.3795,-2.5098,-2.6224,-2.7152,-2.7861,-2.7233,-2.6142,-2.4725,-2.3115,-2.1279,-1.9104,-1.6678,0.0,0.0,0.0,0.0,0.0,0.0,0.0,0.0,0.0,0.0,0.0,0.0,0.0,0.0,0.0,0.0,0.0,0.0,0.0,0.0,-1.34,0.0,0.0,0.0,0.0,0.0,0.0,0.0,0.0,0.0,0.0,-1.8474,-1.9997,-2.1203,-2.182,0.0,0.0,0.0,0.0,-2.5359,-2.6019,-2.6682,-2.692,-2.6417,-2.6779,-2.6913,-2.6397,0.0,0.0,-2.6099,-2.5401,-2.4728,-2.4311,-2.3934,-2.3386,-2.2019,-2.2214,-2.2558,-2.2615,-2.3243,-2.3803,-2.3889,-2.39,-2.4074,-2.4792,0.0,0.0,0.0,0.0,-2.3818,-2.4425,-2.5139,-2.4675,-2.4212,-2.3657,-2.2643,0.0,0.0,0.0,0.0,0.0,0.0,-2.2591,-2.3659,-2.4012,-2.4411,-2.484,-2.4563,-2.4162,-2.3708,-2.3375,-2.2519,-2.1216,-2.0329,-1.8379,-1.5527,0.0,0.0,0.0,0.0,-1.8956,-2.0236,-2.1349,-2.2472,-2.3689,-2.4431,-2.5376,-2.6515,-2.6087,-2.5514,-2.4855,-2.3535,-2.1889,-1.9942,-1.8081,0.0,0.0,0.0,0.0,0.0,0.0,0.0,0.0,0.0,0.0,0.0,0.0,0.0,0.0,0.0,0.0,0.0,0.0,0.0,-1.4358,-1.3895,-1.353,0.0,0.0,0.0,0.0,0.0,0.0,0.0,0.0,0.0,-1.8028,-1.9422,-2.0693,0.0,0.0,-2.2354,-2.3236,-2.3564,-2.3963,-2.4659,0.0,0.0,0.0,-2.6218,-2.6892,-2.6742,-2.7577,-2.7988,-2.7235,-2.6398,-2.5622,-2.5023,-2.4825,-2.4573,-2.4229,-2.4239,-2.4423,-2.4753,-2.5054,-2.5417,-2.5705,-2.5516,-2.5224,-2.6406,-2.5254,-2.4687,-2.468,-2.5052,-2.5477,-2.5849,-2.6052,-2.5731,-2.5275,-2.4668,-2.3542,-2.2664,-2.1901,-2.0971,0.0,0.0,0.0,-2.2858,-2.3711,-2.4266,-2.4684,-2.4891,-2.4684,-2.435,-2.3953,-2.3877,-2.3232,-2.2161,-2.2227,-2.0941,-1.8467,0.0,0.0,-1.805,-1.8685,-1.9277,-1.9835,-2.0429,-2.1143,-2.193,-2.2649,-2.3579,-2.4681,-2.4495,-2.4306,-2.419,-2.3385,-2.2139,-2.0414,-1.8916,-1.7013,0.0,0.0,0.0,0.0,0.0,0.0,0.0,0.0,0.0,0.0,0.0,-1.1827,-1.2597,0.0,0.0,0.0,-1.3986,-1.4184,-1.4441,-1.3843,0.0,0.0,0.0,0.0,0.0,0.0,0.0,-1.4249,-1.5464,-1.6576,-1.7337,-1.8506,-1.9671,-2.085,-2.1278,-2.1754,-2.238,0.0,-2.3246,-2.3969,-2.4422,-2.4725,-2.4889,-2.5742,-2.6606,-2.7221,-2.7993,-2.8376,-2.7829,-2.7091,-2.6367,-2.5722,-2.5346,-2.5179,-2.5179,-2.517,-2.5256,-2.5702,-2.5963,-2.6115,-2.6328,-2.5965,-2.5618,-2.763,-2.718,-2.6659,-2.6232,-2.5992,-2.6579,-2.6557,-2.613,-2.6229,-2.59,-2.5032,-2.4075,-2.3083,-2.2148,-2.0999,0.0,-2.0361,-2.1667,-2.2476,-2.2901,-2.3808,-2.4201,-2.421,-2.4175,-2.4,-2.3615,-2.3923,-2.3583,-2.2655,-2.2727,-2.2298,-2.1311,-2.0655,-2.0068,-1.9473,-1.9594,-1.9545,-1.9237,-1.9435,-1.9668,-2.0039,-2.0981,-2.1806,-2.2527,-2.2587,-2.2686,-2.2854,-2.2634,-2.1899,-2.0484,-1.919,-1.7598,-1.5683,0.0,0.0,0.0,0.0,0.0,0.0,0.0,0.0,0.0,0.0,0.0,0.0,0.0,0.0,0.0,-1.3954,0.0,-1.3989,-1.338,0.0,0.0,0.0,-1.21,-1.2116,-1.2563,-1.3105,-1.3719,0.0,0.0,-1.6555,0.0,-1.8401,-1.9641,-2.069,-2.1409,-2.1569,-2.2141,-2.2896,-2.3494,-2.3903,-2.4283,-2.4588,-2.529,-2.6187,-2.7521,-2.8103,-2.8119,-2.7874,-2.7426,-2.6829,-2.6127,-2.5606,-2.5226,-2.5177,-2.5076,-2.5204,-2.5525,-2.59,-2.609,-2.5826,-2.554,-2.5151,-2.7921,-2.7493,-2.6893,-2.6439,-2.6199,-2.5968,-2.5968,-2.6054,-2.5156,-2.4649,-2.4355,-2.2913,-2.1652,-2.0612,-2.0354,-2.0172,-2.0208,-2.1016,-2.1542,-2.19,-2.2395,-2.2664,-2.2648,-2.2348,-2.2264,-2.2331,-2.2107,-2.2027,-2.2085,-2.1874,-2.1684,-2.144,-2.1034,-2.0479,-1.9824,-1.9688,-1.9353,-1.878,-1.8271,-1.8272,-1.8786,-1.9763,-2.0344,-2.0431,-2.0784,-2.0877,-2.0653,-2.0456,-1.9982,-1.9092,-1.8144,-1.6895,-1.5422,-1.4083,0.0,0.0,0.0,0.0,0.0,0.0,0.0,0.0,0.0,-1.2941,-1.3377,0.0,-1.4146,0.0,-1.395,-1.3691,-1.3524,-1.3018,0.0,0.0,-1.1978,-1.1807,-1.2226,-1.2529,-1.2925,-1.3472,-1.4548,-1.5515,-1.6233,-1.7065,-1.7908,-1.8645,-1.945,-2.0161,-2.0547,-2.1027,-2.1475,-2.1873,-2.231,-2.2737,-2.3308,-2.4565,-2.5819,-2.6915,-2.728,-2.7437,-2.741,-2.6802,-2.6235,-2.5839,-2.5167,-2.4686,-2.443,-2.4153,-2.3943,-2.4139,-2.4642,-2.5066,-2.5075,-2.4331,-2.36,-2.7271,-2.7053,-2.5967,-2.5353,-2.5078,-2.5132,-2.5011,-2.4671,-2.398,-2.3456,-2.2989,-2.1657,-2.0586,-1.982,-1.974,-1.9676,-1.9594,-2.0337,-2.081,-2.0937,-2.1481,-2.168,-2.168,-2.1444,-2.1282,-2.114,-2.0933,-2.0752,-2.0708,-2.0588,-2.0475,-2.04,-2.0268,-1.9802,-1.9067,-1.9218,-1.892,-1.8194,-1.7391,-1.7167,-1.7601,-1.8151,-1.8487,-1.8549,-1.8776,-1.8849,-1.8692,-1.8559,-1.8328,-1.7787,-1.7016,-1.6164,-1.5345,-1.4097,-1.3104,0.0,0.0,0.0,0.0,0.0,0.0,0.0,0.0,0.0,0.0,0.0,-1.3891,-1.3938,-1.3355,-1.2936,-1.2795,-1.2327,-1.1899,-1.1688,-1.1338,-1.1262,-1.1582,-1.1681,-1.2029,-1.2768,-1.3665,-1.4535,-1.544,-1.6228,-1.6906,-1.7526,-1.8036,-1.8776,-1.9819,-2.0241,-2.0512,-2.09,-2.1147,-2.1573,-2.2209,-2.3399,-2.4542,-2.5247,-2.5761,-2.6013,-2.5974,-2.5703,-2.5265,-2.4864,-2.4273,-2.3678,-2.3438,-2.2773,-2.2361,-2.2437,-2.2455,-2.277,-2.3589,-2.2918,-2.2135,-2.6126,-2.5964,-2.4534,-2.372,-2.3315,-2.4046,-2.3753,-2.2813,-2.2749,-2.2184,-2.1323,-2.0472,-1.9864,-1.9412,-1.9368,-1.9195,-1.9049,-1.9745,-2.0083,-2.0153,-2.0644,-2.0888,-2.0881,-2.0895,-2.0507,-1.9854,-1.988,-1.9542,-1.8961,-1.8993,-1.895,-1.8757,-1.8816,-1.8434,-1.7735,-1.8149,-1.8088,-1.7425,-1.6654,-1.637,-1.6613,-1.6586,-1.6684,-1.6912,-1.6911,-1.6932,-1.6961,-1.6959,-1.6835,-1.6566,-1.5864,-1.5364,-1.5126,-1.3928,-1.3071,0.0,-1.2325,0.0,0.0,0.0,0.0,0.0,0.0,0.0,0.0,-1.327,-1.3294,-1.3408,-1.2442,-1.1927,-1.2,-1.1509,-1.1061,-1.0803,-1.0651,-1.0628,-1.0705,-1.0709,-1.0999,-1.1983,-1.256,-1.337,-1.4531,-1.5188,-1.5818,-1.6413,-1.6742,-1.7425,-1.8855,-1.9271,-1.9539,-2.0072,-2.0189,-2.0432,-2.1103,-2.1938,-2.2709,-2.3176,-2.3782,-2.4146,-2.4214,-2.4174,-2.4016,-2.3529,-2.297,-2.2518,-2.2215,-2.1326,-2.0719,-2.0679,-2.0095,-2.0106,-2.15,-2.1388,-2.0658,-2.4777,-2.4439,-2.3627,-2.2826,-2.2023,-2.1935,-2.187,-2.1851,-2.1338,-2.0773,-2.0148,-1.9927,-1.9733,-1.9394,-1.9391,-1.9371,-1.932,-1.9483,-1.9567,-1.9567,-1.937,-1.9339,-1.9339,-1.9055,-1.8632,-1.8089,-1.8063,-1.7864,-1.7496,-1.7255,-1.7228,-1.735,-1.6973,-1.6698,-1.6519,0.0,0.0,0.0,-1.5906,-1.5768,-1.5671,-1.6053,-1.6181,-1.5976,-1.5911,0.0,-1.5807,-1.5624,-1.5479,-1.5466,-1.4972,0.0,0.0,0.0,0.0,0.0,0.0,0.0,0.0,0.0,0.0,0.0,-1.1114,-1.1608,-1.2491,-1.2626,-1.2614,-1.2397,-1.1916,-1.1475,-1.1053,-1.0865,-1.0713,-1.0559,-1.031,-1.0317,-1.0673,-1.0576,-1.0756,-1.1714,-1.2128,-1.2724,-1.3724,-1.4449,-1.5023,-1.5642,-1.5859,-1.6126,-1.6684,-1.7476,-1.7916,-1.8104,-1.8457,-1.893,-1.928,-1.9989,-2.0633,-2.1041,-2.1718,-2.224,-2.2492,-2.2551,-2.2442,-2.2089,-2.165,-2.103,-2.0321,-1.9799,-1.9352,-1.8981,-1.8358,-1.8337,-1.9584,-1.9383,-1.8758,-2.3527,0.0,-2.2331,-2.1619,0.0,-2.0325,-2.0099,-2.0233,-2.0268,-1.9924,-1.9345,-1.9178,-1.9004,-1.8894,-1.8894,-1.8894,-1.8894,-1.8894,-1.8829,-1.8648,-1.8467,-1.8227,-1.7941,-1.776,-1.7368,-1.6738,-1.6552,-1.6276,-1.5885,-1.5676,-1.5602,-1.5612,-1.5497,-1.5294,-1.5152,-1.4747,-1.4669,-1.4935,-1.4971,-1.4965,-1.486,-1.5105,-1.5106,-1.483,0.0,0.0,0.0,0.0,0.0,0.0,0.0,0.0,0.0,0.0,0.0,-1.1755,-1.1423,-1.1144,-1.0859,-1.0927,-1.0874,-1.0608,-1.0659,-1.0932,-1.1603,-1.1595,-1.1612,-1.157,-1.1121,-1.0747,-1.0532,-1.0365,-1.022,-1.018,-1.001,-1.0045,-1.0229,-1.0122,-1.0304,-1.091,-1.1333,-1.1812,-1.2659,-1.3315,-1.3854,-1.4331,-1.4538,-1.4698,-1.495,-1.5835,-1.6527,-1.6448,-1.6806,-1.707,-1.7166,-1.7693,-1.8352,-1.8717,-1.9398,-1.9973,-2.0385,-2.0597,-2.0554,-2.0305,-1.9849,-1.9257,-1.8861,-1.8217,-1.764,-1.7254,-1.6732,-1.6339,-1.6798,-1.6868,-1.6932,-2.2237,-2.2146,-2.0973,-2.0473,-2.0325,-1.9239,-1.8709,-1.864,0.0,0.0,0.0,-1.8357,-1.8246,-1.8246,-1.824,-1.8246,-1.8246,-1.824,-1.8058,-1.7753,-1.7636,-1.7285,-1.6756,-1.6638,-1.6164,-1.5456,-1.5112,-1.4755,-1.4294,-1.4245,-1.4131,-1.3895,-1.4093,-1.3997,-1.372,-1.3704,-1.3713,-1.3767,-1.4033,-1.4194,-1.4152,-1.4146,-1.4045,-1.3832,-1.3738,-1.359,-1.3327,-1.3281,-1.3228,-1.3174,-1.2964,-1.2759,-1.2625,-1.1991,-1.1555,-1.1442,-1.0954,-1.0646,-1.0628,-1.0428,-1.033,-1.0299,-1.0325,-1.0465,-1.074,-1.0697,-1.0692,-1.0919,-1.0341,-1.0095,-1.0211,-0.9981,-0.9788,-0.9825,-0.9819,-0.9819,-0.9819,-0.9819,-0.994,-1.0247,-1.0547,-1.091,-1.1571,-1.2118,-1.2539,-1.2844,-1.3191,-1.3384,-1.3517,-1.4387,-1.5119,-1.5033,-1.5192,-1.5243,-1.5246,-1.5559,-1.6003,-1.6474,-1.7055,-1.764,-1.8007,-1.838,-1.8499,-1.8237,-1.7852,-1.7576,-1.7302,-1.6624,-1.5937,-1.5588,-1.5135,-1.4578,-1.4094,-1.4326,-1.4857,-2.0862,-2.0856,-2.0049,-1.9575,-1.9293,-1.8839,-1.8364,-1.7867,-1.8093,-1.8104,-1.8052,-1.7772,-1.7602,-1.7661,-1.7596,-1.7602,-1.7602,-1.7602,-1.7473,0.0,-1.6585,-1.6172,-1.5752,-1.5219,-1.4611,-1.4076,-1.3824,-1.3488,-1.2979,-1.2795,-1.2689,-1.2645,-1.2544,-1.2293,-1.2034,-1.2066,-1.2023,-1.2089,-1.3228,-1.3763,-1.352,-1.352,-1.3509,-1.3465,-1.3219,-1.3104,-1.2951,-1.2762,-1.2623,-1.2633,-1.2343,-1.2016,-1.1564,-1.1321,-1.0963,-1.0498,-1.0398,-1.0389,-1.0357,-1.0146,-1.001,-0.9894,-0.9889,-1.0077,-1.0506,-1.0453,-1.0429,-1.0519,-1.0225,-0.9992,-1.0015,-1.0015,-0.9899,-0.9846,-0.9822,-0.9819,-0.9819,-0.9819,-0.994,-1.0243,-1.0368,-1.0486,-1.091,-1.1273,-1.1511,-1.1635,-1.1933,-1.2118,-1.2264,-1.294,-1.3592,-1.3611,-1.3526,-1.3573,-1.3773,-1.3956,-1.4121,-1.4148,-1.4894,-1.5423,-1.5636,-1.6062,-1.6234,-1.598,-1.5982,-1.5764,-1.5192,-1.513,-1.4735,-1.4019,-1.3613,-1.3274,-1.2595,-1.229,-1.223,-2.0094,-1.9966,-1.9124,-1.8541,-1.8163,-1.7328,-1.6757,-1.6336,-1.6231,-1.6424,-1.6774,-1.6411,-1.6118,-1.5935,-1.6118,-1.6183,-1.6183,-1.6183,-1.5994,-1.5693,-1.5035,-1.4505,-1.4028,-1.355,-1.3031,-1.2493,-1.2395,-1.2192,-1.1829,-1.1647,-1.1611,-1.1547,-1.1424,-1.128,-1.1144,-1.114,-1.114,-1.1189,-1.213,-1.2581,-1.2488,-1.2488,-1.2488,-1.2488,-1.223,-1.2072,-1.2014,-1.1718,-1.1606,-1.1709,-1.1558,-1.1334,-1.0995,-1.0758,-1.0447,-1.0021,-0.995,-0.9957,-0.9907,-0.9877,-0.9868,-0.9819,-0.99,-0.9978,-1.0214,-1.0148,-1.016,-1.0229,-1.0183,-1.0175,-1.0175,-1.0038,-0.9957,-0.9893,-0.9812,-0.9822,-0.9819,-0.9819,-0.9883,-1.0001,-1.0001,-1.0061,-1.0243,-1.0547,-1.0785,-1.0789,-1.1031,-1.1273,-1.1273,-1.1623,-1.2039,-1.2279,-1.2219,-1.2188,-1.2183,-1.2177,-1.2229,-1.2292,-1.2748,-1.3226,-1.3496,-1.3981,-1.4256,-1.4375,-1.4279,-1.4054,-1.3732,-1.35,-1.3147,-1.2757,-1.2282,-1.1933,-1.1329,-1.0539,-1.0358,-1.9124,-1.8932,-1.7969,-1.726,-1.6711,-1.5708,-1.5023,-1.4751,-1.4441,-1.4582,-1.4966,-1.4826,-1.45,-1.4212,-1.4451,-1.4575,-1.4575,-1.4575,-1.4391,-1.4028,-1.349,-1.2951,-1.2419,-1.2053,-1.1683,-1.132,-1.1221,-1.1126,-1.0983,-1.0821,-1.0722,-1.0675,-1.06,-1.0512,-1.0531,-1.0472,-1.0472,-1.0511,-1.1003,-1.1321,-1.1483,-1.1483,-1.1483,-1.1478,-1.1273,-1.1116,-1.1063,-1.0839,-1.0729,-1.0784,-1.0785,-1.0767,-1.0509,-1.0338,-1.0069,-0.9792,-0.9693,-0.9673,-0.9713,-0.9808,-0.989,-0.9924,-1.0036,-1.0041,-1.0103,-1.0071,-1.0085,-1.0098,-1.0259,-1.0327,-1.0317,-1.0229,-1.0061,-0.9994,-0.9886,-0.9863,-0.9829,-0.9819,-0.9761,-0.9697,-0.97,-0.964,-0.9697,-0.9879,-1.0122,-1.0243,-1.0425,-1.0547,-1.0547,-1.0547,-1.0609,-1.0819,-1.1051,-1.116,-1.0837,-1.0775,-1.0795,-1.082,-1.1147,-1.1559,-1.1937,-1.2237,-1.2545,-1.2817,-1.2721,-1.2548,-1.2709,-1.2296,-1.1784,-1.1415,-1.1144,-1.0725,-0.9879,-0.8964,-0.8656,-1.7776,-1.7195,-1.6483,-1.5574,-1.4721,-1.4241,-1.3822,-1.3453,-1.3246,-1.2849,-1.2578,-1.3265,-1.3368,-1.2913,-1.2904,-1.2969,-1.296,-1.29,-1.2775,-1.2414,-1.2113,-1.1756,-1.139,-1.1091,-1.0902,-1.0804,-1.0625,-1.0495,-1.0462,-1.0418,-1.0269,-1.0081,-1.0051,-1.0029,-0.9894,-0.9879,-0.9875,-0.9871,-0.9947,-1.0261,-1.0752,-1.0807,-1.0803,-1.0803,-1.0748,-1.0643,-1.0429,-1.0473,-1.0399,-1.0164,-1.0296,-1.0213,-0.9972,-0.9977,-0.9881,-0.9654,-0.972,-0.9859,-0.9926,-0.996,-1.0021,-1.0219,-1.0243,-1.0256,-1.0203,-1.0375,-1.0449,-1.0449,-1.0463,-1.047,-1.0473,-1.0446,-1.0327,-1.0051,-0.9977,-0.9913,-0.9798,-0.9819,-0.97,-0.9396,-0.9335,-0.9278,-0.9034,-0.9214,-0.9518,-0.9758,-0.9819,-0.9883,-0.9879,-0.9636,-0.9511,-0.9654,-1.0056,-1.0439,-1.0395,-1.0245,-1.0058,-1.01,-1.0251,-1.0477,-1.0663,-1.091,-1.1125,-1.1511,-1.145,-1.1473,-1.1386,-1.1192,-1.1,-1.0226,-0.9879,-0.9515,-0.8419,-0.7319,-0.7072,-1.6213,-1.5694,-1.5052,-1.4141,-1.3161,-1.2832,-1.2565,-1.2421,-1.2362,-1.1946,-1.1455,-1.1633,-1.1678,-1.1735,-1.1918,-1.1979,-1.1877,-1.1696,-1.1514,-1.1329,-1.0668,-1.0243,-1.0065,-0.9636,-0.939,-0.939,-0.9271,-0.9248,-0.9283,-0.9459,-0.9607,-0.9648,-0.9638,-0.9602,-0.9543,-0.9539,-0.9539,-0.9539,-0.9539,-0.9653,-0.9911,-1.008,-1.0193,-1.0285,-1.0125,-1.0059,-0.9982,-0.9888,-0.9853,-0.9768,-0.9835,-0.9846,-0.9814,-0.988,-0.9854,-0.9744,-0.9873,-0.9858,-0.9735,-0.9751,-0.976,-0.9634,-0.9713,-0.9761,-0.9771,-0.9957,-1.004,-1.0103,-1.0366,-1.0629,-1.0619,-1.0548,-1.0439,-1.031,-1.0095,-0.9901,-0.9724,-0.9571,-0.9335,-0.8845,-0.8784,-0.8662,-0.8421,-0.8601,-0.8784,-0.8967,-0.9089,-0.9217,-0.9217,-0.897,-0.8784,-0.8778,-0.873,-0.8849,-0.9258,-0.9278,-0.9159,-0.9134,-0.9299,-0.9482,-0.9706,-1.003,-1.0345,-1.0551,-1.0582,-1.0536,-1.0381,-1.0119,-0.9879,-0.9089,-0.8113,-0.7564,-0.6827,-0.5786,-0.5233,-1.4637,-1.4137,-1.3411,-1.2696,-1.1978,-1.1516,-1.1383,-1.1383,-1.1251,-1.0916,-1.0489,-1.0221,-1.0151,-1.0301,-1.0648,-1.0703,-1.0497,-1.024,-1.0058,-0.9937,-0.9211,-0.8845,-0.8723,-0.8355,-0.8108,-0.7989,-0.7989,-0.8111,-0.8285,-0.869,-0.8991,-0.9166,-0.9147,-0.913,-0.9094,-0.9152,-0.9091,-0.9087,-0.9149,-0.9091,-0.9119,-0.9337,-0.9557,-0.9777,-0.9671,-0.9609,-0.9661,-0.9535,-0.9493,-0.9605,-0.9642,-0.9653,-0.969,-0.97,-0.9656,-0.958,-0.9552,-0.9524,-0.9349,-0.9315,-0.9255,-0.9104,-0.9133,-0.9115,-0.9061,-0.9134,-0.9186,-0.912,-0.9522,-0.9848,-1.0376,-1.0359,-1.0287,-1.0165,-0.9968,-0.9721,-0.9425,-0.911,-0.8661,-0.8161,-0.7891,-0.7747,-0.7564,-0.7686,-0.7867,-0.8111,-0.8297,-0.8482,-0.8421,-0.8172,-0.7928,-0.7744,-0.7192,-0.7281,-0.8053,-0.811,-0.8067,-0.8187,-0.8356,-0.8598,-0.8865,-0.9224,-0.9501,-0.9624,-0.9664,-0.962,-0.9395,-0.9137,-0.8546,-0.7744,-0.6712,-0.5675,-0.5232,-0.4189,-0.3397,-1.3186,-1.2379,-1.1644,-1.131,-1.1185,-1.0518,-1.0259,-1.0256,-0.9927,-0.9582,-0.9232,-0.9166,-0.8898,-0.8556,-0.8925,-0.8924,-0.8613,-0.8546,-0.836,-0.8113,-0.7994,-0.7805,-0.7495,-0.7434,-0.7253,-0.6888,-0.6888,-0.7197,-0.7869,-0.8227,-0.8527,-0.8647,-0.8637,-0.8579,-0.8494,-0.8485,-0.8463,-0.8485,-0.8485,-0.8469,-0.8466,-0.8448,-0.8791,-0.9323,-0.9429,-0.9378,-0.9408,-0.9527,-0.9608,-0.9615,-0.9674,-0.963,-0.9335,-0.9281,-0.9219,-0.9022,-0.8741,-0.8664,-0.8801,-0.8584,-0.8437,-0.8538,-0.8488,-0.8437,-0.8089,-0.8035,-0.7843,-0.7646,-0.7646,-0.8248,-0.9256,-0.9504,-0.9585,-0.9415,-0.9444,-0.9168,-0.8744,-0.8306,-0.7801,-0.7154,-0.6651,-0.6423,-0.641,-0.6464,-0.6768,-0.7131,-0.7375,-0.7436,-0.7314,-0.7131,-0.6703,-0.6151,-0.5847,-0.5906,-0.7052,-0.7054,-0.6933,-0.708,-0.721,-0.7543,-0.7911,-0.8298,-0.8545,-0.8791,-0.8871,-0.8806,-0.8529,-0.7936,-0.7209,-0.6236,-0.5019,-0.4093,-0.3738,-0.2783,-0.2173,-1.2063,-1.1254,-1.0787,-1.0455,-1.019,-0.9718,-0.9519,-0.9452,-0.8848,-0.8515,-0.8315,-0.7915,-0.7524,-0.7089,-0.6958,-0.7214,-0.7743,-0.7363,-0.7081,-0.6898,-0.6523,-0.6217,-0.6092,-0.5724,-0.5418,-0.5297,-0.5298,-0.5849,-0.6893,-0.7255,-0.7665,-0.8118,-0.817,-0.8147,-0.805,-0.8105,-0.8105,-0.8105,-0.8105,-0.8105,-0.8039,-0.8108,-0.8225,-0.8459,-0.8738,-0.8975,-0.9064,-0.9118,-0.9147,-0.9147,-0.9006,-0.8845,-0.8732,-0.8562,-0.8313,-0.8057,-0.8066,-0.7928,-0.7616,-0.749,-0.741,-0.7178,-0.6982,-0.6855,-0.6646,-0.6508,-0.6307,-0.6174,-0.6176,-0.651,-0.6911,-0.7715,-0.8368,-0.8453,-0.8451,-0.8201,-0.7819,-0.7404,-0.6762,-0.5926,-0.5299,-0.4877,-0.4924,-0.502,-0.5237,-0.5418,-0.5659,-0.5782,-0.5722,-0.5479,-0.5172,-0.4681,-0.419,-0.3944,-0.4063,-0.5151,-0.5614,-0.5792,-0.6012,-0.6485,-0.6849,-0.7378,-0.7725,-0.7906,-0.8036,-0.7739,-0.7319,-0.6266,-0.5528,-0.4616,-0.338,-0.2773,-0.2284,-0.1703,-0.1204,-1.0792,-1.0267,-0.9856,-0.9494,-0.9123,-0.8717,-0.8448,-0.8182,-0.7579,-0.7176,-0.6909,-0.6378,-0.5878,-0.5433,-0.4967,-0.5099,-0.5874,-0.5845,-0.5725,-0.5462,-0.5026,-0.4654,-0.4407,-0.3974,-0.3736,-0.3686,-0.3859,-0.447,-0.5391,-0.5982,-0.6521,-0.7072,-0.7194,-0.7258,-0.7255,-0.7255,-0.7258,-0.7258,-0.7258,-0.7255,-0.7255,-0.7258,-0.7258,-0.7307,-0.7546,-0.8027,-0.8541,-0.8546,-0.8546,-0.8421,-0.8172,-0.8005,-0.7744,-0.7383,-0.7079,-0.696,-0.6824,-0.6589,-0.6229,-0.6105,-0.5951,-0.5617,-0.5368,-0.5174,-0.4901,-0.4679,-0.4532,-0.4393,-0.4375,-0.4367,-0.4501,-0.5237,-0.6174,-0.6902,-0.7117,-0.6885,-0.6485,-0.5948,-0.518,-0.4249,-0.3641,-0.3425,-0.3342,-0.3498,-0.366,-0.3765,-0.4004,-0.4127,-0.4066,-0.3944,-0.3637,-0.3204,-0.2836,-0.2466,-0.2466,-0.3075,-0.3807,-0.4112,-0.466,-0.5226,-0.5724,-0.6335,-0.6764,-0.7013,-0.6891,-0.6582,-0.5812,-0.4621,-0.3771,-0.2967,-0.2224,-0.1535,-0.1156,-0.0773,0.0,-0.936,-0.9183,-0.8834,-0.8428,-0.7935,-0.7529,-0.7051,-0.6443,-0.6046,-0.5441,-0.4905,-0.4502,-0.4164,-0.3695,-0.3219,-0.2798,-0.3087,-0.3892,-0.4095,-0.366,-0.3529,-0.3152,-0.265,-0.2586,-0.2412,-0.2181,-0.2667,-0.3154,-0.3527,-0.442,-0.5072,-0.5432,-0.575,-0.5875,-0.5912,-0.5859,-0.5914,-0.5912,-0.5912,-0.5916,-0.591,-0.5865,-0.5873,-0.5927,-0.5921,-0.6476,-0.7646,-0.7758,-0.7622,-0.7375,-0.7261,-0.7064,-0.6408,-0.5875,-0.5558,-0.5483,-0.5068,-0.4778,-0.4702,-0.4493,-0.4184,-0.3915,-0.3817,-0.3556,-0.3061,-0.2832,-0.2677,-0.2536,-0.2377,-0.2292,-0.236,-0.2558,-0.3361,-0.4969,-0.536,-0.516,-0.4818,-0.4117,-0.3277,-0.24,-0.2131,-0.2051,-0.203,-0.2142,-0.2318,-0.2483,-0.2593,-0.259,-0.2652,-0.259,-0.222,-0.1788,-0.1665,-0.1666,-0.1296,-0.1111,-0.1727,-0.2342,-0.3078,-0.3757,-0.4313,-0.4926,-0.5356,-0.5604,-0.5479,-0.5112,-0.4351,-0.3328,-0.2536,-0.1786,-0.1093,-0.0649,-0.0522,0.0,0.0,-0.8151,-0.7781,-0.7435,-0.7035,-0.6543,-0.5996,-0.5425,-0.4906,-0.4301,-0.3765,-0.3361,-0.3027,-0.2624,-0.2356,-0.2019,-0.1812,-0.1604,-0.1994,-0.2294,-0.2378,-0.2241,-0.2049,-0.1793,-0.1601,-0.1413,-0.1417,-0.1734,-0.2114,-0.2494,-0.2991,-0.3493,-0.4003,-0.4191,-0.4359,-0.4569,-0.4568,-0.461,-0.4567,-0.4544,-0.4568,-0.4572,-0.4614,-0.4574,-0.4576,-0.4576,-0.4701,-0.4885,-0.5728,-0.6099,-0.5976,-0.5592,-0.5096,-0.4533,-0.4264,-0.3978,-0.362,-0.3422,-0.3189,-0.3001,-0.29,-0.2854,-0.2647,-0.2448,-0.2173,-0.1964,-0.1747,-0.1533,-0.1462,-0.1446,-0.1434,-0.1432,-0.1421,-0.2089,-0.3429,-0.3562,-0.3496,-0.3293,-0.2746,-0.2069,-0.1528,-0.1317,-0.1307,-0.1297,-0.1283,-0.1326,-0.1441,-0.1492,-0.1483,-0.1482,-0.1543,-0.1296,-0.0926,-0.0987,-0.1172,-0.1111,-0.1296,-0.1789,-0.2158,-0.259,-0.2958,-0.339,-0.3824,-0.4253,-0.4325,-0.4077,-0.3598,-0.288,-0.2216,-0.16,-0.1038,-0.0525,-0.0331,-0.0199,0.0,0.0,-0.6626,-0.613,-0.5778,-0.5248,-0.4773,-0.4288,-0.3787,-0.3277,-0.2786,-0.2441,-0.2101,-0.1754,-0.1481,-0.1212,-0.1077,-0.0875,-0.0673,-0.0673,-0.0867,-0.1246,-0.1237,-0.104,-0.0976,-0.0719,-0.0655,-0.072,-0.0978,-0.1235,-0.1429,-0.1874,-0.232,-0.2706,-0.29,-0.3016,-0.3245,-0.3242,-0.3224,-0.3205,-0.3228,-0.3242,-0.3248,-0.3272,-0.3287,-0.3223,-0.3287,-0.3158,-0.3025,-0.3604,-0.4072,-0.4202,-0.3793,-0.3391,-0.2986,-0.2883,-0.2646,-0.2345,-0.2106,-0.1995,-0.1799,-0.1822,-0.1695,-0.1554,-0.1348,-0.114,-0.0996,-0.0781,-0.0707,-0.0706,-0.0698,-0.0693,-0.0692,-0.0688,-0.1025,-0.1571,-0.1962,-0.202,-0.1884,-0.1481,-0.1077,-0.0805,-0.0667,-0.0663,-0.0591,-0.0651,-0.0638,-0.0633,-0.0627,-0.062,-0.0681,-0.0741,-0.0617,-0.0679,-0.0987,-0.1172,-0.1172,-0.1542,-0.1973,-0.222,-0.2466,-0.2651,-0.2898,-0.3393,-0.3825,-0.3672,-0.3432,-0.2891,-0.2156,-0.1609,-0.1043,-0.0529,-0.02,-0.0134,0.0,0.0,0.0,-0.477,-0.436,-0.3933,-0.3407,-0.2808,-0.2665,-0.2311,-0.1678,-0.1591,-0.1376,-0.1029,-0.0749,-0.0541,-0.0405,-0.0271,0.0,0.0,0.0,0.0,0.0,-0.0333,-0.0397,-0.0198,0.0,0.0,0.0,-0.0398,-0.0528,-0.0593,-0.1109,-0.1422,-0.1557,-0.1818,-0.1939,-0.2067,-0.2001,-0.1998,-0.2056,-0.1998,-0.2001,-0.2002,-0.2007,-0.2008,-0.2009,-0.201,-0.2011,-0.1947,-0.1812,-0.1872,-0.2321,-0.2257,-0.2081,-0.191,-0.1652,-0.1541,-0.1439,-0.117,-0.1111,-0.1053,-0.1066,-0.0931,-0.0645,-0.0578,-0.0438,-0.0218,0.0,0.0,0.0,0.0,0.0,0.0,0.0,0.0,0.0,-0.0755,-0.0949,-0.0607,-0.054,-0.0405,0.0,0.0,0.0,0.0,0.0,0.0,0.0,0.0,-0.0125,-0.0311,-0.0496,-0.0556,-0.0925,-0.1419,-0.1912,-0.2158,-0.3019,-0.3511,-0.3696,-0.3635,-0.3574,-0.3207,-0.3455,-0.3719,-0.3501,-0.3092,-0.2353,-0.18,-0.1498,-0.0921,-0.0398,-0.02,-0.0067,0.0,0.0,0.0,-0.2981,-0.2827,-0.2465,-0.2159,-0.1922,-0.1636,-0.1274,-0.0842,-0.0769,-0.0628,0.0,-0.0209,0.0,0.0,0.0,0.0,0.0,0.0,0.0,0.0,-0.0068,-0.0068,0.0,0.0,0.0,0.0,0.0,-0.0134,-0.0134,0.0,0.0,-0.0799,-0.0863,-0.1058,-0.1247,-0.1245,-0.1237,-0.1294,-0.1239,-0.1245,-0.1247,-0.1324,-0.1331,-0.1331,-0.133,-0.1197,-0.0932,-0.0599,-0.0728,-0.1311,-0.131,-0.1127,-0.0948,-0.0815,-0.0685,0.0,0.0,0.0,0.0,0.0,0.0,-0.0145,0.0,0.0,0.0,0.0,0.0,0.0,0.0,0.0,0.0,0.0,0.0,0.0,0.0,0.0,0.0,-0.0137,-0.0068,0.0,0.0,0.0,0.0,0.0,0.0,0.0,0.0,-0.0126,-0.0377,-0.081,-0.1119,-0.1791,-0.2343,-0.2898,-0.3574,-0.4495,-0.5109,-0.5293,-0.5356,-0.5297,-0.4747,-0.4259,-0.4289,-0.4202,-0.3677,-0.307,-0.2399,-0.1972,-0.1258,-0.0667,-0.0402,-0.0404,-0.0067,0.0,0.0,-0.175,-0.1531,-0.1313,-0.1162,-0.0938,-0.0721,-0.0503,-0.0285,-0.0284,-0.0212,0.0,0.0,0.0,0.0,0.0,0.0,0.0,0.0,0.0,0.0,0.0,0.0,0.0,0.0,0.0,0.0,0.0,0.0,0.0,0.0,0.0,-0.0269,-0.0269,-0.0402,-0.0532,-0.0598,0.0,-0.0593,-0.0596,-0.0598,-0.0599,-0.0603,-0.0605,-0.0606,-0.0606,-0.0471,-0.0269,-0.0135,-0.0203,-0.0538,-0.0537,-0.0474,-0.0345,-0.0277,-0.0209,0.0,0.0,0.0,0.0,0.0,0.0,0.0,0.0,0.0,0.0,0.0,0.0,0.0,0.0,0.0,0.0,0.0,0.0,0.0,0.0,0.0,0.0,0.0,0.0,0.0,0.0,0.0,0.0,0.0,0.0,0.0,0.0,-0.0386,-0.0701,-0.1263,-0.1942,-0.2744,-0.36,-0.4346,-0.5005,-0.5857,-0.6476,-0.6721,-0.6936,-0.6931,-0.6194,-0.5397,-0.5251,-0.5112,-0.4461,-0.3804,-0.3269,-0.2712,-0.2133,-0.1609,-0.1143,-0.0673,-0.0404,0.0,0.0,-0.0879,-0.0586,-0.0513,-0.0366,0.0,0.0,0.0,0.0,0.0,0.0,0.0,0.0,0.0,0.0,0.0,0.0,0.0,0.0,0.0,0.0,0.0,0.0,0.0,0.0,0.0,0.0,0.0,0.0,0.0,0.0,0.0,0.0,0.0,0.0,0.0,0.0,0.0,0.0,0.0,0.0,0.0,0.0,0.0,0.0,0.0,0.0,0.0,0.0,0.0,0.0,0.0,0.0,0.0,0.0,0.0,0.0,0.0,0.0,0.0,0.0,0.0,0.0,0.0,0.0,0.0,0.0,0.0,0.0,0.0,0.0,0.0,0.0,0.0,0.0,0.0,0.0,0.0,0.0,0.0,0.0,0.0,0.0,0.0,0.0,0.0,0.0,-0.0263,-0.0652,-0.1292,-0.2051,-0.2926,-0.3919,-0.491,-0.5954,-0.6534,-0.7227,-0.7664,-0.8047,-0.8355,-0.8313,-0.7635,-0.7024,-0.6623,-0.6233,-0.5736,-0.5084,-0.4415,-0.3794,-0.3218,-0.2419,-0.1884,-0.1279,-0.0741,-0.0337,0.0,-0.0225,-0.015,-0.015,-0.0075,0.0,0.0,0.0,0.0,0.0,0.0,0.0,0.0,0.0,0.0,0.0,0.0,0.0,0.0,0.0,0.0,0.0,0.0,0.0,0.0,0.0,0.0,0.0,0.0,0.0,0.0,0.0,0.0,0.0,0.0,0.0,0.0,0.0,0.0,0.0,0.0,0.0,0.0,0.0,0.0,0.0,0.0,0.0,0.0,0.0,0.0,0.0,0.0,0.0,0.0,0.0,0.0,0.0,0.0,0.0,0.0,0.0,0.0,0.0,0.0,0.0,0.0,0.0,0.0,0.0,0.0,0.0,0.0,0.0,0.0,0.0,0.0,0.0,0.0,0.0,0.0,0.0,0.0,0.0,0.0,0.0,0.0,-0.0465,-0.0923,-0.1833,-0.2862,-0.4069,-0.52,-0.6332,-0.7319,-0.7796,-0.8304,-0.8664,-0.8933,-0.9181,-0.9255,-0.8629,-0.8097,-0.7513,-0.7248,-0.7055,-0.6329,-0.5438,-0.5075,-0.4502,-0.3563,-0.269,-0.2153,-0.1615,-0.101,-0.0471,0.0,0.0,0.0,0.0,0.0,0.0,0.0,0.0,0.0,0.0,0.0,0.0,0.0,0.0,0.0,0.0,0.0,0.0,0.0,0.0,0.0,0.0,0.0,0.0,0.0,0.0,0.0,0.0,0.0,0.0,0.0,0.0,0.0,0.0,0.0,0.0,0.0,0.0,0.0,0.0,0.0,0.0,0.0,0.0,0.0,0.0,0.0,0.0,0.0,0.0,0.0,0.0,0.0,0.0,0.0,0.0,0.0,0.0,0.0,0.0,0.0,0.0,0.0,0.0,0.0,0.0,0.0,0.0,0.0,0.0,0.0,0.0,0.0,0.0,0.0,0.0,0.0,0.0,0.0,0.0,0.0,0.0,0.0,0.0,0.0,0.0,-0.0939,-0.1531,-0.2994,-0.4034,-0.5382,-0.6591,-0.7739,-0.859,-0.8983,-0.9356,-0.958,-0.9672,-0.9661,-0.9564,-0.9175,-0.8649,-0.8123,-0.782,-0.743,-0.7067,-0.6312,-0.6023,-0.5582,-0.4774,-0.39,-0.3295,-0.2623,-0.2017,-0.148,0.0228,0.0229,0.0229,0.0,0.0229,0.0,0.0,0.0,0.0228,0.0,0.0,0.0303,0.0,0.0,0.0,0.0,0.0,0.0,0.0,0.0,0.0,0.0,0.0,0.0,0.0,0.0,0.0,0.0,0.0,0.0,0.0,0.0,0.0,0.0,0.0,0.0,0.0,0.0,0.0,0.0,0.0,0.0,0.0,0.0,0.0,0.0,0.0,0.0,0.0,0.0,0.0,0.0,0.0,0.0,0.0,0.0,0.0,0.0,0.0,0.0,0.0,0.0,0.0,0.0,0.0,0.0,0.0,0.0,0.0,0.0,0.0,0.0,0.0,0.0,0.0,0.0,0.0,0.0,0.0,0.0,0.0,0.0,0.0,0.0,0.0,-0.0673,-0.1413,-0.2354,-0.383,-0.5162,-0.6446,-0.7678,-0.8708,-0.9358,-0.9755,-0.9766,-1.0059,-0.9935,-0.9918,-0.9478,-0.9181,-0.8383,-0.7749,-0.7843,-0.752,-0.703,-0.6662,-0.636,-0.5912,-0.5512,-0.5176,-0.4504,-0.3764,-0.3026,-0.2555,0.1093,0.1093,0.1093,0.1093,0.1093,0.1093,0.1086,0.1078,0.1076,0.1299,0.1593,0.159,0.1582,0.1493,0.1487,0.1329,0.1101,0.1099,0.1097,0.1023,0.1023,0.1023,0.0949,0.073,0.0583,0.0437,0.0291,0.0,0.0,0.0,0.0,0.0,0.0,0.0,0.0,0.0,0.0,0.0,0.0,0.0,0.0,0.0,0.0,0.0,0.0,0.0,0.0,0.0,0.0,0.0,0.0,0.0,0.0,0.0,0.0,0.0,0.0,0.0,0.0,0.0,0.0,0.0,0.0,0.0,0.0,0.0,0.0,0.0,0.0,0.0,0.0,0.0,0.0,0.0,0.0,0.0,0.0,0.0,0.0,0.0,0.0,-0.0138,-0.0342,-0.068,-0.1083,-0.1621,-0.2357,-0.3431,-0.4836,-0.6109,-0.7362,-0.8421,-0.9492,-0.9998,-1.035,-1.0226,-1.023,-0.9945,-0.9679,-0.8932,-0.8481,-0.7678,-0.7222,-0.6781,-0.6647,-0.635,-0.6237,-0.6241,-0.6245,-0.5848,-0.5713,-0.5644,-0.5173,-0.4634,-0.4164,0.1963,0.1885,0.1884,0.1884,0.1963,0.1884,0.2034,0.218,0.2257,0.2482,0.278,0.2927,0.291,0.2808,0.2575,0.2332,0.2235,0.2157,0.2149,0.2139,0.2135,0.198,0.1826,0.1605,0.1386,0.1239,0.0948,0.0511,0.0,0.0,0.0,0.0,0.0,0.0,0.0,0.0,0.0,0.0215,0.0358,0.0429,0.0573,0.0644,0.0644,0.0646,0.0648,0.065,0.0651,0.0654,0.0,0.0,0.0,0.0657,0.0657,0.0584,0.0438,0.0,0.0,0.0,0.0,0.0,0.0,0.0,0.0,0.0,0.0,0.0,0.0,0.0,0.0,0.0,0.0,0.0,0.0,0.0,0.0,0.0,0.0,0.0,0.0,0.0,0.0,-0.0491,-0.0902,-0.1308,-0.1841,-0.2576,-0.3309,-0.458,-0.5917,-0.7047,-0.8253,-0.9053,-0.9921,-1.0148,-1.0389,-1.0295,-1.0032,-0.9798,-0.9187,-0.8431,-0.7467,-0.6504,-0.5642,-0.4959,-0.4972,-0.5175,-0.5646,-0.5642,-0.5845,-0.625,-0.6583,-0.6715,-0.6646,-0.6307,-0.5837,0.3082,0.3083,0.3082,0.3082,0.316,0.3151,0.3387,0.3698,0.3767,0.4073,0.4389,0.4461,0.4432,0.4316,0.3986,0.3736,0.3705,0.3778,0.3754,0.3729,0.3561,0.3246,0.3007,0.2699,0.2551,0.2405,0.1967,0.1385,0.0511,0.0,0.0,0.0,0.0,0.0,0.0,0.0,0.0,0.073,0.0949,0.1167,0.1313,0.1459,0.1459,0.1459,0.1459,0.1386,0.1384,0.1386,0.1463,0.1464,0.1536,0.1534,0.1536,0.1607,0.1313,0.0731,0.0368,0.0222,0.0,0.0,0.0,0.0,0.0,0.0,0.0,0.0,0.0,0.0,0.0,0.0,0.0,0.0,0.0,0.0,0.0,0.0,0.0,0.0,0.0,0.0,0.0,-0.1,-0.141,-0.2159,-0.2827,-0.4113,-0.4986,-0.5898,-0.717,-0.7992,-0.8987,-0.9655,-1.019,-1.0256,-1.0274,-1.0156,-0.9858,-0.9441,-0.8519,-0.7595,-0.6352,-0.5171,-0.4301,-0.3429,-0.3361,-0.363,-0.4301,-0.5041,-0.5377,-0.5981,-0.7185,-0.7853,-0.7915,-0.8043,-0.7905,0.502,0.4938,0.4936,0.5179,0.5487,0.5437,0.5652,0.5957,0.5981,0.6188,0.658,0.6499,0.6536,0.6396,0.6023,0.5838,0.583,0.5837,0.583,0.5801,0.5458,0.5206,0.4881,0.417,0.4099,0.3881,0.3215,0.2113,0.1535,0.1244,0.1022,0.1022,0.1022,0.1095,0.1167,0.1315,0.1531,0.1677,0.1969,0.2188,0.226,0.226,0.226,0.226,0.226,0.226,0.2334,0.2337,0.2347,0.2439,0.2639,0.2713,0.2803,0.3076,0.299,0.2405,0.1754,0.1102,0.1114,0.1055,0.1068,0.1001,0.0777,0.0622,0.0384,0.0226,0.0,0.0,0.0,0.0,0.0,0.0,0.0,0.0,0.0,0.0,0.0,0.0,0.0,0.0,0.0,-0.1442,-0.2143,-0.2964,-0.3907,-0.5276,-0.6627,-0.7474,-0.8309,-0.9002,-0.9294,-0.9774,-0.9797,-0.9791,-0.9788,-0.9745,-0.9347,-0.8917,-0.7833,-0.6683,-0.536,-0.4031,-0.2824,-0.2153,-0.2018,-0.2085,-0.269,-0.3563,-0.4504,-0.5778,-0.7049,-0.8248,-0.9313,-0.951,-0.9772,0.7719,0.6822,0.6982,0.7223,0.7459,0.7661,0.7936,0.8126,0.8161,0.8349,0.862,0.8613,0.8583,0.8295,0.8105,0.8017,0.8015,0.8006,0.7977,0.7935,0.7578,0.731,0.6894,0.6485,0.617,0.5566,0.5204,0.4768,0.371,0.2496,0.1824,0.1825,0.1824,0.1968,0.2194,0.235,0.2724,0.3095,0.3536,0.3669,0.3651,0.3644,0.3644,0.3644,0.3644,0.3644,0.3649,0.3675,0.3837,0.4087,0.4301,0.4549,0.4789,0.4926,0.491,0.4762,0.4391,0.3412,0.214,0.1949,0.1972,0.1838,0.1551,0.1171,0.077,0.0454,0.0223,0.0,0.0,0.0,0.0,0.0,0.0,0.0,0.0,0.0,0.0,0.0,0.0,0.0,-0.0875,-0.174,-0.2739,-0.3928,-0.5025,-0.6557,-0.7699,-0.8533,-0.9094,-0.965,-0.9679,-0.9517,-0.9317,-0.9056,-0.9056,-0.9039,-0.8496,-0.7915,-0.6777,-0.5563,-0.4293,-0.3025,-0.1681,-0.0875,-0.0606,-0.0807,-0.1278,-0.2555,-0.3967,-0.5439,-0.6911,-0.8376,-0.9842,-1.1163,-1.149,1.0216,0.8999,0.8996,0.9159,0.9233,0.9534,0.9866,1.0086,1.0046,1.0125,1.0278,1.0253,1.0092,0.9931,0.9842,0.9749,0.9845,0.9856,0.9805,0.9818,0.9605,0.9165,0.8646,0.8394,0.8063,0.7475,0.7296,0.6925,0.6074,0.491,0.376,0.3016,0.3324,0.339,0.3615,0.4003,0.4466,0.4965,0.5262,0.5304,0.5258,0.5244,0.5245,0.5247,0.5245,0.5245,0.5327,0.5526,0.5784,0.5977,0.6382,0.6713,0.6897,0.7095,0.7077,0.6925,0.6773,0.6061,0.4698,0.3983,0.3413,0.3061,0.2549,0.2109,0.1312,0.0984,0.0599,0.0224,0.0,0.0,0.0,0.0,0.0,0.0,0.0,0.0,0.0,0.0,0.0,0.0,-0.0948,-0.1968,-0.3117,-0.4687,-0.6173,-0.7803,-0.8807,-0.9486,-0.9622,-0.9761,-0.9177,-0.8736,-0.8045,-0.7716,-0.7567,-0.7557,-0.7273,-0.6717,-0.5579,-0.423,-0.2821,-0.1546,-0.0202,0.0404,0.0673,0.0269,-0.0336,-0.1883,-0.3497,-0.5036,-0.6706,-0.877,-1.0366,-1.1952,-1.3464,1.1893,1.1709,1.087,1.0779,1.1188,1.108,1.1288,1.1487,1.1372,1.133,1.1212,1.1191,1.12,1.1104,1.1104,1.1104,1.1104,1.1181,1.1086,1.0963,1.0665,1.0383,1.0106,0.9823,0.9537,0.9384,0.9106,0.895,0.8695,0.7723,0.6253,0.5052,0.5179,0.5345,0.5647,0.6166,0.653,0.6945,0.6999,0.6943,0.6879,0.6849,0.6843,0.6843,0.6843,0.6845,0.6849,0.7227,0.7527,0.7745,0.8252,0.8758,0.8883,0.9071,0.9043,0.889,0.8812,0.8325,0.7568,0.6385,0.5749,0.517,0.435,0.336,0.2476,0.1619,0.1147,0.0681,0.0374,0.0,0.0,0.0,0.0,0.0,0.0,0.0,0.0,0.0,0.0,0.0,-0.0875,-0.1895,-0.2914,-0.4348,-0.6148,-0.772,-0.8836,-0.9456,-0.896,-0.89,-0.8109,-0.738,-0.6623,-0.6104,-0.5676,-0.5527,-0.5507,-0.4873,-0.3785,-0.2493,-0.1075,0.0135,0.1279,0.1548,0.1817,0.1211,0.0471,-0.1143,-0.2756,-0.4632,-0.6569,-0.8964,-1.1739,-1.404,-1.5609,1.2902,1.2902,1.2484,1.2318,1.2232,1.2427,1.2572,1.2612,1.254,1.238,1.2171,1.2171,1.2122,1.2063,1.2037,1.204,1.2037,1.2037,1.204,1.2027,1.1821,1.1571,1.1386,1.1131,1.0956,1.0712,1.0485,1.0264,0.9966,0.9621,0.9182,0.8238,0.7467,0.7486,0.7862,0.8221,0.8665,0.8707,0.8718,0.8639,0.8548,0.8464,0.8437,0.8435,0.8437,0.8437,0.8459,0.8757,0.9069,0.9379,0.9791,1.0182,1.0383,1.0565,1.055,1.0468,1.0465,1.0312,0.9993,0.8707,0.7482,0.6765,0.5861,0.4852,0.3809,0.2943,0.2157,0.1528,0.0833,0.0527,0.0,0.0,0.0,0.0,0.0,0.0,0.0,0.0,0.0,0.0,0.0,-0.1678,-0.2697,-0.3786,-0.5744,-0.7555,-0.8534,-0.9212,-0.85,-0.774,-0.6873,-0.5996,-0.5177,-0.4522,-0.4094,-0.3935,-0.3776,-0.287,-0.1974,-0.0611,0.0677,0.1614,0.2557,0.2826,0.2827,0.2287,0.1278,-0.0336,-0.215,-0.4294,-0.6829,-0.9492,-1.2517,-1.5819,-1.7389,1.34,1.34,1.34,1.3234,1.2985,1.3238,1.3315,1.319,1.3166,1.3041,1.2803,1.2796,1.2749,1.2661,1.2644,1.261,1.2522,1.2498,1.2539,1.2434,1.234,1.2347,1.2192,1.2024,1.1843,1.1727,1.165,1.1402,1.1231,1.1023,1.077,1.0326,0.9785,0.9568,0.9495,1.0069,1.0338,1.0278,1.01,0.9976,0.9852,0.9661,0.959,0.959,0.9593,0.959,0.9725,0.9945,1.0306,1.064,1.092,1.1306,1.1492,1.165,1.165,1.165,1.165,1.1647,1.1231,1.0269,0.9076,0.851,0.7589,0.6502,0.5316,0.4201,0.3337,0.2093,0.1534,0.1065,0.0989,0.0,0.0,0.0,0.0,0.0,0.0,0.0,0.0,0.0,0.0,-0.1313,-0.2115,-0.3207,-0.4882,-0.6478,-0.7334,-0.7749,-0.7229,-0.6407,-0.546,-0.4575,-0.3764,-0.304,-0.2465,-0.2236,-0.1804,-0.0623,0.0345,0.1306,0.2465,0.3399,0.4058,0.4541,0.4265,0.3436,0.2084,0.0404,-0.1813,-0.416,-0.7431,-1.1181,-1.4041,-1.7234,-1.87,1.34,1.34,1.34,1.34,1.3317,1.34,1.3319,1.3207,1.3193,1.3105,1.2966,1.2956,1.2942,1.2915,1.2878,1.282,1.2742,1.2722,1.2674,1.2593,1.2556,1.2525,1.2434,1.2363,1.2347,1.2424,1.2347,1.2192,1.2266,1.1879,1.196,1.2037,1.1435,1.1115,1.0698,1.1017,1.1192,1.1073,1.0947,1.0822,1.0691,1.0559,1.0495,1.0458,1.0458,1.0458,1.0623,1.0946,1.1239,1.1399,1.19,1.2179,1.2269,1.2269,1.2347,1.2347,1.2347,1.2424,1.234,1.1175,1.0552,1.0089,0.9003,0.7987,0.6816,0.5636,0.4383,0.3279,0.2636,0.2159,0.1842,0.1602,0.1508,0.1195,0.0892,0.0517,0.044,0.0,0.0,0.0,0.0,-0.0876,-0.1604,-0.2551,-0.4084,-0.5394,-0.6116,-0.6186,-0.5752,-0.5016,-0.4058,-0.3324,-0.2442,-0.1793,-0.1213,-0.0495,0.0211,0.1401,0.2376,0.3135,0.4091,0.5031,0.5699,0.6166,0.5468,0.4432,0.2776,0.1009,-0.2161,-0.5635,-0.9746,-1.3364,-1.6115,-1.829,-1.9687,1.34,1.34,1.34,1.34,1.34,1.34,1.3366,1.3329,1.3312,1.3237,1.3122,1.3102,1.3041,1.307,1.2973,1.2946,1.2898,1.2885,1.2827,1.2796,1.2701,1.2664,1.2634,1.2566,1.2515,1.2505,1.2505,1.2501,1.2424,1.2347,1.2347,1.2424,1.2347,1.2192,1.1953,1.2034,1.2078,1.2029,1.1907,1.1763,1.1612,1.1397,1.1283,1.1208,1.1204,1.1243,1.1322,1.1686,1.188,1.1973,1.2416,1.2491,1.2501,1.2501,1.2501,1.2501,1.2501,1.2343,1.2192,1.1569,1.1337,1.0796,1.0097,0.9005,0.7833,0.6816,0.5724,0.4786,0.4063,0.3658,0.3502,0.2853,0.2517,0.2034,0.1569,0.096,0.0,0.0,0.0,0.0,0.0,-0.0657,-0.124,-0.1614,-0.2938,-0.3526,-0.4183,-0.4383,-0.4086,-0.3499,-0.2692,-0.2037,-0.1306,-0.0653,0.0,0.0501,0.1352,0.2415,0.347,0.4376,0.5407,0.6428,0.6825,0.7085,0.6233,0.5247,0.2748,0.0,-0.378,-0.7566,-1.0962,-1.3994,-1.6409,-1.8532,-2.0275,1.34,1.34,1.34,1.34,1.34,1.34,1.34,1.34,1.3397,1.3342,1.3268,1.3251,1.3214,1.3139,1.3112,1.3061,1.3044,1.3034,1.2976,1.2959,1.2864,1.282,1.2762,1.2661,1.2613,1.2569,1.2522,1.2501,1.2501,1.2501,1.2501,1.2501,1.2501,1.2424,1.2424,1.2421,1.2421,1.237,1.2266,1.2161,1.204,1.1922,1.1797,1.174,1.1726,1.1826,1.1928,1.2054,1.2186,1.2305,1.2406,1.2498,1.2501,1.2501,1.2501,1.2501,1.2343,1.2114,1.1808,1.1417,1.1026,1.0486,1.0253,0.9706,0.8771,0.7913,0.7055,0.6195,0.5724,0.5408,0.5006,0.4341,0.3852,0.3348,0.2332,0.171,0.0,0.0,0.0,0.0,0.0,0.0,-0.0804,-0.1032,-0.1556,-0.1852,-0.2148,-0.2285,-0.2496,-0.2055,-0.1686,-0.1171,-0.0658,-0.0146,0.051,0.1235,0.2168,0.3312,0.4375,0.5358,0.6342,0.7307,0.7635,0.7669,0.6438,0.4674,0.1887,-0.1188,-0.4692,-0.7797,-1.0902,-1.3798,-1.6533,-1.853,-2.0324,1.34,1.34,1.34,1.34,1.34,1.3483,1.3483,1.34,1.34,1.348,1.3476,1.3462,1.36,1.3542,1.3462,1.3463,1.3363,1.3346,1.3362,1.3272,1.3311,1.3213,1.3144,1.2951,1.3019,1.2814,1.2671,1.2656,1.2579,1.2501,1.2501,1.2501,1.2501,1.2501,1.2501,1.2501,1.2501,1.2464,1.2403,1.2311,1.2223,1.2135,1.2043,1.1996,1.1986,1.2013,1.2091,1.2189,1.2267,1.2352,1.2427,1.2478,1.2501,1.2501,1.2501,1.2347,1.2111,1.1572,1.1187,1.0796,1.0253,0.9786,1.0097,0.9864,0.9477,0.8776,0.8228,0.7679,0.7287,0.6971,0.6648,0.6163,0.568,0.4536,0.3267,0.2328,0.1336,0.0,0.0,0.0,0.0,0.0,0.0,-0.0442,-0.0673,-0.075,-0.1051,-0.1281,-0.1349,-0.1191,-0.0817,-0.0738,-0.0221,0.0293,0.0952,0.1539,0.2551,0.3625,0.5001,0.6143,0.7141,0.7621,0.7591,0.7119,0.6143,0.4158,0.1134,-0.199,-0.52,-0.8211,-1.0722,-1.3251,-1.5922,-1.8017,-1.9816,1.34,1.34,1.34,1.34,1.3483,1.3735,1.3735,1.3483,1.3735,1.3901,1.3904,1.4225,1.43,1.4304,1.4304,1.4271,1.4249,1.4231,1.4299,1.4226,1.4124,1.4099,1.3997,1.384,1.3716,1.3465,1.3301,1.2976,1.2888,1.2733,1.2501,1.2501,1.2501,1.2501,1.2501,1.2501,1.2501,1.2491,1.244,1.2386,1.2328,1.225,1.2179,1.2125,1.2104,1.2138,1.223,1.2267,1.2338,1.2437,1.2471,1.2501,1.2501,1.2501,1.2424,1.2037,1.1417,1.0796,1.0408,1.0022,0.9477,0.9166,0.9477,0.9399,0.9246,0.9244,0.9241,0.9005,0.8925,0.8689,0.8297,0.7894,0.7092,0.5873,0.4426,0.2939,0.1936,0.1031,0.0512,0.0,0.0,0.0,0.0,0.0,-0.0226,-0.0076,0.0,0.0,0.0,0.0,0.0,0.0,-0.0074,0.0297,0.0888,0.1481,0.2645,0.3871,0.5112,0.6054,0.646,0.6805,0.7017,0.6342,0.4869,0.2724,0.0144,-0.2741,-0.5258,-0.7722,-1.0254,-1.2746,-1.5207,-1.7184,-1.8987,1.34,1.34,1.34,1.3486,1.3732,1.4311,1.4394,1.4307,1.4476,1.4645,1.4642,1.5043,1.5204,1.5204,1.5208,1.5201,1.5201,1.5189,1.5181,1.5236,1.535,1.5408,1.5278,1.5261,1.5122,1.4751,1.4228,1.3811,1.3296,1.2811,1.2501,1.2501,1.2501,1.2501,1.2501,1.2501,1.2501,1.2501,1.2484,1.2444,1.2403,1.2369,1.2305,1.2247,1.2223,1.2288,1.2349,1.2366,1.2423,1.2491,1.2498,1.2424,1.2192,1.196,1.1569,1.1029,1.0328,0.9706,0.9239,0.8852,0.862,0.87,0.9012,0.9244,0.9555,0.9786,1.0019,1.0097,1.033,1.0405,1.0017,0.9464,0.8334,0.7133,0.5431,0.3699,0.2535,0.14,0.0953,0.0584,0.0,0.0,0.0368,0.03,0.0,0.0,0.0,0.0,0.0,0.0,0.0,0.0,0.0,0.0226,0.0826,0.1421,0.2304,0.3398,0.4417,0.5288,0.57,0.5677,0.5522,0.4577,0.327,0.1308,-0.0508,-0.247,-0.4865,-0.7193,-0.9221,-1.1217,-1.3488,-1.5737,-1.7532,1.34,1.34,1.34,1.3735,1.4232,1.5051,1.5546,1.5628,1.5875,1.5711,1.5711,1.611,1.6435,1.6599,1.6681,1.6595,1.6595,1.6595,1.6599,1.627,1.6824,1.6975,1.7155,1.7109,1.6819,1.6292,1.5508,1.4508,1.3608,1.2969,1.2501,1.2501,1.2501,1.2501,1.2501,1.2501,1.2501,1.2501,1.2501,1.2481,1.2488,1.2491,1.2501,1.2481,1.2471,1.2488,1.2488,1.2494,1.2501,1.2501,1.2424,1.2189,1.1572,1.0871,1.0328,0.9783,0.9083,0.8693,0.8304,0.7991,0.8152,0.8313,0.8625,0.9399,1.0019,1.0408,1.0641,1.1029,1.1184,1.1337,1.1026,1.025,0.9209,0.7748,0.6053,0.4324,0.2783,0.2006,0.1619,0.1397,0.1549,0.1402,0.1112,0.1056,0.0611,0.0,0.0,0.0,0.0,0.0,0.0,0.0,0.0,0.0,0.0608,0.1211,0.1807,0.277,0.3723,0.4081,0.4292,0.4117,0.3939,0.3068,0.2122,0.0802,-0.0874,-0.2622,-0.4222,-0.6108,-0.7991,-0.9579,-1.1657,-1.3943,-1.6009,1.34,1.34,1.3818,1.4145,1.4721,1.5871,1.6772,1.7496,1.8486,1.8078,1.7255,1.7987,1.8477,1.8477,1.8717,1.8712,1.8554,1.8472,1.8477,1.8554,1.8722,1.8966,1.9052,1.8964,1.8586,1.776,1.6691,1.5021,1.3671,1.2888,1.2501,1.2501,1.2501,1.2501,1.2501,1.2501,1.2501,1.2501,1.2501,1.2501,1.2501,1.2501,1.2501,1.2501,1.2501,1.2501,1.2501,1.2498,1.2269,1.2114,1.2037,1.1495,1.0486,0.9703,0.908,0.8537,0.7838,0.7525,0.7603,0.7601,0.7996,0.87,0.9324,1.0097,1.0719,1.0952,1.1262,1.165,1.196,1.2037,1.1801,1.0871,0.9848,0.8213,0.6683,0.4883,0.3183,0.2772,0.2369,0.2524,0.261,0.2469,0.2101,0.1664,0.1224,0.0,0.0,0.0,0.0,0.0,0.0,0.0,0.0,0.0,0.0,0.0843,0.1373,0.1744,0.2413,0.2706,0.2923,0.2754,0.2512,0.1915,0.1103,0.0073,-0.0876,-0.2114,-0.3714,-0.5239,-0.6616,-0.8061,-0.9654,-1.1804,-1.4014,1.34,1.3486,1.4311,1.5051,1.5785,1.7182,1.8323,1.9297,2.0515,2.0677,1.9937,2.0104,2.0272,2.0434,2.0672,2.0909,2.0667,2.0748,2.0748,2.0748,2.0828,2.1152,2.1146,2.093,2.0369,1.9517,1.6989,1.5037,1.3729,1.2888,1.2501,1.2501,1.2501,1.2501,1.2501,1.2501,1.2501,1.2501,1.2501,1.2501,1.2501,1.2501,1.2501,1.2501,1.2501,1.2424,1.2266,1.2189,1.1882,1.1259,1.0791,0.9931,0.8922,0.8065,0.7363,0.6898,0.6509,0.6511,0.6978,0.7525,0.8228,0.9163,0.9866,1.0641,1.1262,1.1572,1.1727,1.2114,1.2269,1.2347,1.1882,1.1029,0.9781,0.8254,0.6863,0.5277,0.433,0.384,0.3819,0.4198,0.4135,0.3913,0.3477,0.2664,0.2075,0.1081,0.0857,0.0471,0.0,0.0,0.0,0.0,0.0,0.0,0.0,0.0466,0.085,0.1153,0.1374,0.1519,0.1739,0.1504,0.1123,0.0,0.0,0.0,-0.1026,-0.1831,-0.2627,-0.3861,-0.5167,-0.6543,-0.8068,-0.9607,-1.1462,1.34,1.3652,1.4882,1.6036,1.71,1.8818,2.0044,2.1006,2.2206,2.3015,2.3095,2.2217,2.2056,2.2131,2.2297,2.2533,2.2614,2.2527,2.2608,2.2768,2.3009,2.3015,2.2984,2.2931,2.1743,1.9874,1.739,1.568,1.4268,1.327,1.2656,1.2579,1.2501,1.2501,1.2501,1.2501,1.2501,1.2501,1.2501,1.2501,1.2501,1.2501,1.2501,1.2501,1.2424,1.2192,1.196,1.1647,1.1262,1.025,0.9156,0.8063,0.7283,0.6426,0.588,0.5334,0.557,0.5883,0.6586,0.7677,0.8691,0.9783,1.0408,1.1029,1.1727,1.196,1.2114,1.2114,1.2269,1.2037,1.1572,1.0793,0.947,0.8128,0.6733,0.5749,0.5176,0.4925,0.5458,0.5838,0.5771,0.5545,0.4886,0.4074,0.2931,0.1858,0.1088,0.0626,0.0,0.0,0.0,0.0,0.0,0.0,0.0,0.0,0.0,0.0544,0.0772,0.0691,0.0687,0.0685,0.0,0.0,0.0,0.0,-0.0518,-0.1109,-0.1912,-0.2714,-0.3828,-0.5092,-0.6255,-0.7721,-0.8988,1.3652,1.4066,1.5373,1.6599,1.7987,1.9942,2.1566,2.2774,2.3662,2.4308,2.4559,2.4559,2.4314,2.3982,2.44,2.4394,2.4062,2.4142,2.4142,2.4142,2.4295,2.4473,2.4343,2.3617,2.1857,1.9775,1.754,1.5978,1.4576,1.3502,1.2811,1.2501,1.2501,1.2501,1.2501,1.2501,1.2501,1.2501,1.2501,1.2501,1.2501,1.2501,1.2501,1.2424,1.2192,1.1805,1.1417,1.1026,1.025,0.908,0.7677,0.6348,0.5409,0.4864,0.4473,0.4472,0.4709,0.5803,0.674,0.8067,0.9394,1.0483,1.1107,1.1727,1.2037,1.204,1.1882,1.1495,1.1495,1.1259,1.0716,0.9942,0.8771,0.7187,0.5744,0.5612,0.5259,0.6192,0.7133,0.7614,0.7947,0.7496,0.6822,0.5756,0.4356,0.3196,0.1948,0.1409,0.0468,0.0,0.0,0.0,0.0,0.0,0.0,0.0,0.0,0.0,0.0,0.0,0.0,0.0,0.0,0.0,0.0,0.0,-0.045,-0.0597,-0.1122,-0.1869,-0.2701,-0.3682,-0.4712,-0.5727,-0.7023]},{"header":{"parameterUnit":"m.s-1","parameterCategory":1,"la1":31.0,"la2":29.5877,"lo1":-88.7671,"lo2":-86.6584,"dy":0.0162,"dx":0.0185,"nx":115,"ny":88,"refTime":"2025-08-07T12:00:00:Z","depth":0,"parameterNumber":3,"parameterNumberName":"V-component_of_WINDS"},"data":[0.0,0.0,0.0,0.0,0.0,0.0,0.0,0.0,0.0,0.0,0.0,0.0,0.0,0.0,0.0,0.0,0.0,0.0,0.0,0.0,0.0,0.0,0.0,0.0,0.0,0.0,0.0,0.0,0.0,0.0,0.0,0.0,0.0,0.0,0.0,0.0,0.0,0.0,0.0,0.0,0.0,0.0,0.0,0.0,0.0,0.0,0.0,0.0,0.0,0.0,0.0,0.0,0.0,0.0,0.0,0.0,0.0,0.0,0.0,0.0,0.0,0.0,0.0,0.0,0.0,0.0,0.0,0.0,0.0,0.0,0.0,0.0,0.0,0.0,0.0,0.0,0.0,0.0,0.0,0.0,0.0,0.0,0.0,0.0,0.0,0.0,0.0,0.0,0.0,0.0,0.0,0.0,0.0,0.0,0.0,0.0,0.0,0.0,0.0,0.0,0.0,0.0,0.0,0.0,0.0,0.0,0.0,0.0,0.0,0.0,0.0,0.0,0.0,0.0,0.0,0.0,0.0,0.0,0.0,0.0,0.0,0.0,0.0,0.0,0.0,0.0,0.0,0.0,0.0,0.0,0.0,0.0,0.0,0.0,0.0,0.0,0.0,0.0,0.0,0.0,0.0,0.0,0.0,0.0,0.0,0.0,0.0,0.0,0.0,0.0,0.0,0.0,0.0,0.0,0.0,0.0,0.0,0.0,0.0,0.0,0.0,0.0,0.0,0.0,0.0,0.0,0.0,0.0,0.0,0.0,0.0,0.0,0.0,0.0,0.0,0.0,0.0,0.0,0.0,0.0,0.0,0.0,0.0,0.0,0.0,0.0,0.0,0.0,0.0,0.0,0.0,0.0,0.0,0.0,0.0,0.0,0.0,0.0,0.0,0.0,0.0,0.0,0.0,0.0,0.0,0.0,0.0,0.0,0.0,0.0,0.0,0.0,0.0,0.0,0.0,0.0,0.0,0.0,0.0,0.0,0.0,0.0,0.0,0.0,0.0,0.0,0.0,0.0,0.0,0.0,0.0,0.0,0.0,0.0,0.0,0.0,0.0,0.0,0.0,0.0,0.0,0.0,0.0,0.0,0.0,0.0,0.0,0.0,0.0,0.0,0.0,0.0,0.0,0.0,0.0,0.0,0.0,0.0,0.0,0.0,0.0,0.0,0.0,0.0,0.0,0.0,0.0,0.0,0.0,0.0,0.0,0.0,0.0,0.0,0.0,0.0,0.0,0.0,0.0,0.0,0.0,0.0,0.0,0.0,0.0,0.0,0.0,0.0,0.0,0.0,0.0,0.0,0.0,0.0,0.0,0.0,0.0,0.0,0.0,0.0,0.0,0.0,0.0,0.0,0.0,0.0,0.0,0.0,0.0,0.0,0.0,0.0,0.0,0.0,0.0,0.0,0.0,0.0,0.0,0.0,0.0,0.0,0.0,0.0,0.0,0.0,0.0,0.0,0.0,0.0,0.0,0.0,0.0,0.0,0.0,0.0,0.0,0.0,0.0,0.0,0.0,0.0,0.0,0.0,0.0,0.0,0.0,0.0,0.0,0.0,0.0,0.0,0.0,0.0,0.0,0.0,0.0,0.0,0.0,0.0,0.0,0.0,0.0,0.0,0.0,0.0,0.0,0.0,0.0,0.0,0.0,0.0,0.0,0.0,0.0,0.0,0.0,0.0,0.0,0.0,0.0,0.0,0.0,0.0,0.0,0.0,0.0,0.0,0.0,0.0,0.0,0.0,0.0,0.0,0.0,0.0,0.0,0.0,0.0,0.0,0.0,0.0,0.0,0.0,0.0,0.0,0.0,0.0,0.0,0.0,0.0,0.0,0.0,0.0,0.0,0.0,0.0,0.0,0.0,0.0,0.0,0.0,0.0,0.0,0.0,0.0,0.0,0.0,0.0,0.0,0.0,0.0,0.0,0.0,0.0,0.0,0.0,0.0,0.0,0.0,0.0,0.0,0.0,0.0,0.0,0.0,0.0,0.0,0.0,0.0,0.0,0.0,0.0,0.0,0.0,0.0,0.0,0.0,0.0,0.0,0.0,0.0,0.0,0.0,0.0,0.0,0.0,0.0,0.0,0.0,0.0,0.0,0.0,0.0,0.0,0.0,0.0,0.0,0.0,0.0,0.0,0.0,0.0,0.0,0.0,0.0,0.0,0.0,0.0,0.0,0.0,0.0,0.0,0.0,0.0,0.0,0.0,0.0,0.0,0.0,0.0,0.0,0.0,0.0,0.0,0.0,0.0,0.0,0.0,0.0,0.0,0.0,0.0,0.0,0.0,0.0,0.0,0.0,0.0,0.0,0.0,0.0,0.0,0.0,0.0,0.0,0.0,0.0,0.0,0.0,0.0,0.0,0.0,0.0,0.0,0.0,0.0,0.0,0.0,0.0,0.0,0.0,0.0,0.0,0.0,0.0,0.0,0.0,0.0,0.0,0.0,0.0,0.0,0.0,0.0,0.0,0.0,0.0,0.0,0.0,0.0,0.0,0.0,0.0,0.0,0.0,0.0,0.0,0.0,0.0,0.0,0.0,0.0,0.0,0.0,0.0,0.0,0.0,0.0,0.0,0.0,0.0,0.0,0.0,0.0,0.0,0.0,0.0,0.0,0.0,0.0,0.0,0.0,0.0,0.0,0.0,0.0,0.0,0.0,0.0,0.0,0.0,0.0,0.0,0.0,0.0,0.0,0.0,0.0,0.0,0.0,0.0,0.0,0.0,0.0,0.0,0.0,0.0,0.0,0.0,0.0,0.0,0.0,0.0,0.0,0.0,0.0,0.0,0.0,0.0,0.0,0.0,0.0,0.0,0.0,0.0,0.0,0.0,0.0,0.0,0.0,0.0,0.0,0.0,0.0,0.0,0.0,0.0,0.0,0.0,0.0,0.0,0.0,0.0,0.0,0.0,0.0,0.0,0.0,0.0,0.0,0.0,0.0,0.0,0.0,0.0,0.0,0.0,0.0,0.0,0.0,0.0,0.0,0.0,0.0,0.0,0.0,0.0,0.0,0.0,0.0,0.0,0.0,0.0,0.0,0.0,0.0,0.0,0.0,0.0,0.0,0.0,0.0,0.0,0.0,0.0,0.0,0.0,0.0,0.0,0.0,0.0,0.0,0.0,0.0,0.0,0.0,0.0,0.0,0.0,0.0,0.0,0.0,0.0,0.0,0.0,0.0,0.0,0.0,0.0,0.0,0.0,0.0,0.0,0.0,0.0,0.0,0.0,0.0,0.0,0.0,0.0,0.0,0.0,0.0,0.0,0.0,0.0,0.0,0.0,0.0,0.0,0.0,0.0,0.0,0.0,0.0,0.0,0.0,0.0,0.0,0.0,0.0,0.0,0.0,0.0,0.0,0.0,0.0,0.0,0.0,0.0,0.0,0.0,0.0,0.0,0.0,0.0,0.0,0.0,0.0,0.0,0.0,0.0,0.0,0.0,0.0,0.0,0.0,0.0,0.0,0.0,0.0,0.0,0.0,0.0,0.0,0.0,0.0,0.0,0.0,0.0,0.0,0.0,0.0,0.0,0.0,0.0,0.0,0.0,0.0,0.0,0.0,0.0,0.0,0.0,0.0,0.0,0.0,0.0,0.0,0.0,0.0,0.0,0.0,0.0,0.0,0.0,0.0,0.0,0.0,0.0,0.0,0.0,0.0,0.0,0.0,0.0,0.0,0.0,0.0,0.0,0.0,0.0,0.0,0.0,0.0,0.0,0.0,0.0,0.0,0.0,0.0,0.0,0.0,0.0,0.0,0.0,0.0,0.0,0.0,0.0,0.0,0.0,0.0,0.0,0.0,0.0,0.0,0.0,0.0,0.0,0.0,0.0,0.0,0.0,0.0,0.0,0.0,0.0,0.0,0.0,0.0,0.0,0.0,0.0,0.0,0.0,0.0,0.0,0.0,0.0,0.0,0.0,0.0,0.0,0.0,0.0,0.0,0.0,0.0,0.0,0.0,0.0,0.0,0.0,0.0,0.0,0.0,0.0,0.0,0.0,0.0,0.0,0.0,0.0,0.0,0.0,0.0,0.0,0.0,0.0,0.0,0.0,0.0,0.0,0.0,0.0,0.0,0.0,0.0,0.0,0.0,0.0,0.0,0.0,0.0,0.0,0.0,0.0,0.0,0.0,0.0,0.0,0.0,0.0,0.0,0.0,0.0,0.0,0.0,0.0,0.0,0.0,0.0,0.0,0.0,0.0,0.0,0.0,0.0,0.0,0.0,0.0,0.0,0.0,0.0,0.0,0.0,0.0,0.0,0.0,0.0,0.0,0.0,0.0,2.7358,0.0,0.0,0.0,0.0,0.0,0.0,0.0,0.0,0.0,0.0,0.0,0.0,0.0,0.0,0.0,0.0,0.0,0.0,0.0,0.0,0.0,0.0,0.0,0.0,0.0,0.0,0.0,0.0,0.0,0.0,0.0,0.0,0.0,0.0,0.0,0.0,0.0,0.0,0.0,0.0,0.0,0.0,0.0,0.0,0.0,0.0,0.0,0.0,0.0,0.0,0.0,0.0,0.0,0.0,0.0,0.0,0.0,0.0,0.0,0.0,0.0,0.0,0.0,0.0,0.0,0.0,0.0,0.0,0.0,0.0,0.0,0.0,0.0,0.0,0.0,0.0,0.0,0.0,0.0,0.0,0.0,0.0,0.0,0.0,0.0,0.0,0.0,0.0,0.0,0.0,0.0,0.0,0.0,0.0,0.0,0.0,0.0,0.0,0.0,0.0,0.0,0.0,0.0,0.0,0.0,0.0,0.0,0.0,0.0,0.0,3.0305,3.0219,3.0133,2.9489,2.8229,0.0,0.0,0.0,0.0,0.0,0.0,0.0,0.0,0.0,0.0,0.0,0.0,0.0,0.0,0.0,0.0,0.0,0.0,0.0,0.0,0.0,0.0,0.0,0.0,0.0,0.0,0.0,0.0,0.0,0.0,0.0,0.0,0.0,0.0,0.0,0.0,0.0,0.0,0.0,0.0,0.0,0.0,0.0,0.0,0.0,0.0,0.0,0.0,0.0,0.0,0.0,0.0,0.0,0.0,0.0,0.0,0.0,0.0,0.0,0.0,0.0,0.0,0.0,0.0,0.0,0.0,0.0,0.0,0.0,0.0,0.0,0.0,0.0,0.0,0.0,0.0,0.0,0.0,0.0,0.0,0.0,0.0,0.0,0.0,0.0,0.0,0.0,0.0,0.0,0.0,0.0,0.0,0.0,0.0,0.0,0.0,0.0,0.0,0.0,0.0,0.0,0.0,0.0,0.0,0.0,0.0,0.0,0.0,0.0,0.0,0.0,0.0,3.0778,3.033,2.9217,0.0,0.0,0.0,0.0,0.0,0.0,0.0,0.0,0.0,0.0,0.0,0.0,0.0,0.0,0.0,0.0,0.0,0.0,0.0,0.0,0.0,0.0,0.0,0.0,0.0,0.0,0.0,0.0,0.0,0.0,0.0,0.0,0.0,0.0,0.0,0.0,0.0,0.0,0.0,0.0,0.0,0.0,0.0,0.0,0.0,0.0,0.0,0.0,0.0,0.0,0.0,0.0,0.0,0.0,0.0,0.0,0.0,0.0,0.0,0.0,0.0,0.0,0.0,0.0,0.0,0.0,0.0,0.0,0.0,0.0,0.0,0.0,0.0,0.0,0.0,0.0,0.0,0.0,0.0,0.0,0.0,0.0,0.0,0.0,0.0,0.0,0.0,0.0,0.0,0.0,0.0,0.0,0.0,0.0,0.0,0.0,0.0,0.0,0.0,0.0,0.0,0.0,0.0,0.0,0.0,0.0,0.0,0.0,0.0,0.0,3.1729,3.1669,3.2353,0.0,3.019,0.0,0.0,0.0,0.0,0.0,0.0,0.0,0.0,0.0,0.0,0.0,0.0,0.0,0.0,0.0,0.0,0.0,0.0,0.0,0.0,0.0,0.0,0.0,0.0,0.0,0.0,0.0,0.0,0.0,0.0,0.0,0.0,0.0,0.0,0.0,0.0,0.0,0.0,0.0,0.0,0.0,0.0,0.0,0.0,0.0,0.0,0.0,0.0,0.0,0.0,0.0,0.0,0.0,0.0,0.0,0.0,0.0,0.0,0.0,0.0,0.0,0.0,0.0,0.0,0.0,0.0,0.0,0.0,0.0,0.0,0.0,0.0,0.0,0.0,0.0,0.0,0.0,0.0,0.0,0.0,0.0,0.0,0.0,0.0,0.0,0.0,0.0,0.0,0.0,0.0,0.0,0.0,0.0,0.0,0.0,0.0,0.0,0.0,0.0,0.0,0.0,0.0,0.0,0.0,0.0,0.0,0.0,0.0,0.0,0.0,3.2175,3.2633,3.2353,3.1638,0.0,0.0,0.0,0.0,0.0,0.0,0.0,0.0,0.0,0.0,0.0,0.0,0.0,0.0,0.0,0.0,0.0,0.0,0.0,0.0,0.0,0.0,0.0,0.0,0.0,0.0,0.0,0.0,0.0,0.0,0.0,0.0,0.0,0.0,0.0,0.0,0.0,0.0,0.0,0.0,0.0,0.0,0.0,0.0,0.0,0.0,0.0,0.0,0.0,0.0,0.0,0.0,0.0,0.0,0.0,0.0,0.0,0.0,0.0,0.0,0.0,0.0,0.0,0.0,0.0,0.0,0.0,0.0,0.0,0.0,0.0,0.0,0.0,0.0,0.0,0.0,0.0,0.0,0.0,0.0,0.0,0.0,0.0,0.0,0.0,0.0,0.0,0.0,0.0,0.0,0.0,0.0,0.0,0.0,0.0,0.0,0.0,0.0,0.0,0.0,0.0,0.0,0.0,0.0,0.0,0.0,0.0,0.0,0.0,0.0,3.2243,3.2845,3.377,3.2703,3.1758,3.113,0.0,0.0,0.0,0.0,0.0,0.0,0.0,0.0,0.0,0.0,0.0,0.0,0.0,0.0,0.0,0.0,0.0,0.0,0.0,0.0,0.0,0.0,0.0,0.0,0.0,0.0,0.0,0.0,0.0,0.0,0.0,0.0,0.0,0.0,0.0,0.0,0.0,0.0,0.0,0.0,0.0,0.0,0.0,0.0,0.0,0.0,0.0,0.0,0.0,0.0,0.0,0.0,0.0,0.0,0.0,0.0,0.0,0.0,0.0,0.0,0.0,0.0,0.0,0.0,0.0,0.0,0.0,0.0,0.0,0.0,0.0,0.0,0.0,0.0,0.0,0.0,0.0,0.0,0.0,0.0,0.0,0.0,0.0,0.0,0.0,0.0,0.0,0.0,0.0,0.0,0.0,0.0,0.0,0.0,0.0,0.0,0.0,0.0,0.0,0.0,0.0,0.0,0.0,0.0,0.0,0.0,0.0,0.0,3.2049,3.2852,3.3994,3.5427,3.3887,3.2918,0.0,0.0,0.0,0.0,0.0,0.0,0.0,0.0,0.0,0.0,0.0,0.0,0.0,0.0,0.0,0.0,0.0,0.0,0.0,0.0,0.0,0.0,0.0,0.0,0.0,0.0,0.0,0.0,0.0,0.0,0.0,0.0,0.0,0.0,0.0,0.0,0.0,0.0,0.0,0.0,0.0,0.0,0.0,0.0,0.0,0.0,0.0,0.0,0.0,0.0,0.0,0.0,0.0,0.0,0.0,0.0,0.0,0.0,0.0,0.0,0.0,0.0,0.0,0.0,0.0,0.0,0.0,0.0,0.0,0.0,0.0,0.0,0.0,0.0,0.0,0.0,0.0,0.0,0.0,0.0,0.0,0.0,0.0,0.0,0.0,0.0,0.0,0.0,0.0,0.0,0.0,0.0,0.0,0.0,0.0,0.0,0.0,0.0,0.0,0.0,0.0,0.0,0.0,0.0,0.0,0.0,0.0,0.0,0.0,3.283,3.4211,3.4904,3.4889,3.3677,3.2491,0.0,0.0,0.0,0.0,0.0,0.0,0.0,0.0,0.0,0.0,0.0,0.0,0.0,0.0,0.0,0.0,0.0,0.0,0.0,0.0,0.0,0.0,0.0,0.0,0.0,0.0,0.0,0.0,0.0,0.0,0.0,0.0,0.0,0.0,0.0,0.0,0.0,0.0,0.0,0.0,0.0,0.0,0.0,0.0,0.0,0.0,0.0,0.0,0.0,0.0,0.0,0.0,0.0,0.0,0.0,0.0,0.0,0.0,0.0,0.0,0.0,0.0,0.0,0.0,0.0,0.0,0.0,0.0,0.0,0.0,0.0,0.0,0.0,0.0,0.0,0.0,0.0,0.0,0.0,0.0,0.0,0.0,0.0,0.0,0.0,0.0,0.0,0.0,0.0,0.0,0.0,0.0,0.0,0.0,0.0,0.0,0.0,0.0,0.0,0.0,0.0,0.0,0.0,0.0,0.0,0.0,0.0,0.0,0.0,3.3289,0.0,3.5511,3.4896,3.3664,3.2364,0.0,0.0,0.0,0.0,0.0,0.0,0.0,0.0,0.0,0.0,0.0,0.0,0.0,0.0,0.0,0.0,0.0,0.0,0.0,0.0,0.0,0.0,0.0,0.0,0.0,0.0,0.0,0.0,0.0,0.0,0.0,0.0,0.0,0.0,0.0,0.0,0.0,0.0,0.0,0.0,0.0,0.0,0.0,0.0,0.0,0.0,0.0,0.0,0.0,0.0,0.0,0.0,0.0,0.0,0.0,0.0,0.0,0.0,0.0,0.0,0.0,0.0,0.0,0.0,0.0,0.0,0.0,0.0,0.0,0.0,0.0,0.0,0.0,0.0,0.0,0.0,0.0,0.0,0.0,0.0,0.0,0.0,0.0,0.0,0.0,0.0,0.0,0.0,0.0,0.0,0.0,0.0,0.0,0.0,0.0,0.0,0.0,0.0,0.0,0.0,0.0,0.0,0.0,0.0,0.0,0.0,0.0,0.0,2.9992,3.3326,3.5059,3.5875,3.5668,3.4032,3.2701,0.0,0.0,0.0,0.0,0.0,0.0,0.0,0.0,0.0,0.0,0.0,0.0,0.0,0.0,0.0,0.0,0.0,0.0,0.0,0.0,0.0,0.0,0.0,0.0,0.0,0.0,0.0,0.0,0.0,0.0,0.0,0.0,0.0,0.0,0.0,0.0,0.0,0.0,0.0,0.0,0.0,0.0,0.0,0.0,0.0,0.0,0.0,0.0,0.0,0.0,0.0,0.0,0.0,0.0,0.0,0.0,0.0,0.0,0.0,0.0,0.0,0.0,0.0,0.0,0.0,0.0,0.0,0.0,0.0,0.0,0.0,0.0,0.0,0.0,0.0,0.0,0.0,0.0,0.0,0.0,0.0,0.0,0.0,0.0,0.0,0.0,0.0,0.0,0.0,0.0,0.0,0.0,0.0,0.0,0.0,0.0,0.0,0.0,0.0,0.0,0.0,0.0,0.0,0.0,0.0,0.0,0.0,0.0,0.0,3.4219,3.594,3.6504,3.584,3.4684,3.2837,0.0,0.0,0.0,0.0,0.0,0.0,0.0,0.0,0.0,0.0,0.0,0.0,0.0,0.0,0.0,0.0,0.0,0.0,0.0,0.0,0.0,0.0,0.0,0.0,0.0,0.0,0.0,0.0,0.0,0.0,0.0,0.0,0.0,0.0,0.0,0.0,0.0,0.0,0.0,0.0,0.0,0.0,0.0,0.0,0.0,0.0,0.0,0.0,0.0,0.0,0.0,0.0,0.0,0.0,0.0,0.0,0.0,0.0,0.0,0.0,0.0,0.0,0.0,0.0,0.0,0.0,0.0,0.0,0.0,0.0,0.0,0.0,0.0,0.0,0.0,0.0,0.0,0.0,0.0,0.0,0.0,0.0,0.0,0.0,0.0,0.0,0.0,0.0,0.0,0.0,0.0,0.0,0.0,0.0,0.0,0.0,0.0,0.0,0.0,0.0,0.0,0.0,0.0,0.0,0.0,0.0,0.0,0.0,0.0,3.5466,3.6629,3.6943,3.6389,3.5191,3.3076,3.0024,0.0,0.0,0.0,0.0,0.0,0.0,0.0,0.0,0.0,0.0,0.0,0.0,0.0,0.0,0.0,0.0,0.0,0.0,0.0,0.0,0.0,0.0,0.0,0.0,0.0,0.0,0.0,0.0,0.0,0.0,0.0,0.0,0.0,0.0,0.0,0.0,0.0,0.0,0.0,0.0,0.0,0.0,0.0,0.0,0.0,0.0,0.0,0.0,0.0,0.0,0.0,0.0,0.0,0.0,0.0,0.0,0.0,0.0,0.0,0.0,0.0,0.0,0.0,0.0,0.0,0.0,0.0,0.0,0.0,0.0,0.0,0.0,0.0,0.0,0.0,0.0,0.0,0.0,0.0,0.0,0.0,0.0,0.0,0.0,0.0,0.0,0.0,0.0,0.0,0.0,0.0,0.0,0.0,0.0,0.0,0.0,0.0,0.0,0.0,0.0,0.0,0.0,0.0,0.0,0.0,0.0,0.0,0.0,3.6998,3.7254,3.7397,3.7349,3.5687,3.3517,0.0,0.0,0.0,0.0,0.0,0.0,0.0,0.0,0.0,0.0,0.0,0.0,0.0,0.0,0.0,0.0,0.0,0.0,0.0,0.0,0.0,0.0,0.0,0.0,0.0,0.0,0.0,0.0,0.0,0.0,0.0,0.0,0.0,0.0,0.0,0.0,0.0,0.0,0.0,0.0,0.0,0.0,0.0,0.0,0.0,0.0,0.0,0.0,0.0,0.0,0.0,0.0,0.0,0.0,0.0,0.0,0.0,0.0,0.0,0.0,0.0,0.0,0.0,0.0,0.0,0.0,0.0,0.0,0.0,0.0,0.0,0.0,0.0,0.0,0.0,0.0,0.0,0.0,0.0,0.0,0.0,0.0,0.0,0.0,0.0,0.0,0.0,0.0,0.0,0.0,0.0,0.0,0.0,0.0,0.0,0.0,0.0,0.0,0.0,0.0,0.0,0.0,0.0,0.0,0.0,0.0,0.0,0.0,0.0,3.7327,3.8822,3.9393,3.9023,3.74,3.5319,0.0,0.0,0.0,0.0,0.0,0.0,0.0,0.0,0.0,0.0,0.0,0.0,0.0,0.0,0.0,0.0,0.0,0.0,0.0,0.0,0.0,0.0,0.0,0.0,0.0,0.0,0.0,0.0,0.0,0.0,0.0,0.0,0.0,0.0,0.0,0.0,0.0,0.0,0.0,0.0,0.0,0.0,0.0,0.0,0.0,0.0,0.0,0.0,0.0,0.0,0.0,0.0,0.0,0.0,0.0,0.0,0.0,0.0,0.0,0.0,0.0,0.0,0.0,0.0,0.0,0.0,0.0,0.0,0.0,0.0,0.0,0.0,0.0,0.0,0.0,0.0,0.0,0.0,0.0,0.0,0.0,0.0,0.0,0.0,0.0,0.0,0.0,0.0,0.0,0.0,0.0,0.0,0.0,0.0,0.0,0.0,0.0,0.0,0.0,0.0,0.0,0.0,0.0,0.0,0.0,0.0,0.0,0.0,3.4671,3.7641,3.9612,4.0528,4.0384,3.8604,3.6324,0.0,0.0,0.0,0.0,0.0,0.0,0.0,0.0,0.0,0.0,0.0,0.0,0.0,0.0,0.0,0.0,0.0,0.0,0.0,0.0,0.0,0.0,0.0,0.0,0.0,0.0,0.0,0.0,0.0,0.0,0.0,0.0,0.0,0.0,0.0,0.0,0.0,0.0,0.0,0.0,0.0,0.0,0.0,0.0,0.0,0.0,0.0,0.0,0.0,0.0,0.0,0.0,0.0,0.0,0.0,0.0,0.0,0.0,0.0,0.0,0.0,0.0,0.0,0.0,0.0,0.0,0.0,0.0,0.0,0.0,0.0,0.0,0.0,0.0,0.0,0.0,0.0,0.0,0.0,0.0,0.0,0.0,0.0,0.0,0.0,0.0,0.0,0.0,0.0,0.0,0.0,0.0,0.0,0.0,0.0,0.0,0.0,0.0,0.0,0.0,0.0,0.0,0.0,0.0,0.0,0.0,0.0,0.0,3.5324,3.7813,3.9799,4.0948,4.1194,3.9417,3.692,0.0,0.0,0.0,0.0,0.0,0.0,0.0,0.0,0.0,0.0,0.0,0.0,0.0,0.0,0.0,0.0,0.0,0.0,0.0,0.0,0.0,0.0,0.0,0.0,0.0,0.0,0.0,0.0,0.0,0.0,0.0,0.0,0.0,0.0,0.0,0.0,0.0,0.0,0.0,0.0,0.0,0.0,0.0,0.0,0.0,0.0,0.0,0.0,0.0,0.0,0.0,0.0,0.0,0.0,0.0,0.0,0.0,0.0,0.0,0.0,0.0,0.0,0.0,0.0,0.0,0.0,0.0,0.0,0.0,0.0,0.0,0.0,0.0,0.0,0.0,0.0,0.0,0.0,0.0,0.0,0.0,0.0,0.0,0.0,0.0,0.0,0.0,0.0,0.0,0.0,0.0,0.0,0.0,0.0,0.0,0.0,0.0,0.0,0.0,0.0,0.0,0.0,0.0,0.0,0.0,0.0,0.0,0.0,3.4936,3.8034,3.9579,4.0572,4.1051,3.9824,3.7952,0.0,0.0,0.0,0.0,0.0,0.0,0.0,0.0,0.0,0.0,0.0,0.0,0.0,0.0,0.0,0.0,0.0,0.0,0.0,0.0,0.0,0.0,0.0,0.0,0.0,0.0,0.0,0.0,0.0,0.0,0.0,0.0,0.0,0.0,0.0,0.0,0.0,0.0,0.0,0.0,0.0,0.0,0.0,0.0,0.0,0.0,0.0,0.0,3.1136,0.0,0.0,0.0,0.0,0.0,0.0,0.0,0.0,0.0,0.0,0.0,0.0,0.0,0.0,0.0,0.0,0.0,0.0,0.0,0.0,0.0,0.0,0.0,0.0,0.0,0.0,0.0,0.0,0.0,0.0,0.0,0.0,0.0,0.0,0.0,0.0,0.0,0.0,0.0,0.0,0.0,0.0,0.0,0.0,0.0,0.0,0.0,0.0,0.0,0.0,0.0,0.0,0.0,0.0,0.0,0.0,0.0,0.0,0.0,3.4954,3.7839,3.9279,4.0249,4.0709,3.9763,3.8112,0.0,0.0,0.0,0.0,0.0,0.0,0.0,0.0,0.0,0.0,0.0,0.0,0.0,0.0,0.0,0.0,0.0,0.0,0.0,0.0,0.0,0.0,0.0,0.0,0.0,0.0,0.0,0.0,0.0,0.0,0.0,0.0,0.0,0.0,0.0,0.0,0.0,0.0,0.0,0.0,0.0,0.0,0.0,0.0,0.0,0.0,0.0,0.0,0.0,0.0,0.0,0.0,0.0,0.0,0.0,0.0,0.0,0.0,0.0,0.0,0.0,0.0,0.0,0.0,0.0,0.0,0.0,0.0,0.0,0.0,0.0,0.0,0.0,0.0,0.0,0.0,0.0,0.0,0.0,0.0,0.0,0.0,0.0,0.0,0.0,0.0,0.0,0.0,0.0,0.0,0.0,0.0,0.0,0.0,0.0,0.0,0.0,0.0,0.0,0.0,0.0,0.0,0.0,0.0,0.0,0.0,0.0,3.2829,3.5117,3.756,3.8919,3.983,4.0267,3.9317,3.7803,3.5671,0.0,0.0,0.0,0.0,0.0,0.0,0.0,0.0,0.0,0.0,0.0,0.0,0.0,0.0,0.0,0.0,0.0,0.0,0.0,0.0,0.0,0.0,0.0,0.0,0.0,0.0,0.0,0.0,0.0,0.0,0.0,0.0,0.0,0.0,0.0,0.0,0.0,0.0,2.7297,2.9296,0.0,0.0,0.0,0.0,0.0,0.0,0.0,0.0,3.5427,0.0,0.0,0.0,0.0,0.0,0.0,0.0,0.0,0.0,0.0,0.0,0.0,0.0,0.0,0.0,0.0,0.0,0.0,0.0,0.0,0.0,0.0,0.0,0.0,0.0,0.0,0.0,0.0,0.0,0.0,0.0,0.0,0.0,0.0,0.0,0.0,0.0,0.0,0.0,0.0,0.0,0.0,0.0,0.0,0.0,0.0,0.0,0.0,0.0,0.0,0.0,0.0,0.0,0.0,0.0,0.0,3.2278,3.336,3.5168,3.7684,3.8394,3.8936,3.9344,3.8329,3.7014,3.5359,0.0,0.0,0.0,0.0,0.0,0.0,0.0,0.0,0.0,0.0,0.0,0.0,0.0,0.0,0.0,0.0,0.0,0.0,0.0,0.0,0.0,0.0,0.0,0.0,0.0,0.0,0.0,0.0,0.0,0.0,0.0,0.0,0.0,0.0,0.0,0.0,0.0,0.0,0.0,3.1488,3.2447,0.0,0.0,0.0,0.0,0.0,0.0,0.0,0.0,3.5033,0.0,0.0,0.0,0.0,0.0,0.0,0.0,0.0,0.0,0.0,0.0,0.0,0.0,0.0,0.0,0.0,0.0,0.0,0.0,0.0,0.0,0.0,0.0,0.0,0.0,0.0,0.0,0.0,0.0,0.0,0.0,0.0,0.0,0.0,0.0,0.0,0.0,0.0,0.0,0.0,0.0,0.0,0.0,0.0,0.0,0.0,0.0,0.0,0.0,0.0,0.0,0.0,0.0,0.0,0.0,3.28,3.4108,3.5716,3.7685,3.8201,3.8429,3.834,3.7261,3.6013,0.0,0.0,0.0,0.0,0.0,0.0,0.0,0.0,0.0,0.0,0.0,0.0,0.0,0.0,0.0,0.0,0.0,0.0,0.0,0.0,0.0,0.0,0.0,0.0,0.0,0.0,0.0,0.0,0.0,0.0,0.0,0.0,0.0,0.0,0.0,0.0,0.0,0.0,0.0,0.0,3.182,3.2717,3.3158,0.0,0.0,0.0,0.0,0.0,0.0,3.5403,3.5136,0.0,0.0,0.0,0.0,0.0,0.0,0.0,0.0,0.0,0.0,0.0,0.0,0.0,0.0,0.0,0.0,0.0,0.0,0.0,0.0,0.0,0.0,0.0,0.0,0.0,0.0,0.0,0.0,0.0,0.0,0.0,0.0,0.0,0.0,0.0,0.0,0.0,0.0,0.0,0.0,0.0,0.0,0.0,0.0,0.0,0.0,0.0,0.0,0.0,0.0,0.0,0.0,0.0,0.0,0.0,3.3121,3.4715,3.6195,3.7596,3.8068,3.8011,3.7489,3.6366,3.5133,0.0,0.0,0.0,0.0,0.0,0.0,0.0,0.0,0.0,0.0,0.0,0.0,0.0,0.0,0.0,0.0,0.0,0.0,0.0,0.0,0.0,0.0,0.0,0.0,0.0,0.0,0.0,0.0,0.0,0.0,0.0,0.0,0.0,0.0,0.0,0.0,0.0,0.0,0.0,0.0,0.0,3.2897,3.3627,3.2591,0.0,0.0,0.0,0.0,3.4549,3.4867,0.0,0.0,0.0,0.0,0.0,0.0,0.0,0.0,0.0,0.0,0.0,0.0,0.0,0.0,0.0,0.0,0.0,0.0,0.0,0.0,0.0,0.0,0.0,0.0,0.0,0.0,0.0,0.0,0.0,0.0,0.0,0.0,0.0,0.0,0.0,0.0,0.0,0.0,0.0,0.0,0.0,0.0,0.0,0.0,0.0,0.0,0.0,0.0,0.0,0.0,0.0,0.0,0.0,0.0,0.0,0.0,3.3121,3.4715,3.6143,3.7452,3.7739,3.7619,3.708,3.5923,3.4689,0.0,0.0,0.0,0.0,0.0,0.0,0.0,0.0,0.0,0.0,0.0,0.0,0.0,0.0,0.0,0.0,0.0,0.0,0.0,0.0,0.0,0.0,0.0,0.0,0.0,0.0,0.0,0.0,0.0,0.0,0.0,0.0,0.0,0.0,0.0,0.0,0.0,0.0,0.0,0.0,0.0,3.3612,3.3623,3.3217,3.2624,0.0,0.0,3.2353,3.2603,3.3436,0.0,0.0,0.0,0.0,0.0,0.0,0.0,0.0,0.0,0.0,0.0,0.0,0.0,0.0,0.0,0.0,0.0,0.0,0.0,0.0,0.0,0.0,0.0,0.0,0.0,0.0,0.0,0.0,0.0,0.0,0.0,0.0,0.0,0.0,0.0,0.0,0.0,0.0,0.0,0.0,0.0,0.0,0.0,0.0,0.0,0.0,0.0,0.0,0.0,0.0,0.0,0.0,0.0,0.0,0.0,3.0779,3.2996,3.4878,3.6185,3.6851,3.7002,3.6553,3.5492,3.4857,3.3793,0.0,0.0,0.0,0.0,0.0,0.0,0.0,0.0,0.0,0.0,0.0,0.0,0.0,0.0,0.0,0.0,0.0,0.0,0.0,0.0,0.0,0.0,0.0,0.0,0.0,0.0,0.0,0.0,0.0,0.0,0.0,0.0,0.0,0.0,0.0,0.0,0.0,0.0,0.0,0.0,0.0,0.0,3.303,3.267,0.0,0.0,0.0,3.1862,3.2396,0.0,0.0,0.0,0.0,0.0,0.0,0.0,0.0,0.0,0.0,0.0,0.0,0.0,0.0,0.0,0.0,0.0,0.0,0.0,0.0,0.0,0.0,0.0,0.0,0.0,0.0,0.0,0.0,0.0,0.0,0.0,0.0,0.0,0.0,0.0,0.0,0.0,0.0,0.0,0.0,0.0,0.0,0.0,0.0,0.0,0.0,0.0,0.0,0.0,0.0,0.0,0.0,0.0,0.0,0.0,0.0,0.0,3.2962,3.4871,3.5902,3.6036,3.6079,3.5404,3.3982,3.3723,0.0,0.0,0.0,0.0,0.0,0.0,0.0,0.0,0.0,0.0,0.0,0.0,0.0,0.0,0.0,0.0,0.0,0.0,0.0,0.0,0.0,0.0,0.0,0.0,0.0,0.0,0.0,2.7,0.0,0.0,0.0,0.0,0.0,0.0,0.0,0.0,0.0,0.0,0.0,0.0,0.0,0.0,3.2535,3.2807,3.2614,3.2432,0.0,0.0,3.1622,3.2225,3.2109,3.2035,0.0,0.0,0.0,0.0,0.0,0.0,0.0,0.0,0.0,0.0,0.0,0.0,0.0,0.0,0.0,0.0,0.0,0.0,0.0,0.0,0.0,0.0,0.0,0.0,0.0,0.0,0.0,0.0,0.0,0.0,0.0,0.0,0.0,0.0,0.0,0.0,0.0,0.0,0.0,0.0,0.0,0.0,0.0,0.0,0.0,0.0,0.0,0.0,0.0,0.0,0.0,0.0,0.0,0.0,0.0,3.3212,3.446,3.5083,3.5078,3.5054,3.4308,3.2945,3.2704,3.1899,0.0,0.0,0.0,0.0,0.0,0.0,0.0,0.0,0.0,0.0,0.0,0.0,0.0,0.0,0.0,0.0,0.0,0.0,0.0,0.0,0.0,0.0,0.0,0.0,0.0,0.0,0.0,0.0,0.0,0.0,0.0,0.0,0.0,0.0,0.0,0.0,0.0,0.0,0.0,0.0,0.0,3.3232,3.3502,3.3715,3.3636,0.0,0.0,3.1654,3.1594,3.1751,3.1809,3.1559,0.0,0.0,0.0,0.0,0.0,0.0,0.0,0.0,0.0,0.0,0.0,0.0,0.0,0.0,0.0,0.0,0.0,0.0,0.0,0.0,0.0,0.0,0.0,0.0,0.0,0.0,0.0,0.0,0.0,0.0,0.0,0.0,0.0,0.0,0.0,0.0,0.0,0.0,0.0,0.0,0.0,0.0,0.0,0.0,0.0,0.0,0.0,0.0,0.0,0.0,0.0,0.0,0.0,3.1566,3.286,3.424,3.4599,3.3921,3.3678,3.2971,3.1777,3.1739,3.1237,0.0,0.0,0.0,0.0,0.0,0.0,0.0,0.0,0.0,0.0,0.0,0.0,0.0,0.0,0.0,0.0,0.0,0.0,0.0,0.0,0.0,0.0,0.0,0.0,0.0,0.0,0.0,0.0,3.1513,3.2241,3.1981,0.0,0.0,0.0,0.0,0.0,0.0,0.0,0.0,0.0,0.0,3.4144,3.4516,3.4748,0.0,0.0,3.3609,3.3154,3.2568,3.2434,3.2241,3.1852,3.1658,0.0,0.0,0.0,0.0,0.0,0.0,0.0,0.0,0.0,0.0,0.0,0.0,0.0,0.0,0.0,0.0,0.0,0.0,0.0,0.0,0.0,0.0,0.0,0.0,0.0,0.0,0.0,0.0,0.0,0.0,0.0,0.0,0.0,0.0,0.0,0.0,0.0,0.0,0.0,0.0,0.0,0.0,0.0,0.0,0.0,0.0,0.0,0.0,0.0,0.0,0.0,0.0,3.1948,3.2781,3.3974,3.4013,3.2875,3.2427,3.1677,3.0633,3.0552,3.0204,0.0,0.0,0.0,0.0,0.0,0.0,0.0,0.0,0.0,0.0,0.0,0.0,0.0,0.0,0.0,0.0,0.0,0.0,0.0,0.0,0.0,0.0,0.0,0.0,0.0,0.0,0.0,0.0,3.2455,3.2962,3.2124,0.0,0.0,0.0,0.0,0.0,0.0,0.0,0.0,0.0,0.0,3.5231,3.5529,3.5737,3.5642,3.5106,3.4791,3.4339,3.3565,3.31,3.2641,3.2085,0.0,0.0,0.0,0.0,0.0,0.0,0.0,0.0,0.0,0.0,0.0,0.0,0.0,0.0,0.0,0.0,0.0,0.0,0.0,0.0,0.0,0.0,0.0,0.0,0.0,0.0,0.0,0.0,0.0,0.0,3.0764,0.0,0.0,0.0,0.0,0.0,0.0,0.0,0.0,0.0,0.0,0.0,0.0,0.0,0.0,0.0,0.0,0.0,0.0,0.0,0.0,0.0,0.0,3.179,3.3153,3.3612,3.3282,3.2167,3.1435,3.0529,2.9508,2.9191,2.8745,2.809,0.0,0.0,0.0,0.0,0.0,0.0,0.0,0.0,0.0,0.0,0.0,0.0,0.0,0.0,0.0,0.0,0.0,0.0,0.0,0.0,0.0,0.0,0.0,0.0,0.0,0.0,3.2572,3.3306,3.3453,0.0,0.0,0.0,0.0,0.0,0.0,0.0,0.0,0.0,0.0,3.5877,3.6512,3.641,3.6664,3.6662,3.6068,3.5527,3.4978,3.4278,3.3622,3.2915,0.0,0.0,0.0,0.0,0.0,0.0,0.0,0.0,0.0,0.0,0.0,0.0,0.0,0.0,0.0,0.0,0.0,0.0,0.0,0.0,0.0,0.0,0.0,0.0,0.0,0.0,0.0,3.5172,3.4357,0.0,0.0,0.0,0.0,0.0,0.0,0.0,0.0,0.0,0.0,0.0,3.9678,3.8911,0.0,0.0,0.0,0.0,0.0,0.0,0.0,0.0,0.0,0.0,0.0,0.0,3.2106,3.3021,3.338,3.2981,3.1862,3.0984,3.0166,2.9435,2.8964,2.8458,2.7841,0.0,0.0,0.0,0.0,0.0,0.0,0.0,0.0,0.0,0.0,0.0,0.0,0.0,0.0,0.0,0.0,0.0,0.0,0.0,0.0,0.0,0.0,0.0,0.0,0.0,3.3419,0.0,0.0,0.0,0.0,0.0,0.0,0.0,0.0,0.0,0.0,0.0,3.6351,3.6683,3.7386,3.7857,3.7845,3.7783,3.7474,0.0,0.0,0.0,0.0,0.0,0.0,0.0,0.0,0.0,0.0,0.0,0.0,0.0,0.0,3.6793,3.5418,3.5044,3.5122,3.5627,0.0,0.0,0.0,0.0,0.0,0.0,0.0,0.0,0.0,0.0,0.0,0.0,0.0,0.0,0.0,0.0,3.6032,0.0,0.0,0.0,0.0,0.0,0.0,0.0,0.0,3.9615,4.0291,4.1498,4.0975,4.0504,0.0,3.9648,3.7837,0.0,0.0,0.0,0.0,0.0,0.0,0.0,0.0,3.2586,3.3381,3.3494,3.3008,3.1931,3.0999,3.0222,2.9623,2.9108,2.8698,2.8353,2.8124,2.7972,0.0,0.0,0.0,0.0,0.0,0.0,0.0,0.0,0.0,0.0,0.0,0.0,0.0,0.0,0.0,0.0,0.0,0.0,0.0,0.0,0.0,0.0,0.0,3.4797,0.0,0.0,0.0,0.0,0.0,0.0,0.0,0.0,0.0,3.6412,3.7728,3.8773,3.8683,3.9175,3.935,3.8947,0.0,0.0,0.0,0.0,0.0,0.0,0.0,3.515,3.4255,3.4727,3.536,3.5799,3.6669,3.7576,3.8387,0.0,0.0,3.7799,3.7583,3.782,3.8283,3.8797,3.9345,3.9836,4.0192,4.0659,0.0,0.0,0.0,0.0,0.0,0.0,0.0,0.0,4.0189,3.979,0.0,3.8594,0.0,0.0,0.0,0.0,0.0,0.0,0.0,0.0,4.1842,4.2159,4.2868,4.2868,4.2467,4.1848,4.1904,4.0913,3.895,3.6701,0.0,0.0,0.0,0.0,0.0,0.0,3.325,3.4197,3.3973,3.336,3.2415,3.1461,3.069,3.0074,2.959,2.9418,2.9532,2.9653,2.9901,3.0278,2.9857,0.0,0.0,0.0,0.0,0.0,0.0,0.0,0.0,0.0,0.0,0.0,0.0,0.0,0.0,0.0,0.0,0.0,0.0,0.0,0.0,3.5254,0.0,0.0,0.0,0.0,0.0,0.0,0.0,0.0,0.0,0.0,3.9959,4.0661,4.1169,4.0823,0.0,0.0,0.0,0.0,3.8678,3.8214,3.7754,3.7223,3.6527,3.6189,3.5796,3.5109,0.0,0.0,3.8064,3.8743,3.9477,4.0762,4.1143,4.0917,3.9826,4.0075,4.0487,4.059,4.1716,4.2722,4.2876,4.3451,4.4223,4.2405,0.0,0.0,0.0,0.0,4.1255,4.1987,4.3107,4.2632,4.2042,4.1392,4.0954,0.0,0.0,0.0,0.0,0.0,0.0,4.2825,4.438,4.4923,4.5551,4.6229,4.5713,4.5086,4.4354,4.3846,4.2465,4.0326,3.9576,3.7474,3.407,0.0,0.0,0.0,0.0,3.411,3.5226,3.4838,3.4521,3.4388,3.3091,3.1974,3.1113,3.0477,3.0272,3.0489,3.0464,3.0617,3.0855,3.1396,0.0,0.0,0.0,0.0,0.0,0.0,0.0,0.0,0.0,0.0,0.0,0.0,0.0,0.0,0.0,0.0,0.0,0.0,0.0,3.7773,3.8569,3.9154,0.0,0.0,0.0,0.0,0.0,0.0,0.0,0.0,0.0,4.4621,4.401,4.3384,0.0,0.0,4.1822,4.107,4.0205,3.9489,3.9082,0.0,0.0,0.0,3.7792,3.7964,3.7062,3.7783,3.8789,3.9535,4.0168,4.0806,4.1542,4.225,4.2668,4.2392,4.2409,4.2732,4.3308,4.4283,4.5154,4.5665,4.615,4.6577,4.5737,4.3741,4.276,4.2855,4.3722,4.3905,4.4547,4.5467,4.5021,4.4674,4.4387,4.4044,4.3536,4.2984,4.2642,0.0,0.0,0.0,4.5105,4.6161,4.6864,4.7417,4.7815,4.7417,4.6776,4.6014,4.5503,4.4275,4.2345,4.1912,4.0227,3.7344,0.0,0.0,3.4399,3.4593,3.5137,3.5968,3.5926,3.5715,3.5352,3.4219,3.3441,3.3052,3.2654,3.2698,3.3219,3.3243,3.3291,3.3395,3.3864,3.3572,0.0,0.0,0.0,0.0,0.0,0.0,0.0,0.0,0.0,0.0,0.0,3.2276,3.3803,0.0,0.0,0.0,3.7037,3.8318,4.022,4.0925,0.0,0.0,0.0,0.0,0.0,0.0,0.0,4.3692,4.4912,4.6011,4.6836,4.6386,4.5649,4.4713,4.3991,4.3277,4.2538,0.0,4.1087,4.0692,4.0445,4.0053,3.9352,3.9734,3.9914,3.9331,3.9793,4.0526,4.1257,4.1816,4.2299,4.2808,4.3462,4.3942,4.3942,4.4262,4.464,4.5083,4.6124,4.7113,4.762,4.8197,4.8691,4.9086,4.8286,4.6763,4.6129,4.6175,4.6741,4.718,4.7506,4.7318,4.7455,4.783,4.7378,4.6936,4.6434,4.529,0.0,4.6137,4.6466,4.6991,4.7611,4.8146,4.8408,4.8426,4.8356,4.7876,4.7107,4.6952,4.616,4.4704,4.3657,4.2493,4.1157,3.8744,3.7153,3.6431,3.6277,3.6281,3.6467,3.7136,3.6991,3.5966,3.5266,3.5153,3.5531,3.5539,3.5869,3.6663,3.6845,3.6901,3.6859,3.6669,3.6182,3.5328,0.0,0.0,0.0,0.0,0.0,0.0,0.0,0.0,0.0,0.0,0.0,0.0,0.0,0.0,0.0,3.9958,0.0,4.1659,4.276,0.0,0.0,0.0,4.4963,4.5019,4.5687,4.6083,4.5945,0.0,0.0,4.7573,0.0,4.7937,4.6554,4.5797,4.5012,4.398,4.3454,4.3061,4.2604,4.2465,4.2272,4.1846,4.1677,4.1605,4.158,4.1567,4.1886,4.282,4.3363,4.3781,4.4135,4.4575,4.4814,4.4841,4.559,4.6299,4.6167,4.7455,4.8684,4.8957,4.9722,5.0445,5.1291,5.1167,5.0314,4.9206,4.8003,4.8328,4.8838,4.9389,4.9107,4.9036,4.9117,4.8859,4.8918,4.9154,4.8838,4.885,4.9089,4.9662,4.999,5.0068,5.0747,5.1055,5.1019,5.049,4.9715,4.872,4.8092,4.6837,4.5032,4.4113,4.3138,4.2079,4.0839,3.9235,3.7284,3.7223,3.7376,3.7668,3.8091,3.8415,3.8623,3.8066,3.747,3.6954,3.6735,3.6435,3.6135,3.6247,3.6422,3.6676,3.6893,3.6859,3.6441,3.5638,0.0,0.0,0.0,0.0,0.0,0.0,0.0,0.0,0.0,3.7188,3.8173,0.0,4.1524,0.0,4.3255,4.4606,4.5473,4.5966,0.0,0.0,4.7598,4.8023,4.8583,4.9332,4.9755,4.963,5.0322,5.0748,5.0522,5.0454,5.0223,4.9704,4.7542,4.5819,4.5347,4.4458,4.3787,4.3633,4.3433,4.3101,4.2928,4.2763,4.2864,4.3177,4.3132,4.3171,4.3443,4.3844,4.4207,4.4418,4.4824,4.5113,4.523,4.6152,4.7117,4.7762,4.8624,4.946,5.0155,5.0867,5.1339,5.3093,5.3095,5.2656,5.1696,5.0437,4.9996,5.0165,5.0724,5.0558,5.0588,5.0738,5.0408,5.0475,5.0802,5.0435,5.0271,5.0387,5.0976,5.1185,5.1176,5.186,5.2179,5.2179,5.177,5.0906,4.9652,4.9167,4.8012,4.6239,4.5307,4.4414,4.3501,4.2613,4.1169,3.9203,3.865,3.8579,3.8905,3.9292,3.9837,4.048,3.9828,3.9199,3.8672,3.8497,3.8222,3.7799,3.7842,3.7998,3.8254,3.8219,3.8312,3.8584,3.783,3.7006,0.0,0.0,0.0,0.0,0.0,0.0,0.0,0.0,0.0,0.0,0.0,4.3889,4.5061,4.6194,4.7245,4.8173,4.8759,4.9327,4.9879,5.0361,5.0798,5.1186,5.1624,5.1845,5.1689,5.1903,5.197,5.1709,5.1467,5.1269,5.1081,4.9554,4.8127,4.7263,4.6275,4.5535,4.5336,4.5221,4.4976,4.4666,4.4474,4.439,4.451,4.4395,4.4271,4.4316,4.4519,4.4769,4.4971,4.5292,4.5606,4.5752,4.6435,4.7413,4.8671,4.9415,5.0108,5.1022,5.1626,5.1988,5.462,5.4589,5.4305,5.3749,5.2988,5.1714,5.1376,5.1694,5.1701,5.1946,5.2284,5.1805,5.1748,5.1919,5.1122,5.0832,5.095,5.1438,5.1643,5.1657,5.2241,5.2522,5.2504,5.254,5.1728,5.0243,5.0148,4.9295,4.7677,4.6716,4.589,4.5145,4.406,4.2907,4.1655,4.0408,3.9921,4.0194,4.0583,4.1161,4.1905,4.118,4.0655,4.0455,4.0328,4.0256,4.0201,4.0075,4.0148,4.0366,3.9891,4.0024,4.0864,3.9884,3.9351,0.0,3.9693,0.0,0.0,0.0,0.0,0.0,0.0,0.0,0.0,4.4978,4.6171,4.8554,4.8991,4.9441,5.0227,5.1123,5.1761,5.1935,5.2644,5.3127,5.3211,5.323,5.3171,5.2958,5.2824,5.2645,5.2397,5.2109,5.1942,5.1859,5.1528,5.0785,4.9604,4.8457,4.7611,4.7431,4.7276,4.6852,4.6575,4.6252,4.5922,4.5732,4.5442,4.5294,4.5302,4.5345,4.5407,4.5684,4.5945,4.6168,4.6315,4.6795,4.7792,4.9465,5.021,5.0878,5.1746,5.2278,5.2613,5.6143,5.6206,5.5662,5.5108,5.4508,5.3616,5.2798,5.2108,5.232,5.2568,5.2831,5.2769,5.2779,5.2926,5.2739,5.2684,5.2724,5.281,5.2862,5.2862,5.3038,5.3133,5.3133,5.3256,5.2432,5.0905,5.0831,4.9927,4.8233,4.7407,4.6855,4.656,4.5095,4.4218,4.3889,0.0,0.0,0.0,4.1844,4.2314,4.3203,4.2937,4.2429,4.1755,4.1047,0.0,4.0648,4.0048,4.0063,4.0821,4.0859,0.0,0.0,0.0,0.0,0.0,0.0,0.0,0.0,0.0,0.0,0.0,4.7667,4.789,4.6819,4.8602,5.0358,5.1638,5.1871,5.2031,5.2282,5.2521,5.295,5.3698,5.3985,5.4342,5.491,5.5048,5.5013,5.4817,5.4707,5.4571,5.4288,5.416,5.3943,5.3665,5.3112,5.2542,5.2121,5.0396,4.9224,4.9072,4.8397,4.7752,4.7569,4.7234,4.6892,4.671,4.6442,4.6238,4.6116,4.6109,4.614,4.631,4.656,4.6822,4.7156,4.7948,4.8971,5.0266,5.1307,5.2143,5.2731,5.3075,5.3341,5.6974,0.0,5.6509,5.6137,0.0,5.4726,5.3935,5.3405,5.2974,5.2937,5.3151,5.3233,5.3295,5.3355,5.3355,5.3355,5.3355,5.3355,5.3357,5.34,5.3442,5.3504,5.3621,5.3661,5.2864,5.1324,5.1323,5.0468,4.889,4.8424,4.8017,4.752,4.6654,4.6042,4.5616,4.4886,4.3841,4.247,4.2871,4.3308,4.3777,4.3714,4.3258,4.2465,0.0,0.0,0.0,0.0,0.0,0.0,0.0,0.0,0.0,0.0,0.0,4.465,4.5603,4.6194,4.6342,4.8291,4.9563,4.9641,5.1247,5.1429,4.9518,5.0983,5.238,5.329,5.3465,5.3721,5.4181,5.4273,5.4479,5.4924,5.5015,5.5207,5.553,5.5629,5.5596,5.548,5.5395,5.5275,5.5107,5.4933,5.4799,5.4676,5.4258,5.3911,5.368,5.1998,5.0489,5.0063,4.951,4.8882,4.8476,4.812,4.7809,4.7668,4.7416,4.7198,4.7021,4.695,4.699,4.712,4.7335,4.7663,4.8345,4.905,4.9987,5.1379,5.227,5.3028,5.3683,5.3907,5.3907,5.7553,5.7504,5.7235,5.7022,5.6805,5.5676,5.5114,5.4911,0.0,0.0,0.0,5.3501,5.3559,5.3559,5.3541,5.3559,5.3559,5.3541,5.3582,5.3642,5.3681,5.3795,5.3962,5.3999,5.3286,5.1969,5.1846,5.1035,4.9643,4.9474,4.908,4.8457,4.8156,4.7634,4.6881,4.6825,4.5743,4.3662,4.4172,4.451,4.4544,4.4526,4.4209,4.3539,4.3405,4.3103,4.2592,4.2443,4.2766,4.36,4.3765,4.4496,4.5913,4.6365,4.6999,4.789,4.8905,4.9553,4.9736,5.1255,5.223,5.2376,5.3744,5.3836,5.2207,5.2874,5.3752,5.4582,5.4794,5.5138,5.5772,5.5893,5.5868,5.5722,5.5684,5.5684,5.5684,5.5684,5.5662,5.5626,5.5551,5.548,5.5326,5.5229,5.5135,5.5085,5.4943,5.4956,5.4722,5.3227,5.1661,5.0954,5.0478,5.0054,4.9482,4.8974,4.8708,4.853,4.8329,4.8139,4.8003,4.7882,4.7879,4.7979,4.8228,4.8786,4.9546,5.0231,5.1128,5.2623,5.3222,5.3701,5.4496,5.4657,5.4495,5.8106,5.8088,5.8227,5.7873,5.7246,5.713,5.673,5.6028,5.427,5.3525,5.3563,5.3698,5.3774,5.3755,5.3756,5.3774,5.3774,5.3774,5.3775,0.0,5.4035,5.4161,5.4264,5.4416,5.4056,5.3229,5.2507,5.1687,5.087,5.0151,4.9735,4.9565,4.8945,4.8183,4.7382,4.7294,4.7123,4.6743,4.6515,4.6461,4.6573,4.6573,4.6536,4.6386,4.5725,4.5697,4.6309,4.5632,4.5711,4.6538,4.6677,4.6883,4.7258,4.808,4.8943,4.9924,5.0822,5.1641,5.2364,5.344,5.4339,5.5055,5.5374,5.5042,5.4047,5.4733,5.5593,5.641,5.6544,5.6665,5.6799,5.6799,5.6503,5.5838,5.5703,5.5684,5.5684,5.5684,5.5662,5.5607,5.5604,5.5562,5.548,5.5408,5.5339,5.5333,5.5249,5.5229,5.5037,5.4159,5.3032,5.216,5.1374,5.0877,5.0519,4.9901,4.9449,4.934,4.9099,4.8915,4.8847,4.8709,4.8693,4.8818,4.9372,4.9996,5.0478,5.1699,5.2685,5.3486,5.4095,5.4762,5.5102,5.5151,5.5164,5.8356,5.84,5.864,5.8581,5.827,5.8034,5.749,5.6738,5.5914,5.5226,5.4652,5.4313,5.4197,5.4231,5.4197,5.4198,5.4198,5.4198,5.4213,5.4281,5.4446,5.461,5.4735,5.4855,5.4539,5.3843,5.3424,5.281,5.2012,5.1212,5.0799,5.0774,4.998,4.9352,4.9003,4.8983,4.8983,4.8952,4.7761,4.7159,4.7224,4.7224,4.7224,4.7224,4.6868,4.6889,4.7307,4.6999,4.7429,4.877,4.8846,4.934,5.0376,5.0887,5.135,5.1853,5.2722,5.3396,5.3782,5.4622,5.5259,5.5684,5.6145,5.6231,5.5791,5.6121,5.6536,5.692,5.7385,5.7703,5.7703,5.7291,5.683,5.6464,5.6002,5.5703,5.5684,5.5684,5.5692,5.5651,5.5651,5.564,5.5607,5.5551,5.5485,5.5504,5.5456,5.5408,5.5408,5.4976,5.4306,5.3451,5.2924,5.227,5.1488,5.0968,5.0453,4.9995,4.974,4.9575,4.9502,4.9367,4.9512,4.9925,5.0419,5.1111,5.1926,5.2914,5.3727,5.4443,5.4833,5.5249,5.5376,5.5512,5.5546,5.864,5.8702,5.9004,5.9215,5.9251,5.8878,5.8351,5.7816,5.7652,5.7153,5.6347,5.5333,5.4834,5.4707,5.4645,5.4632,5.4632,5.4632,5.4661,5.4735,5.487,5.5,5.5162,5.5223,5.4963,5.4421,5.4242,5.3783,5.3095,5.231,5.1832,5.1603,5.096,5.0539,5.0356,5.0348,5.0348,5.026,4.8874,4.808,4.8061,4.8061,4.8061,4.8042,4.8111,4.8147,4.816,4.8391,4.9155,5.0462,5.0741,5.1484,5.2832,5.3184,5.3355,5.3486,5.4278,5.4857,5.5088,5.5626,5.6088,5.628,5.6915,5.7311,5.73,5.7484,5.7561,5.7638,5.8184,5.8569,5.8511,5.8011,5.7426,5.7041,5.6426,5.5934,5.5742,5.5684,5.5714,5.5705,5.5724,5.5735,5.5705,5.5673,5.5629,5.5607,5.5573,5.5551,5.5551,5.5551,5.5221,5.4702,5.4317,5.3656,5.2387,5.1801,5.1338,5.0634,5.0283,5.007,4.9961,5.0009,5.0315,5.0932,5.1499,5.2265,5.3451,5.4068,5.4562,5.5179,5.5394,5.5497,5.5673,5.5808,5.5837,5.9063,5.9234,5.9436,5.9681,5.9877,5.9893,5.987,5.9754,5.914,5.8868,5.8547,5.6892,5.5683,5.5109,5.5071,5.5076,5.5038,5.5052,5.5061,5.5143,5.521,5.5307,5.5364,5.5444,5.5442,5.5262,5.466,5.4308,5.4135,5.3288,5.2521,5.1861,5.1708,5.1294,5.0604,5.0528,5.0508,5.0489,5.0295,5.0152,5.0049,5.0038,5.0018,5.0018,5.003,5.0073,5.0138,5.0906,5.14,5.1686,5.2357,5.285,5.3155,5.3829,5.4304,5.4404,5.5126,5.5915,5.6656,5.6849,5.7195,5.7953,5.8088,5.8165,5.8234,5.8838,5.9261,5.9261,5.9338,5.9377,5.9396,5.9242,5.8569,5.7368,5.6945,5.6579,5.5925,5.5684,5.5724,5.5776,5.5787,5.5816,5.5856,5.5807,5.5756,5.5695,5.5684,5.5692,5.5673,5.5716,5.5717,5.5455,5.4927,5.4338,5.379,5.2705,5.2045,5.1659,5.0952,5.0646,5.0707,5.1054,5.1508,5.1923,5.2736,5.369,5.4148,5.4707,5.5303,5.5511,5.5673,5.5737,5.5913,5.6067,5.6079,5.947,5.9609,5.9815,6.0057,6.0299,6.037,6.0406,6.0376,6.0089,5.9715,5.9274,5.8483,5.7398,5.611,5.6071,5.5759,5.5281,5.532,5.5358,5.5376,5.5527,5.5607,5.566,5.5716,5.5738,5.5738,5.5401,5.5267,5.5102,5.4339,5.346,5.2698,5.2641,5.2448,5.2122,5.2103,5.2103,5.2103,5.2103,5.2082,5.1894,5.0966,5.0664,5.1124,5.1196,5.1448,5.196,5.2395,5.2839,5.3351,5.3716,5.4111,5.4613,5.4979,5.5182,5.5261,5.5992,5.6629,5.7026,5.7499,5.7934,5.8351,5.8832,5.9121,5.9179,5.9901,6.0402,6.0371,6.0327,6.0281,6.0223,5.9819,5.9204,5.8473,5.7618,5.6879,5.6592,5.6064,5.5787,5.5847,5.5856,5.5875,5.5932,5.5885,5.5856,5.5827,5.5808,5.5826,5.5826,5.5847,5.5856,5.5818,5.5509,5.5094,5.4592,5.3994,5.3301,5.281,5.2404,5.2113,5.2052,5.2209,5.2606,5.3043,5.3813,5.4519,5.5005,5.5273,5.5673,5.5808,5.5958,5.6035,5.6109,5.6226,5.6281,6.0099,6.0038,6.0184,6.0379,6.0565,6.0655,6.068,6.068,6.0704,6.0368,5.9869,5.9876,5.9075,5.7681,5.7102,5.6376,5.562,5.5588,5.5621,5.5643,5.5788,5.5847,5.5866,5.5902,5.5919,5.5956,5.5956,5.5938,5.5854,5.5258,5.4458,5.3696,5.358,5.3484,5.3272,5.3262,5.3253,5.3234,5.3243,5.3253,5.307,5.1961,5.1563,5.2118,5.2178,5.2487,5.3093,5.3393,5.3837,5.4472,5.4684,5.5098,5.5667,5.5724,5.5831,5.6122,5.6701,5.73,5.7803,5.8402,5.8847,5.9147,5.9775,6.0094,6.0181,6.0664,6.1011,6.1021,6.098,6.0888,6.0781,6.0288,5.9865,5.9549,5.8393,5.7702,5.7474,5.6714,5.6271,5.6286,5.6147,5.601,5.6035,5.6018,5.5973,5.5938,5.5931,5.5923,5.5932,5.5929,5.5965,5.599,5.6044,5.5777,5.5118,5.4675,5.4385,5.3972,5.3512,5.3157,5.3331,5.3329,5.3538,5.3893,5.4462,5.4906,5.54,5.5721,5.5933,5.599,5.6182,5.6356,5.6261,5.6368,5.6558,6.1053,6.0504,6.061,6.0654,6.0717,6.0816,6.09,6.088,6.0955,6.0931,6.0866,6.0876,6.0442,5.9466,5.7989,5.6744,5.5962,5.5933,5.5941,5.5958,5.5995,5.5982,5.5985,5.5993,5.6036,5.6102,5.6102,5.6083,5.5993,5.5882,5.5402,5.4593,5.4535,5.4168,5.3628,5.357,5.3435,5.357,5.357,5.3474,5.3455,5.3339,5.3244,5.3213,5.3135,5.3183,5.3356,5.403,5.4491,5.453,5.5214,5.5677,5.5787,5.5835,5.6222,5.6966,5.7207,5.7969,5.9331,5.9659,6.0035,6.075,6.0876,6.1001,6.093,6.1036,6.112,6.1164,6.1164,6.1106,6.1021,6.0864,6.0515,5.9869,5.9628,5.9137,5.851,5.7726,5.7323,5.723,5.6721,5.6373,5.6257,5.6192,5.6136,5.6052,5.602,5.6012,5.6028,5.6052,5.6105,5.6168,5.622,5.6194,5.5924,5.5451,5.4975,5.47,5.4309,5.3672,5.3737,5.3916,5.4332,5.4728,5.5229,5.5596,5.5817,5.6023,5.618,5.6375,5.6653,5.6747,5.7026,5.665,5.6892,6.1345,6.0724,6.0788,6.0846,6.0891,6.0929,6.096,6.0971,6.1022,6.1069,6.1097,6.115,6.0727,5.9894,5.9339,5.8227,5.6897,5.6889,5.6649,5.618,5.6165,5.62,5.6194,5.6233,5.6263,5.6294,5.6314,5.624,5.6141,5.6056,5.5863,5.5562,5.5495,5.5341,5.5098,5.5051,5.5051,5.5051,5.5051,5.5051,5.5021,5.507,5.5033,5.4958,5.44,5.4362,5.4901,5.5229,5.5402,5.5402,5.5682,5.5847,5.5924,5.6444,5.6896,5.7327,5.8312,5.9218,5.9869,6.0456,6.0898,6.1221,6.1283,6.1356,6.1301,6.1276,6.1297,6.1311,6.133,6.1296,6.1252,6.1175,6.0991,6.0624,6.0132,5.9772,5.939,5.8715,5.8222,5.8215,5.7667,5.7175,5.6995,5.6672,5.6319,5.6263,5.62,5.6188,5.6213,5.6257,5.6286,5.6329,5.6387,5.6405,5.6338,5.6053,5.5753,5.5696,5.5456,5.5305,5.528,5.5114,5.5401,5.5376,5.5851,5.5952,5.6067,5.6647,5.6763,5.706,5.7322,5.7726,5.8139,5.7807,5.8073,6.1997,6.1354,6.1362,6.1241,6.1041,6.106,6.1079,6.1115,6.1173,6.1202,6.1232,6.1329,6.1046,6.0577,6.0578,5.9783,5.8338,5.8046,5.7489,5.673,5.6731,5.6762,5.6782,5.6834,5.7006,5.7186,5.6979,5.6797,5.6638,5.6324,5.6146,5.6079,5.6064,5.6075,5.6056,5.6056,5.6075,5.6075,5.6075,5.6056,5.6056,5.6075,5.6075,5.597,5.5446,5.5358,5.5894,5.5933,5.5933,5.5932,5.5929,5.6072,5.6444,5.7044,5.7653,5.8257,5.9316,6.0167,6.054,6.1298,6.1804,6.1874,6.2132,6.2266,6.2268,6.205,6.1904,6.1856,6.1602,6.1486,6.1476,6.1398,6.1311,6.1174,6.0697,6.0429,6.0434,5.9724,5.9207,5.8909,5.848,5.8083,5.7735,5.7198,5.6796,5.6496,5.6381,5.6372,5.6377,5.6405,5.6426,5.6432,5.6472,5.6489,5.6489,5.6322,5.6199,5.6158,5.6076,5.6203,5.6233,5.6148,5.6097,5.6106,5.6121,5.6139,5.6479,5.7118,5.7533,5.7814,5.8219,5.8613,5.8856,5.9018,5.9219,6.3098,6.2374,6.2366,6.1929,6.1305,6.1317,6.1295,6.1303,6.1383,6.1419,6.1465,6.1495,6.148,6.151,6.1419,6.103,6.0155,5.9384,5.8568,5.7775,5.7705,5.7726,5.7791,5.7794,5.8153,5.8788,5.8181,5.7765,5.7666,5.6958,5.655,5.6419,5.6485,5.6492,5.6253,5.6337,5.6272,5.6253,5.6253,5.6291,5.6233,5.6395,5.6473,5.6388,5.633,5.6289,5.6181,5.6087,5.6007,5.602,5.6094,5.6513,5.7358,5.7709,5.8388,5.967,6.0197,6.0711,6.1461,6.2299,6.279,6.2886,6.3538,6.3846,6.3735,6.3276,6.2892,6.28,6.224,6.1774,6.1791,6.1685,6.1568,6.142,6.127,6.1287,6.1217,6.0779,6.0028,5.9444,5.918,5.8734,5.8128,5.7734,5.7394,5.686,5.6562,5.6484,5.65,5.6484,5.6499,5.6495,5.6518,5.6538,5.6567,5.6591,5.6536,5.6475,5.6381,5.6379,5.6378,5.6308,5.6269,5.6264,5.6257,5.6311,5.6865,5.7501,5.8089,5.8449,5.8935,5.9528,5.9763,5.9961,6.0019,6.4073,6.3372,6.3413,6.2967,6.2255,6.227,6.2009,6.1484,6.151,6.1564,6.1568,6.1625,6.1643,6.1674,6.1666,6.1516,6.1248,6.0905,6.0054,5.8878,5.8668,5.8675,5.8683,5.8689,5.885,5.9026,5.8861,5.8692,5.8599,5.8283,5.8157,5.8163,5.8111,5.7804,5.7259,5.724,5.6982,5.6456,5.6948,5.724,5.7298,5.7824,5.8121,5.814,5.814,5.8111,5.8017,5.688,5.6252,5.6265,5.6776,5.7528,5.8418,5.9124,5.9692,6.0262,6.1448,6.2145,6.2486,6.3254,6.3764,6.3812,6.4094,6.4221,6.4267,6.4039,6.3868,6.3792,6.3108,6.2601,6.2503,6.2034,6.1761,6.1565,6.1537,6.1561,6.1552,6.1364,6.1176,6.0879,6.0357,5.9888,5.9419,5.8814,5.7875,5.7443,5.6973,5.6621,5.6582,5.6561,5.6567,5.6574,5.6573,5.655,5.6571,5.6567,5.6534,5.6502,5.6484,5.6446,5.6441,5.6453,5.6402,5.6534,5.6533,5.68,5.7349,5.8004,5.8669,5.9463,6.0212,6.0604,6.0839,6.0879,6.082,6.5093,6.4396,6.4429,6.4004,6.3297,6.3312,6.305,6.2531,6.2242,6.212,6.2093,6.1811,6.1701,6.1707,6.1709,6.1712,6.1715,6.1715,6.1127,6.0104,5.9675,5.96,5.966,5.9937,6.0074,5.9976,5.9738,5.9577,5.9553,5.9209,5.9036,5.902,5.903,5.877,5.8269,5.821,5.7898,5.7547,5.7957,5.821,5.8327,5.8756,5.9029,5.9033,5.9029,5.9017,5.8946,5.7896,5.7336,5.7385,5.7864,5.8593,5.9456,6.0028,6.0606,6.14,6.2249,6.3035,6.3431,6.4232,6.4724,6.4747,6.5044,6.5283,6.5207,6.5073,6.4781,6.4684,6.4,6.3492,6.3395,6.3063,6.2667,6.2617,6.2,6.1705,6.1651,6.1681,6.169,6.1498,6.1188,6.0797,6.0192,5.9684,5.8512,5.8043,5.7438,5.6852,5.6754,5.6616,5.6598,5.6597,5.6573,5.655,5.655,5.6522,5.6489,5.6499,5.6489,5.6481,5.6469,5.648,5.6472,5.6972,5.7143,5.7564,5.8104,5.8982,5.9737,6.0603,6.1152,6.1289,6.1348,6.1426,6.1406,6.6137,6.5421,6.5468,6.5008,6.4314,6.4261,6.4177,6.4079,6.3417,6.3071,6.2902,6.2398,6.2009,6.1932,6.2128,6.207,6.1797,6.1875,6.1875,6.1504,6.1015,6.0624,6.0585,6.1094,6.1367,6.1348,6.078,6.0486,6.0427,5.9814,5.926,5.9452,5.9503,5.9245,5.9183,5.9165,5.9068,5.889,5.9068,5.9165,5.9185,5.9321,5.936,5.9399,5.9419,5.9458,5.946,5.9308,5.9169,5.9075,5.9097,5.9592,6.036,6.0563,6.1406,6.2815,6.3094,6.3662,6.4366,6.5167,6.5657,6.57,6.6247,6.6893,6.6582,6.6015,6.5664,6.5625,6.4883,6.4375,6.4375,6.414,6.4101,6.4043,6.2925,6.2161,6.1813,6.1853,6.1874,6.1758,6.166,6.1426,6.0664,6.0371,5.9531,5.8633,5.8047,5.7441,5.7011,5.6814,5.6618,5.6555,5.6545,5.6511,5.6502,5.6423,5.6395,5.6383,5.6406,5.641,5.6471,5.6496,5.6734,5.7237,5.7788,5.8273,5.8918,5.9708,6.0325,6.0819,6.125,6.1582,6.1699,6.1699,6.1699,6.6613,6.6405,6.6439,6.5941,6.5225,6.5194,6.487,6.433,6.4097,6.3962,6.3887,6.375,6.3515,6.3594,6.3535,6.3281,6.2773,6.2656,6.2656,6.2617,6.2461,6.1933,6.1484,6.1582,6.1738,6.1699,6.1504,6.1367,6.1347,6.1015,6.0918,6.101,6.0873,6.0616,6.0163,6.0065,5.9694,5.9302,5.9772,6.0046,6.0163,6.0669,6.1001,6.102,6.0962,6.0965,6.1008,6.1013,6.0679,6.0083,6.0044,6.079,6.2082,6.228,6.275,6.3769,6.4512,6.4961,6.5332,6.6015,6.6504,6.6562,6.6816,6.6894,6.6894,6.6699,6.6543,6.6406,6.5781,6.5273,6.5156,6.4726,6.4433,6.4258,6.3887,6.3359,6.2812,6.2636,6.2461,6.1855,6.1738,6.1543,6.1289,6.0801,6.0254,5.9609,5.8769,5.7929,5.7596,5.7123,5.7001,5.6612,5.6494,5.6469,5.641,5.6325,5.6272,5.6255,5.6269,5.6294,5.6382,5.648,5.687,5.7385,5.8048,5.8572,5.9405,6.0241,6.069,6.111,6.1385,6.1717,6.1699,6.1699,6.1699,6.6832,6.6838,6.6842,6.6552,6.6126,6.6129,6.5857,6.539,6.4999,6.4863,6.4785,6.4433,6.4297,6.4297,6.4277,6.4023,6.3574,6.3535,6.3535,6.3535,6.3515,6.3242,6.289,6.2793,6.2617,6.2265,6.2246,6.2012,6.1738,6.1699,6.1699,6.164,6.1698,6.1424,6.0994,6.0934,6.0703,6.0368,6.072,6.0934,6.1013,6.1423,6.1618,6.1696,6.1716,6.1717,6.1718,6.2031,6.1992,6.1599,6.156,6.2127,6.3339,6.3554,6.3945,6.4785,6.5351,6.5703,6.6152,6.664,6.6855,6.6972,6.7168,6.7207,6.709,6.7168,6.7402,6.6855,6.6406,6.6211,6.6074,6.5664,6.543,6.5469,6.539,6.4883,6.3691,6.3183,6.2812,6.2344,6.1953,6.1699,6.1699,6.1211,6.082,6.0351,5.9629,5.8963,5.8453,5.7896,5.7408,5.7122,5.682,5.6807,5.6497,5.6317,5.6289,5.626,5.649,5.6451,5.6556,5.6697,5.7142,5.7704,5.8306,5.9018,5.9872,6.0603,6.1076,6.1444,6.1649,6.1715,6.1717,6.1699,6.1699,6.7162,6.7165,6.7166,6.7167,6.7207,6.7187,6.7109,6.6855,6.625,6.5859,6.5625,6.4941,6.4844,6.457,6.4902,6.457,6.4453,6.4433,6.4433,6.4492,6.459,6.4609,6.4551,6.4082,6.3691,6.3223,6.3144,6.2773,6.2363,6.207,6.1894,6.1914,6.1836,6.1699,6.1562,6.1601,6.168,6.1523,6.1484,6.1543,6.1543,6.166,6.1699,6.1719,6.1973,6.1973,6.2148,6.2637,6.3125,6.3262,6.3203,6.3535,6.4277,6.4433,6.4883,6.5527,6.584,6.6152,6.6699,6.6836,6.6894,6.6992,6.7558,6.7754,6.7187,6.7422,6.7519,6.6953,6.6894,6.6777,6.6758,6.6777,6.668,6.6582,6.6738,6.6094,6.4863,6.373,6.3105,6.293,6.2207,6.1797,6.1699,6.164,6.1406,6.0918,6.0273,5.9723,5.9224,5.8734,5.8266,5.7856,5.7564,5.725,5.6793,5.6315,5.6317,5.6362,5.6751,5.6896,5.703,5.7207,5.7569,5.8084,5.8901,5.9608,6.0307,6.0937,6.14,6.1573,6.1651,6.1686,6.1714,6.1718,6.1699,6.8886,6.8945,6.8886,6.8906,6.8926,6.8887,6.8496,6.791,6.7715,6.7226,6.6699,6.6426,6.6328,6.6308,6.623,6.5996,6.5371,6.5332,6.5332,6.541,6.6094,6.6308,6.5976,6.5078,6.4277,6.4043,6.4023,6.3887,6.3574,6.2988,6.2715,6.2656,6.2207,6.1738,6.1816,6.1933,6.1719,6.1719,6.1777,6.1855,6.1875,6.1875,6.1875,6.1914,6.2402,6.2715,6.289,6.3574,6.4336,6.4687,6.4512,6.4512,6.5137,6.5312,6.5703,6.6308,6.6582,6.6719,6.6875,6.7012,6.6933,6.7109,6.7324,6.7109,6.6972,6.7129,6.7168,6.6894,6.6894,6.6894,6.6894,6.6894,6.6894,6.6894,6.6875,6.6738,6.6172,6.4941,6.3867,6.3086,6.2324,6.1719,6.1719,6.1699,6.1523,6.1328,6.0916,6.0403,5.9991,5.958,5.9118,5.8696,5.8408,5.8036,5.7284,5.6838,5.6705,5.6802,5.7158,5.7621,5.7738,5.8071,5.8543,5.9029,5.9603,6.0215,6.0635,6.1078,6.1495,6.1557,6.1621,6.1642,6.1678,6.1691,6.1717,6.9433,6.9492,6.9472,6.9472,6.9472,6.9414,6.916,6.8828,6.8769,6.8535,6.8183,6.8086,6.7871,6.7519,6.7461,6.7012,6.6367,6.6211,6.6211,6.6289,6.668,6.6855,6.6816,6.6015,6.5371,6.5019,6.4922,6.4726,6.4258,6.3906,6.3613,6.3613,6.3105,6.3066,6.291,6.2851,6.2988,6.2988,6.293,6.291,6.291,6.291,6.291,6.2949,6.3359,6.3613,6.3672,6.4453,6.5078,6.5449,6.5547,6.5683,6.6094,6.6211,6.6465,6.6816,6.7344,6.748,6.7539,6.7851,6.8125,6.8066,6.8105,6.7851,6.7656,6.7519,6.7265,6.7012,6.6894,6.6894,6.6894,6.6894,6.6894,6.6894,6.6894,6.6894,6.6699,6.5703,6.457,6.3711,6.291,6.2207,6.1914,6.1797,6.168,6.1504,6.1477,6.1016,6.0942,6.053,6.0013,5.9578,5.9282,5.879,5.7941,5.7446,5.7251,5.7414,5.7732,5.8322,5.876,5.9196,5.9684,5.9902,5.9971,6.0271,6.0688,6.1149,6.1485,6.1514,6.1556,6.1591,6.1624,6.1627,6.1662,6.9824,6.9882,6.9882,6.9883,6.9863,6.9863,6.9785,6.9609,6.9589,6.9472,6.9433,6.9433,6.873,6.8281,6.8105,6.7676,6.707,6.6855,6.6738,6.6797,6.6816,6.6894,6.6816,6.666,6.6367,6.582,6.5781,6.543,6.498,6.457,6.4512,6.4453,6.4277,6.4023,6.418,6.4258,6.4082,6.4023,6.4004,6.4043,6.4082,6.4101,6.4082,6.4082,6.4394,6.4492,6.4668,6.5273,6.582,6.584,6.6504,6.6816,6.6894,6.6894,6.6894,6.6933,6.7461,6.7793,6.8086,6.8613,6.9043,6.9414,6.9433,6.9004,6.8379,6.8027,6.7656,6.7187,6.6894,6.6894,6.6894,6.6894,6.6894,6.6894,6.6894,6.6894,6.6777,6.6211,6.5469,6.457,6.3496,6.2578,6.2148,6.1914,6.1797,6.1715,6.1683,6.1635,6.1521,6.1306,6.0694,6.0353,6.0055,5.9503,5.8687,5.7972,5.7783,5.8201,5.8481,5.9009,5.9649,6.0121,6.0384,6.0076,6.0157,6.053,6.0828,6.1154,6.1396,6.1452,6.1482,6.1515,6.1545,6.1586,6.1607,7.1574,7.1574,7.1574,7.1574,7.1574,7.1554,7.1085,7.0558,7.048,7.0066,6.9532,6.9415,6.9044,6.8402,6.8148,6.7682,6.7276,6.7178,6.7042,6.7004,6.6984,6.6984,6.6888,6.689,6.6755,6.6737,6.6601,6.6406,6.6172,6.5801,6.543,6.5234,6.4765,6.4473,6.4512,6.4336,6.4551,6.4648,6.4609,6.459,6.457,6.457,6.457,6.4629,6.5098,6.5351,6.5547,6.6172,6.668,6.6699,6.6836,6.6875,6.6894,6.6894,6.6894,6.6972,6.7207,6.7676,6.8164,6.8437,6.8847,6.9258,6.957,6.914,6.8535,6.8164,6.7754,6.7187,6.6894,6.6894,6.6894,6.6894,6.6894,6.6894,6.6894,6.6894,6.6855,6.666,6.6269,6.5449,6.416,6.3027,6.2753,6.2359,6.2061,6.1893,6.1713,6.1604,6.145,6.1337,6.1062,6.0885,6.0787,6.0151,5.9457,5.8745,5.8388,5.9031,5.9432,5.9766,6.0344,6.0885,6.1019,6.0696,6.0692,6.1057,6.1265,6.1304,6.1343,6.1441,6.1434,6.1421,6.1443,6.1446,6.148,7.1946,7.1967,7.1948,7.1948,7.1965,7.1948,7.1709,7.1353,7.1312,7.107,7.0746,7.0584,7.0154,6.9533,6.9386,6.8945,6.8284,6.8149,6.7896,6.7603,6.7466,6.7197,6.6928,6.6875,6.6841,6.6824,6.6829,6.6873,6.6875,6.6504,6.625,6.6211,6.5801,6.5644,6.5664,6.5723,6.5605,6.5585,6.5585,6.5584,6.5603,6.5602,6.5602,6.5758,6.5954,6.6227,6.6344,6.6579,6.6894,6.6875,6.6894,6.6891,6.6911,6.6892,6.6893,6.6953,6.7265,6.7695,6.8359,6.8867,6.9765,7.0019,7.0097,6.9707,6.9004,6.8457,6.7812,6.7168,6.6894,6.6894,6.6894,6.6894,6.6894,6.6894,6.6894,6.6894,6.6894,6.6894,6.6601,6.6191,6.5273,6.4314,6.3587,6.3111,6.2492,6.2114,6.1845,6.1627,6.1454,6.1256,6.1145,6.1031,6.0916,6.0641,6.0065,5.9526,5.9155,5.9749,6.0122,6.047,6.0813,6.1237,6.1401,6.1303,6.1459,6.1462,6.144,6.1401,6.1402,6.1401,6.1347,6.1313,6.1301,6.1297,6.1324,7.2395,7.2415,7.2395,7.2395,7.2372,7.2177,7.2147,7.2073,7.1874,7.172,7.176,7.1658,7.119,7.0571,7.0199,6.9822,6.9256,6.9194,6.8765,6.8297,6.7953,6.7578,6.7179,6.684,6.6787,6.6773,6.6768,6.6821,6.6892,6.6816,6.6875,6.6777,6.6855,6.6894,6.6758,6.6582,6.6875,6.689,6.6888,6.6884,6.6881,6.6878,6.6878,6.6878,6.6878,6.6841,6.6782,6.6841,6.7035,6.7074,6.7033,6.6955,6.7053,6.6953,6.6862,6.6988,6.7557,6.791,6.8515,6.9394,7.0156,7.0527,7.084,7.0488,6.9687,6.8808,6.7851,6.7129,6.6894,6.6894,6.6894,6.6894,6.6894,6.6894,6.6894,6.6894,6.6894,6.6894,6.6894,6.6504,6.6113,6.548,6.4613,6.3811,6.3179,6.2756,6.2477,6.1966,6.1733,6.1219,6.1041,6.0959,6.0891,6.088,6.058,6.0283,6.0115,6.0459,6.0615,6.0757,6.1077,6.1423,6.151,6.1565,6.1568,6.1553,6.151,6.1473,6.1464,6.1409,6.1279,6.1197,6.115,6.1094,6.1072,7.4107,7.4093,7.4074,7.4057,7.3839,7.3157,7.2828,7.2647,7.1978,7.1628,7.1612,7.158,7.1126,7.0452,6.9721,6.9344,6.9247,6.9325,6.9247,6.8897,6.8396,6.8043,6.7676,6.698,6.7023,6.7056,6.6934,6.6783,6.7014,6.7059,6.6906,6.6906,6.6887,6.6885,6.6865,6.6979,6.6818,6.6834,6.6846,6.6839,6.6798,6.6817,6.6817,6.6817,6.6798,6.6817,6.6834,6.6932,6.7205,6.7729,6.7155,6.7191,6.7578,6.7097,6.6808,6.6773,6.6989,6.7354,6.8077,6.9093,6.9953,7.0559,7.1246,7.1247,7.037,6.9023,6.7851,6.7012,6.6894,6.6894,6.6894,6.6894,6.6894,6.6894,6.6894,6.6894,6.6894,6.6894,6.6894,6.6855,6.6465,6.6078,6.5453,6.4639,6.3884,6.3492,6.3051,6.2563,6.2063,6.1611,6.1272,6.1276,6.0995,6.0957,6.0938,6.0668,6.073,6.1032,6.1042,6.1022,6.127,6.1509,6.1595,6.1642,6.1647,6.1625,6.1601,6.1557,6.1515,6.1408,6.1275,6.1106,6.0953,6.0902,6.0841,7.5014,7.4238,7.4203,7.4161,7.4078,7.3665,7.3204,7.2731,7.2334,7.188,7.1494,7.1436,7.1184,7.0746,7.0453,7.0365,7.0345,7.0268,7.0016,6.9647,6.9195,6.8831,6.8462,6.8129,6.7963,6.7878,6.8024,6.8193,6.7946,6.7278,6.685,6.6909,6.687,6.6807,6.7034,6.7283,6.7445,6.7507,6.7466,6.7204,6.6873,6.6736,6.6736,6.6736,6.6736,6.6736,6.6834,6.7321,6.7567,6.8041,6.7891,6.8266,6.8485,6.8299,6.8085,6.8095,6.814,6.7942,6.7622,6.8703,6.9523,7.0191,7.1077,7.1533,7.0601,6.9295,6.8164,6.7695,6.7148,6.6953,6.6933,6.6894,6.6894,6.6894,6.6894,6.6894,6.6894,6.6894,6.6894,6.6875,6.683,6.6442,6.6037,6.539,6.4747,6.4413,6.3854,6.3216,6.2723,6.2245,6.1983,6.183,6.1426,6.1051,6.1051,6.0935,6.0934,6.115,6.1267,6.1271,6.1393,6.1566,6.1637,6.1693,6.1677,6.1674,6.1666,6.1607,6.1552,6.14,6.1252,6.1049,6.085,6.0601,6.052,7.5681,7.4635,7.4616,7.4596,7.4528,7.4293,7.3698,7.2919,7.2629,7.2046,7.1432,7.1258,7.1242,7.1225,7.1158,7.1053,7.1178,7.1255,7.0887,7.0412,7.0008,6.9614,6.9169,6.8983,6.8767,6.8951,6.8696,6.8773,6.8559,6.8085,6.7512,6.7393,6.7653,6.7512,6.7559,6.787,6.8135,6.7807,6.7804,6.7389,6.6805,6.663,6.6649,6.6669,6.6649,6.6649,6.676,6.7391,6.782,6.8313,6.863,6.8932,6.9247,6.8952,6.8777,6.8773,6.8769,6.8423,6.8256,6.881,6.9467,7.0109,7.0794,7.159,7.073,6.9407,6.863,6.8535,6.7754,6.7383,6.7187,6.7109,6.6894,6.6894,6.6894,6.6894,6.6894,6.6894,6.6894,6.6894,6.6868,6.6807,6.6411,6.5986,6.5609,6.5317,6.4716,6.3949,6.3434,6.2959,6.281,6.2655,6.2157,6.1727,6.1627,6.1549,6.1446,6.1332,6.1446,6.1456,6.1537,6.1602,6.1679,6.1698,6.1695,6.1698,6.1679,6.1631,6.158,6.1415,6.1235,6.0954,6.0723,6.0431,6.0112,7.6167,7.6077,7.6142,7.6096,7.5997,7.5263,7.4422,7.3562,7.2828,7.2044,7.1292,7.1157,7.1214,7.1111,7.1111,7.1111,7.1111,7.1099,7.0995,7.0718,7.0309,6.9996,6.9701,6.9347,6.8953,6.8954,6.9169,6.915,6.8946,6.9121,6.8877,6.8995,6.8672,6.8875,6.887,6.8747,6.8596,6.8221,6.802,6.7476,6.6854,6.6562,6.6504,6.6504,6.6504,6.6524,6.6562,6.7348,6.8042,6.8646,6.9079,6.945,6.9828,6.9488,6.9275,6.9276,6.9266,6.9051,6.9098,6.9492,7.0116,7.0612,7.1117,7.1581,7.0894,7.0684,7.0108,6.9352,6.8573,6.8183,6.7871,6.748,6.7187,6.709,6.709,6.6894,6.6894,6.6894,6.6894,6.6894,6.6869,6.6809,6.6753,6.6342,6.6121,6.5838,6.5461,6.4723,6.4261,6.3835,6.3744,6.3538,6.3012,6.2672,6.2516,6.2392,6.2159,6.1918,6.1876,6.1727,6.1592,6.166,6.1686,6.168,6.1672,6.1687,6.1697,6.1649,6.1579,6.1427,6.1211,6.0887,6.0393,5.992,5.9551,7.6082,7.6082,7.6131,7.6159,7.6153,7.5785,7.5127,7.4368,7.3944,7.3001,7.1768,7.1768,7.1479,7.1133,7.0979,7.0998,7.0979,7.0979,7.0998,7.0921,7.0639,7.0561,7.0394,7.0276,7.0165,7.0104,7.0158,7.025,7.0352,7.0124,7.0341,7.0261,6.9581,6.9048,6.9007,6.9456,6.9324,6.9043,6.853,6.791,6.7193,6.6534,6.6321,6.6301,6.6321,6.6321,6.6495,6.7658,6.8307,6.8915,6.9667,7.0223,7.0529,7.0166,7.0069,7.0042,7.0023,7.0046,6.9993,7.0283,7.0443,7.1065,7.1479,7.1633,7.1187,7.0954,7.0611,7.0022,6.9428,6.8982,6.8828,6.8242,6.7734,6.7578,6.7344,6.709,6.6894,6.6894,6.6894,6.6894,6.6875,6.6854,6.6781,6.667,6.649,6.6309,6.5934,6.5547,6.5111,6.4793,6.4714,6.4487,6.399,6.3668,6.352,6.3198,6.2855,6.261,6.2371,6.2243,6.2066,6.1619,6.1646,6.1634,6.1654,6.1637,6.1647,6.164,6.1564,6.1412,6.1123,6.0787,6.0177,5.9556,5.9178,7.5995,7.5995,7.5995,7.6024,7.6067,7.6044,7.5515,7.4803,7.4668,7.3957,7.261,7.2572,7.2302,7.1802,7.1706,7.1514,7.147,7.1335,7.111,7.097,7.0887,7.0925,7.0952,7.0902,7.0774,7.103,7.1043,7.0985,7.0913,7.1104,7.1004,7.0675,7.018,6.9737,6.9767,6.9982,7.022,6.9814,6.9129,6.8279,6.7428,6.6627,6.6144,6.6144,6.6163,6.6144,6.6559,6.7553,6.8447,6.9127,6.9934,7.0881,7.1049,7.1043,7.1043,7.1043,7.1043,7.1024,7.0913,7.0822,7.0728,7.1232,7.1453,7.1619,7.1541,7.1243,7.1093,7.1043,7.0315,6.9757,6.9719,6.9082,6.832,6.8047,6.7754,6.7461,6.7031,6.6894,6.6894,6.6894,6.6875,6.6881,6.6822,6.6759,6.6677,6.6521,6.6295,6.609,6.6011,6.5782,6.5711,6.5426,6.5028,6.4753,6.4523,6.4043,6.3588,6.3434,6.3202,6.2994,6.2744,6.2251,6.1918,6.2021,6.1963,6.1701,6.1605,6.1659,6.1555,6.1422,6.1073,6.0697,6.022,5.9609,5.9084,7.5995,7.5995,7.5995,7.5995,7.601,7.5995,7.5534,7.4899,7.4822,7.4322,7.3533,7.3476,7.3399,7.3245,7.3033,7.2706,7.2264,7.2149,7.1879,7.1418,7.1206,7.1033,7.097,7.1022,7.0925,7.0912,7.0925,7.0952,7.092,7.0985,7.0992,7.0979,7.0702,7.0674,7.1054,7.1065,7.0662,6.991,6.9119,6.8328,6.7498,6.6669,6.6264,6.6032,6.6032,6.6032,6.6599,6.7675,6.8538,6.9046,7.017,7.0875,7.0939,7.0939,7.0925,7.0925,7.0925,7.0912,7.0887,7.106,7.1136,7.1222,7.1388,7.1489,7.161,7.1614,7.1663,7.1526,7.1045,7.067,7.0347,6.9903,6.9124,6.8486,6.8178,6.7654,6.7205,6.6894,6.6894,6.6894,6.6894,6.6889,6.6836,6.6787,6.677,6.6677,6.6555,6.6529,6.6588,6.651,6.6341,6.6186,6.5814,6.5718,6.5379,6.4764,6.4355,6.4223,6.4038,6.381,6.3481,6.3042,6.2769,6.2607,6.2496,6.2401,6.2028,6.1671,6.1896,6.2069,6.1102,6.0594,6.0144,5.9825,5.9483,7.5995,7.5995,7.5995,7.5995,7.5995,7.5995,7.5803,7.5592,7.5495,7.5072,7.4418,7.4303,7.3957,7.3654,7.3572,7.3418,7.3149,7.3072,7.2745,7.2572,7.2033,7.1822,7.1648,7.1264,7.0975,7.0918,7.0918,7.0898,7.0912,7.0925,7.0925,7.0912,7.0925,7.0952,7.0953,7.0959,7.0754,7.0465,6.9753,6.8905,6.802,6.7204,6.653,6.6088,6.6068,6.6299,6.6761,6.8007,6.8687,6.9226,7.0417,7.0841,7.0898,7.0898,7.0898,7.0898,7.0898,7.0906,7.0952,7.1037,7.1074,7.1178,7.128,7.1407,7.1525,7.161,7.1725,7.1813,7.1545,7.1293,7.1281,7.0645,6.9896,6.9032,6.8497,6.7727,6.7207,6.6992,6.6894,6.6894,6.6894,6.6891,6.6863,6.7227,6.7299,6.7271,6.7194,6.6868,6.6809,6.6764,6.6664,6.6668,6.651,6.6501,6.625,6.5662,6.524,6.5072,6.4849,6.4598,6.4226,6.3837,6.36,6.3414,6.3287,6.3142,6.2948,6.2812,6.2933,6.2749,6.2166,6.1534,6.1238,6.0854,6.0378,7.5995,7.5995,7.5995,7.5995,7.5995,7.5995,7.5995,7.5995,7.5976,7.5668,7.5245,7.5149,7.4938,7.4514,7.4361,7.4072,7.3976,7.3918,7.3591,7.3495,7.2956,7.2706,7.2379,7.1802,7.1533,7.1283,7.1014,7.0898,7.0898,7.0898,7.0898,7.0898,7.0898,7.0912,7.0912,7.0893,7.0893,7.0604,7.0008,6.9411,6.8719,6.8045,6.7334,6.7007,6.693,6.7071,6.7648,6.8359,6.9109,6.9783,7.036,7.0879,7.0898,7.0898,7.0898,7.0898,7.0906,7.0965,7.1037,7.1081,7.1123,7.1224,7.1258,7.1315,7.1436,7.1536,7.1626,7.1705,7.1725,7.171,7.1583,7.098,7.0559,6.9705,6.8925,6.8162,6.75,6.7285,6.6894,6.6894,6.6894,6.6894,6.7007,6.757,6.7931,6.7904,6.7876,6.7559,6.7278,6.7254,6.7186,6.7099,6.6989,6.6875,6.6795,6.657,6.6214,6.5952,6.5655,6.5347,6.5121,6.4765,6.4511,6.4192,6.3934,6.3833,6.4035,6.4071,6.4086,6.4078,6.3861,6.3219,6.2519,6.1813,6.1185,7.5995,7.5995,7.5995,7.5995,7.5995,7.5981,7.5981,7.5995,7.5995,7.5962,7.5942,7.5865,7.5682,7.5831,7.5865,7.5389,7.4832,7.4735,7.4356,7.3856,7.3611,7.3529,7.3145,7.2524,7.1996,7.1755,7.1404,7.0871,7.0885,7.0898,7.0898,7.0898,7.0898,7.0898,7.0898,7.0898,7.0898,7.0687,7.0341,6.9821,6.9321,6.8821,6.8302,6.8032,6.7975,6.8129,6.8571,6.9129,6.9571,7.0052,7.0475,7.0764,7.0898,7.0898,7.0898,7.0925,7.0946,7.1056,7.1137,7.1178,7.1258,7.1324,7.128,7.1313,7.1385,7.1475,7.152,7.1562,7.1583,7.1575,7.1488,7.1336,7.118,7.0381,6.9591,6.8808,6.8034,6.7539,6.7051,6.6894,6.6894,6.6933,6.7109,6.7596,6.8532,6.8746,6.8839,6.905,6.8717,6.8232,6.8061,6.7633,6.748,6.7187,6.7122,6.7189,6.6787,6.6405,6.6315,6.6063,6.5864,6.5613,6.5361,6.5002,6.4532,6.4514,6.4951,6.5126,6.5164,6.5109,6.4941,6.4413,6.3563,6.2575,6.1906,7.5995,7.5995,7.5995,7.5995,7.5981,7.5955,7.5955,7.5981,7.5955,7.5925,7.5945,7.5826,7.5772,7.5791,7.5791,7.5618,7.5503,7.5407,7.5315,7.4931,7.4394,7.4259,7.3722,7.2897,7.2244,7.1775,7.1329,7.0873,7.0829,7.0857,7.0898,7.0898,7.0898,7.0898,7.0898,7.0898,7.0898,7.0841,7.0552,7.0244,6.9917,6.9475,6.9071,6.8763,6.8648,6.884,6.936,6.9571,6.9975,7.0533,7.0725,7.0898,7.0898,7.0898,7.0912,7.0979,7.1081,7.1178,7.1236,7.1311,7.1385,7.1426,7.1385,7.1395,7.1435,7.1416,7.1396,7.1407,7.1397,7.1407,7.1434,7.1361,7.121,7.0674,6.986,6.9039,6.8254,6.7531,6.7068,6.6894,6.6894,6.6933,6.7109,6.8222,6.9101,6.9453,6.9805,7.0097,7.0019,6.9472,6.8867,6.8398,6.8242,6.8046,6.7846,6.7855,6.7311,6.688,6.6816,6.6679,6.6327,6.6135,6.6074,6.5867,6.5522,6.5666,6.6074,6.6095,6.5884,6.5857,6.5669,6.5191,6.4581,6.3578,6.2839,7.5995,7.5995,7.5995,7.6,7.5936,7.5829,7.5814,7.581,7.5798,7.5785,7.5766,7.5628,7.5575,7.5575,7.5595,7.5556,7.5556,7.5499,7.5461,7.531,7.5028,7.4896,7.4265,7.3371,7.2702,7.21,7.1528,7.1053,7.0873,7.0843,7.0898,7.0898,7.0898,7.0898,7.0898,7.0898,7.0898,7.0898,7.0802,7.0571,7.0341,7.0148,6.9783,6.9456,6.9321,6.9687,7.0033,7.0129,7.0456,7.0841,7.0879,7.0912,7.0952,7.0992,7.1037,7.1142,7.1228,7.1315,7.1377,7.1446,7.1494,7.1504,7.1465,7.1416,7.1375,7.1324,7.1291,7.128,7.1247,7.1216,7.1272,7.1288,7.1075,7.0833,6.9985,6.9139,6.8332,6.7524,6.7181,6.695,6.6894,6.6894,6.7518,6.8749,6.957,6.9785,7.039,7.1133,7.0937,7.039,6.9707,6.9082,6.9082,6.9042,6.8823,6.854,6.8105,6.7668,6.7394,6.7194,6.6828,6.6555,6.6451,6.6503,6.656,6.6628,6.656,6.6575,6.6443,6.6349,6.6137,6.5709,6.5201,6.4615,6.403,7.5995,7.5995,7.5995,7.5955,7.5864,7.5666,7.5566,7.5549,7.5497,7.5532,7.5532,7.5388,7.5297,7.5261,7.5243,7.5242,7.5242,7.5242,7.5261,7.5333,7.5111,7.5017,7.4676,7.4105,7.2849,7.2368,7.1801,7.0914,7.0833,7.0834,7.0898,7.0898,7.0898,7.0898,7.0898,7.0898,7.0898,7.0898,7.0898,7.0783,7.0821,7.0841,7.0898,7.0783,7.0725,7.0821,7.0821,7.086,7.0898,7.0898,7.0912,7.0933,7.1056,7.1147,7.1228,7.1304,7.1397,7.1446,7.1492,7.1527,7.1549,7.1569,7.1533,7.1395,7.1291,7.1236,7.1201,7.1142,7.1118,7.1074,7.1123,7.1239,7.1145,7.0749,7.0071,6.9455,6.8909,6.8095,6.7461,6.7388,6.7619,6.7642,6.7959,6.9152,6.9958,7.0117,7.0742,7.1738,7.1699,7.1152,7.0644,6.9961,7.0117,7.0097,6.9665,6.9364,6.9,6.8596,6.8199,6.7944,6.7755,6.7315,6.6798,6.6922,6.7056,6.6831,6.6752,6.6726,6.6644,6.6478,6.6278,6.6067,6.5692,6.5245,6.481,7.5995,7.5995,7.594,7.586,7.5731,7.5478,7.5263,7.5038,7.484,7.494,7.5114,7.4922,7.4802,7.4802,7.4723,7.4704,7.4763,7.4783,7.4802,7.4763,7.4741,7.468,7.4336,7.3329,7.2519,7.1901,7.1234,7.0667,7.0742,7.0829,7.0898,7.0898,7.0898,7.0898,7.0898,7.0898,7.0898,7.0898,7.0898,7.0898,7.0898,7.0898,7.0898,7.0898,7.0898,7.0898,7.0898,7.0879,7.0939,7.0965,7.0979,7.1068,7.1224,7.1296,7.1378,7.1464,7.1564,7.1598,7.1589,7.157,7.1566,7.1504,7.1425,7.128,7.119,7.1154,7.1106,7.1043,7.0992,7.0979,7.0998,7.1147,7.1197,7.0716,7.021,6.9829,6.9419,6.8655,6.7849,6.8019,6.8329,6.8549,6.8776,6.9335,7.0126,7.0781,7.1367,7.1953,7.1972,7.166,7.1582,7.1133,7.1347,7.125,7.0703,7.0249,6.9908,6.9509,6.9098,6.8872,6.8668,6.8186,6.7688,6.7492,6.7432,6.7168,6.6928,6.6802,6.6693,6.6571,6.6429,6.625,6.6076,6.5686,6.523,7.5995,7.6,7.5829,7.5666,7.5476,7.5171,7.488,7.4615,7.429,7.4245,7.4406,7.4381,7.4356,7.4312,7.4226,7.4139,7.4207,7.4184,7.4184,7.4184,7.4162,7.407,7.3442,7.2691,7.2222,7.1586,7.0763,7.0364,7.0631,7.0829,7.0898,7.0898,7.0898,7.0898,7.0898,7.0898,7.0898,7.0898,7.0898,7.0898,7.0898,7.0898,7.0898,7.0898,7.0898,7.0912,7.092,7.0933,7.1005,7.1086,7.1139,7.1225,7.1378,7.148,7.1556,7.1641,7.1697,7.1717,7.1653,7.1598,7.152,7.1406,7.1332,7.1201,7.1106,7.1056,7.103,7.0965,7.0939,7.0925,7.1005,7.1142,7.1285,7.1065,7.0467,6.9977,6.9553,6.8955,6.8585,6.8641,6.8841,6.8912,6.9229,6.9754,7.0438,7.0753,7.146,7.1951,7.1992,7.1992,7.1992,7.1992,7.1992,7.1972,7.1484,7.1131,7.0874,7.0459,6.9986,6.9632,6.9314,6.8948,6.8604,6.8301,6.789,6.7402,6.718,6.7143,6.6862,6.6705,6.6577,6.6436,6.6308,6.626,6.5846,7.5995,7.597,7.5679,7.5443,7.5189,7.4778,7.4479,7.4172,7.3781,7.3553,7.3528,7.3819,7.3867,7.3824,7.3795,7.3703,7.3678,7.3684,7.3659,7.361,7.3535,7.3553,7.3174,7.2454,7.1677,7.1062,7.0403,7.0364,7.0524,7.0739,7.0871,7.0885,7.0898,7.0898,7.0898,7.0898,7.0898,7.0898,7.0898,7.0898,7.0898,7.0898,7.0898,7.0898,7.0912,7.0952,7.0992,7.1024,7.1106,7.1239,7.1348,7.146,7.1544,7.1646,7.1712,7.1775,7.1776,7.1751,7.1671,7.1542,7.1426,7.1304,7.1236,7.1142,7.103,7.0992,7.0965,7.0965,7.0939,7.0979,7.1056,7.1159,7.1327,7.1335,7.0735,7.0116,6.9652,6.9337,6.9356,6.9344,6.9448,6.9486,6.9868,7.039,7.0662,7.0952,7.1242,7.1677,7.1992,7.1992,7.1992,7.1992,7.1992,7.1953,7.1914,7.1738,7.1445,7.1287,7.0796,7.0368,6.9996,6.9782,6.9433,6.8945,6.8496,6.8105,6.783,6.7745,6.7395,6.7211,6.7411,6.7523,6.7268,6.7116,6.6583,7.597,7.5895,7.5561,7.5261,7.4922,7.4425,7.3991,7.3628,7.3368,7.3178,7.3135,7.3135,7.3196,7.3264,7.3188,7.317,7.3238,7.3212,7.3212,7.3212,7.3141,7.3143,7.2754,7.1884,7.0662,7.0116,7.0024,7.0257,7.0461,7.0695,7.0843,7.0898,7.0898,7.0898,7.0898,7.0898,7.0898,7.0898,7.0898,7.0898,7.0898,7.0898,7.0898,7.0912,7.0952,7.1018,7.1081,7.1123,7.1239,7.1378,7.1542,7.1653,7.173,7.1808,7.1853,7.1833,7.1838,7.1738,7.1637,7.1499,7.1357,7.1205,7.113,7.103,7.0979,7.0998,7.1005,7.1068,7.1068,7.1086,7.117,7.1302,7.1436,7.1377,7.0998,7.0323,6.9743,6.9902,7.0067,7.0233,7.0432,7.0579,7.0844,7.1154,7.1214,7.1413,7.1419,7.1763,7.1522,7.1719,7.1855,7.1797,7.1738,7.1992,7.1972,7.1972,7.1777,7.1719,7.164,7.123,7.0918,7.0762,7.0371,6.9765,6.9414,6.9101,6.8826,6.8396,6.8565,6.851,6.8755,6.8827,6.8451,6.8021,6.7526]}]]